[[{"header":{"parameterUnit":"m.s-1","parameterCategory":1,"la1":30.6,"la2":29.2853,"lo1":-89.7004,"lo2":-87.6739,"dy":0.0162,"dx":0.0183,"nx":112,"ny":82,"refTime":"2023-11-01T12:00:00:Z","depth":0,"parameterNumber":2,"parameterNumberName":"U-component_of_WINDS"},"data":[0.0,0.0,0.0,0.0,0.0,0.0,0.0,0.0,0.0,0.0,0.0,0.0,0.0,0.0,0.0,0.0,0.0,0.0,0.0,0.0,0.0,0.0,0.0,0.0,0.0,0.0,0.0,0.0,0.0,0.0,0.0,0.0,0.0,0.0,0.0,0.0,0.0,0.0,0.0,0.0,0.0,0.0,0.0,0.0,0.0,0.0,0.0,0.0,0.0,0.0,0.0,0.0,0.0,0.0,0.0,0.0,0.0,0.0,0.0,0.0,0.0,0.0,0.0,0.0,0.0,0.0,0.0,0.0,0.0,0.0,0.0,0.0,0.0,0.0,0.0,0.0,0.0,0.0,0.0,0.0,0.0,0.0,0.0,0.0,0.0,0.0,0.0,0.0,0.0,0.0,-2.6691,-2.6691,-2.6691,-2.6691,-2.6691,-2.6691,-2.6691,-2.6691,0.0,0.0,0.0,0.0,0.0,0.0,0.0,0.0,0.0,0.0,0.0,0.0,0.0,0.0,0.0,0.0,0.0,0.0,0.0,0.0,0.0,0.0,0.0,0.0,0.0,0.0,0.0,0.0,0.0,0.0,0.0,0.0,0.0,0.0,0.0,0.0,0.0,0.0,0.0,0.0,0.0,0.0,0.0,0.0,0.0,0.0,0.0,0.0,0.0,0.0,0.0,0.0,0.0,0.0,0.0,0.0,0.0,0.0,0.0,0.0,0.0,0.0,0.0,0.0,0.0,0.0,0.0,0.0,0.0,0.0,0.0,0.0,0.0,0.0,0.0,0.0,0.0,0.0,0.0,0.0,0.0,0.0,0.0,0.0,0.0,0.0,0.0,0.0,0.0,0.0,0.0,0.0,0.0,0.0,0.0,0.0,0.0,0.0,0.0,0.0,0.0,0.0,0.0,0.0,-2.6691,-2.6691,-2.6691,-2.6691,-2.6691,-2.6691,-2.6691,-2.6691,0.0,0.0,0.0,0.0,0.0,0.0,0.0,0.0,0.0,0.0,0.0,0.0,0.0,0.0,0.0,0.0,0.0,0.0,0.0,0.0,0.0,0.0,0.0,0.0,0.0,0.0,0.0,0.0,0.0,0.0,0.0,0.0,0.0,0.0,0.0,0.0,0.0,0.0,0.0,0.0,0.0,0.0,0.0,0.0,0.0,0.0,0.0,0.0,0.0,0.0,0.0,0.0,0.0,0.0,0.0,0.0,0.0,0.0,0.0,0.0,0.0,0.0,0.0,0.0,0.0,0.0,0.0,0.0,0.0,0.0,0.0,0.0,0.0,0.0,0.0,0.0,0.0,0.0,0.0,0.0,0.0,0.0,0.0,0.0,0.0,0.0,0.0,0.0,0.0,0.0,0.0,0.0,0.0,0.0,0.0,0.0,0.0,0.0,0.0,0.0,0.0,0.0,0.0,-2.6691,-2.6691,-2.6691,-2.6691,-2.6691,-2.6691,-2.6691,-2.6691,-2.6691,-2.6691,0.0,0.0,0.0,0.0,0.0,0.0,0.0,0.0,0.0,0.0,0.0,0.0,0.0,0.0,0.0,0.0,0.0,0.0,0.0,0.0,0.0,0.0,0.0,0.0,0.0,0.0,0.0,0.0,0.0,0.0,0.0,0.0,0.0,0.0,0.0,0.0,0.0,0.0,0.0,0.0,0.0,0.0,0.0,0.0,0.0,0.0,0.0,0.0,0.0,0.0,0.0,0.0,0.0,0.0,0.0,0.0,0.0,0.0,0.0,0.0,0.0,0.0,0.0,0.0,0.0,0.0,0.0,0.0,0.0,0.0,0.0,0.0,0.0,0.0,0.0,0.0,0.0,0.0,0.0,0.0,0.0,0.0,0.0,0.0,0.0,0.0,0.0,0.0,0.0,0.0,0.0,0.0,0.0,0.0,0.0,0.0,0.0,0.0,0.0,0.0,0.0,0.0,-2.6691,-2.6691,-2.6691,-2.6691,-2.6691,-2.6691,-2.6691,-2.6691,-2.6691,-2.6691,0.0,0.0,0.0,0.0,0.0,0.0,0.0,0.0,0.0,0.0,0.0,0.0,0.0,0.0,0.0,0.0,0.0,0.0,0.0,0.0,0.0,0.0,0.0,0.0,0.0,0.0,0.0,0.0,0.0,0.0,0.0,0.0,0.0,0.0,0.0,0.0,0.0,0.0,0.0,0.0,0.0,0.0,0.0,0.0,0.0,0.0,0.0,0.0,0.0,0.0,0.0,0.0,0.0,0.0,0.0,0.0,0.0,0.0,0.0,0.0,0.0,0.0,0.0,0.0,0.0,0.0,0.0,0.0,0.0,0.0,0.0,0.0,0.0,0.0,0.0,0.0,0.0,0.0,0.0,0.0,0.0,0.0,0.0,0.0,0.0,0.0,0.0,0.0,0.0,0.0,0.0,0.0,0.0,0.0,0.0,0.0,0.0,0.0,0.0,0.0,0.0,0.0,-2.6691,-2.6691,-2.6691,-2.6691,-2.6691,-2.6691,-2.6691,-2.6691,-2.6691,-2.6691,0.0,0.0,0.0,0.0,0.0,0.0,0.0,0.0,0.0,0.0,0.0,0.0,0.0,0.0,0.0,0.0,0.0,0.0,0.0,0.0,0.0,0.0,0.0,0.0,0.0,0.0,0.0,0.0,0.0,0.0,0.0,0.0,0.0,0.0,0.0,0.0,0.0,0.0,0.0,0.0,0.0,0.0,0.0,0.0,0.0,0.0,0.0,0.0,0.0,0.0,0.0,0.0,0.0,0.0,0.0,0.0,0.0,0.0,0.0,0.0,0.0,0.0,0.0,0.0,0.0,0.0,0.0,0.0,0.0,0.0,0.0,0.0,0.0,0.0,0.0,0.0,0.0,0.0,0.0,0.0,0.0,0.0,0.0,0.0,0.0,0.0,0.0,0.0,0.0,0.0,0.0,0.0,0.0,0.0,0.0,0.0,0.0,0.0,0.0,0.0,0.0,0.0,-2.6691,-2.6691,-2.6691,-2.6691,-2.6691,-2.6691,-2.6691,-2.6691,-2.6691,0.0,0.0,0.0,0.0,0.0,0.0,0.0,0.0,0.0,0.0,0.0,0.0,0.0,0.0,0.0,0.0,0.0,0.0,0.0,0.0,0.0,0.0,0.0,0.0,0.0,0.0,0.0,0.0,0.0,0.0,0.0,0.0,0.0,0.0,0.0,0.0,0.0,0.0,0.0,0.0,0.0,0.0,0.0,0.0,0.0,0.0,0.0,0.0,0.0,0.0,0.0,0.0,0.0,0.0,0.0,0.0,0.0,0.0,0.0,0.0,0.0,0.0,0.0,0.0,0.0,0.0,0.0,0.0,0.0,0.0,0.0,0.0,0.0,0.0,0.0,0.0,0.0,0.0,0.0,0.0,0.0,0.0,0.0,0.0,0.0,0.0,0.0,0.0,0.0,0.0,0.0,0.0,0.0,0.0,0.0,0.0,0.0,0.0,0.0,0.0,0.0,0.0,-2.6691,-2.6691,-2.6691,-2.6691,-2.6691,-2.6691,-2.6691,-2.6691,-2.6691,-2.6691,0.0,0.0,0.0,0.0,0.0,0.0,0.0,0.0,0.0,0.0,0.0,0.0,0.0,0.0,0.0,0.0,0.0,0.0,0.0,0.0,0.0,0.0,0.0,0.0,0.0,0.0,0.0,0.0,0.0,0.0,0.0,0.0,0.0,0.0,0.0,0.0,0.0,0.0,0.0,0.0,0.0,0.0,0.0,0.0,0.0,0.0,0.0,0.0,0.0,0.0,0.0,0.0,0.0,0.0,0.0,0.0,0.0,0.0,0.0,0.0,0.0,0.0,0.0,0.0,0.0,0.0,0.0,0.0,0.0,0.0,0.0,0.0,0.0,0.0,0.0,0.0,0.0,0.0,0.0,0.0,0.0,0.0,0.0,0.0,0.0,0.0,0.0,0.0,0.0,0.0,0.0,0.0,0.0,0.0,0.0,0.0,0.0,0.0,0.0,0.0,0.0,0.0,-2.6691,-2.6691,-2.6691,-2.6691,-2.6691,-2.6691,-2.6691,-2.6691,-2.6691,0.0,0.0,0.0,0.0,0.0,0.0,0.0,0.0,0.0,0.0,0.0,0.0,0.0,0.0,0.0,0.0,0.0,0.0,0.0,0.0,0.0,0.0,0.0,0.0,0.0,0.0,0.0,0.0,0.0,0.0,0.0,0.0,0.0,0.0,0.0,0.0,0.0,0.0,0.0,0.0,0.0,0.0,0.0,0.0,0.0,0.0,0.0,0.0,0.0,0.0,0.0,0.0,0.0,0.0,0.0,0.0,0.0,0.0,0.0,0.0,0.0,0.0,0.0,0.0,0.0,0.0,0.0,0.0,0.0,0.0,0.0,0.0,0.0,0.0,0.0,0.0,0.0,0.0,0.0,0.0,0.0,0.0,0.0,0.0,0.0,0.0,0.0,0.0,0.0,0.0,0.0,0.0,0.0,0.0,0.0,0.0,0.0,0.0,0.0,0.0,0.0,0.0,0.0,-2.6691,-2.6691,-2.6691,-2.6691,-2.6691,-2.6691,-2.6691,-2.6691,-2.6691,-2.6691,0.0,0.0,0.0,0.0,0.0,0.0,0.0,0.0,0.0,0.0,0.0,0.0,0.0,0.0,0.0,0.0,0.0,0.0,0.0,0.0,0.0,0.0,0.0,0.0,0.0,0.0,0.0,0.0,0.0,0.0,0.0,0.0,0.0,0.0,0.0,0.0,0.0,0.0,0.0,0.0,0.0,0.0,0.0,0.0,0.0,0.0,0.0,0.0,0.0,0.0,0.0,0.0,0.0,0.0,0.0,0.0,0.0,0.0,0.0,0.0,0.0,0.0,0.0,0.0,0.0,0.0,0.0,0.0,0.0,0.0,0.0,0.0,0.0,0.0,0.0,0.0,0.0,0.0,0.0,0.0,0.0,0.0,0.0,0.0,0.0,0.0,0.0,0.0,0.0,0.0,0.0,0.0,0.0,0.0,0.0,0.0,0.0,0.0,0.0,0.0,0.0,0.0,-2.6691,-2.6691,-2.6691,-2.6691,-2.6691,-2.6691,-2.6691,-2.6691,-2.6691,-2.6691,0.0,0.0,0.0,0.0,0.0,0.0,0.0,0.0,0.0,0.0,0.0,0.0,0.0,0.0,0.0,0.0,0.0,0.0,0.0,0.0,0.0,0.0,0.0,0.0,0.0,0.0,0.0,0.0,0.0,0.0,0.0,0.0,0.0,0.0,0.0,0.0,0.0,0.0,0.0,0.0,0.0,0.0,0.0,0.0,0.0,0.0,0.0,0.0,0.0,0.0,0.0,0.0,0.0,0.0,0.0,0.0,0.0,0.0,0.0,0.0,0.0,0.0,0.0,0.0,0.0,0.0,0.0,0.0,0.0,0.0,0.0,0.0,0.0,0.0,0.0,0.0,0.0,0.0,0.0,0.0,0.0,0.0,0.0,0.0,0.0,0.0,0.0,0.0,0.0,0.0,0.0,0.0,0.0,0.0,0.0,0.0,0.0,0.0,0.0,0.0,0.0,0.0,-2.6691,-2.6691,-2.6691,-2.6691,-2.6691,-2.6691,-2.6691,-2.6691,-2.6691,-2.6691,0.0,0.0,0.0,0.0,0.0,0.0,0.0,0.0,0.0,0.0,0.0,0.0,0.0,0.0,0.0,0.0,0.0,0.0,0.0,0.0,0.0,0.0,0.0,0.0,0.0,0.0,0.0,0.0,0.0,0.0,0.0,0.0,0.0,0.0,0.0,0.0,0.0,0.0,0.0,0.0,0.0,0.0,0.0,0.0,0.0,0.0,0.0,0.0,0.0,0.0,0.0,0.0,0.0,0.0,0.0,0.0,0.0,0.0,0.0,0.0,-3.1604,-3.1751,0.0,0.0,0.0,0.0,0.0,0.0,0.0,0.0,0.0,0.0,0.0,0.0,0.0,0.0,0.0,0.0,0.0,0.0,0.0,0.0,0.0,0.0,0.0,0.0,0.0,0.0,0.0,0.0,0.0,0.0,0.0,0.0,0.0,0.0,0.0,0.0,0.0,0.0,0.0,0.0,-2.6691,-2.6691,-2.6691,-2.6691,-2.6691,-2.6691,-2.6691,-2.6691,-2.6691,-2.6691,-2.6691,0.0,0.0,0.0,0.0,0.0,0.0,0.0,0.0,0.0,0.0,0.0,0.0,0.0,0.0,0.0,0.0,0.0,0.0,0.0,0.0,0.0,0.0,0.0,0.0,0.0,0.0,0.0,0.0,0.0,0.0,0.0,0.0,0.0,0.0,0.0,0.0,0.0,0.0,0.0,0.0,0.0,0.0,0.0,0.0,0.0,0.0,0.0,0.0,0.0,0.0,0.0,0.0,0.0,0.0,0.0,0.0,0.0,0.0,0.0,-3.2724,-3.2797,0.0,0.0,0.0,0.0,0.0,0.0,0.0,0.0,0.0,0.0,0.0,0.0,0.0,0.0,0.0,0.0,0.0,0.0,0.0,0.0,0.0,0.0,0.0,0.0,0.0,0.0,0.0,0.0,0.0,0.0,0.0,0.0,0.0,0.0,0.0,0.0,0.0,0.0,0.0,0.0,-2.7808,-2.7808,-2.7808,-2.7808,-2.7808,-2.7638,-2.7266,-2.7232,-2.708,-2.6708,-2.6691,0.0,0.0,0.0,0.0,0.0,0.0,0.0,0.0,0.0,0.0,0.0,0.0,0.0,0.0,0.0,0.0,0.0,0.0,0.0,0.0,0.0,0.0,0.0,0.0,0.0,0.0,0.0,0.0,0.0,0.0,0.0,0.0,0.0,0.0,0.0,0.0,0.0,0.0,0.0,0.0,0.0,0.0,0.0,0.0,0.0,0.0,0.0,0.0,0.0,0.0,0.0,0.0,0.0,-3.3634,-3.3855,-3.3807,-3.3807,-3.3807,-3.3807,-3.3807,-3.3807,-3.3807,-3.3807,0.0,0.0,0.0,0.0,0.0,0.0,0.0,0.0,0.0,0.0,0.0,0.0,0.0,0.0,0.0,0.0,0.0,0.0,0.0,0.0,0.0,0.0,-3.1706,-3.1302,-3.1197,-3.0916,-2.9933,0.0,0.0,0.0,0.0,0.0,0.0,0.0,0.0,0.0,0.0,0.0,-2.8993,-2.8993,-2.8993,-2.8993,-2.8993,-2.8721,-2.806,-2.801,-2.7689,-2.6945,-2.6894,-2.6826,0.0,0.0,0.0,0.0,0.0,0.0,0.0,0.0,0.0,0.0,0.0,0.0,0.0,0.0,0.0,0.0,0.0,0.0,0.0,0.0,0.0,0.0,0.0,0.0,0.0,0.0,0.0,0.0,0.0,0.0,0.0,0.0,-3.3093,-3.3093,0.0,0.0,0.0,0.0,0.0,0.0,0.0,0.0,0.0,0.0,0.0,0.0,0.0,-3.4273,-3.3952,-3.4293,-3.4214,-3.369,-3.4,-3.4018,-3.3807,-3.3807,-3.3807,-3.3807,-3.3807,0.0,-3.3807,-3.3807,0.0,0.0,0.0,0.0,0.0,0.0,0.0,0.0,0.0,0.0,0.0,0.0,0.0,0.0,0.0,0.0,0.0,0.0,0.0,0.0,0.0,0.0,-3.3298,-3.2549,-3.2371,-3.2334,-3.2167,-3.1102,-3.0133,-3.0072,-3.0057,-2.99,0.0,0.0,0.0,0.0,0.0,0.0,-2.8993,-2.8993,-2.8993,-2.8993,-2.8993,-2.8959,-2.8857,-2.884,-2.8501,-2.7705,-2.7655,-2.7385,-2.6725,-2.6691,0.0,0.0,0.0,0.0,0.0,0.0,0.0,0.0,0.0,0.0,0.0,0.0,0.0,0.0,0.0,0.0,0.0,0.0,0.0,0.0,0.0,0.0,0.0,0.0,0.0,0.0,0.0,0.0,0.0,-3.4754,-3.4461,-3.4507,-3.4421,-3.4365,0.0,0.0,0.0,0.0,0.0,0.0,0.0,0.0,0.0,-3.5753,-3.6102,-3.6196,-3.6067,-3.5908,-3.5701,-3.5443,-3.5391,-3.5316,-3.5202,-3.5202,-3.5202,-3.5202,-3.5202,-3.5202,-3.5128,-3.4192,-3.3807,-3.3807,0.0,0.0,0.0,0.0,-3.3807,-3.3807,-3.3807,-3.3807,-3.3807,-3.3807,0.0,0.0,0.0,0.0,0.0,0.0,0.0,-3.3762,-3.3578,-3.3666,-3.3715,-3.3366,-3.3275,-3.3275,-3.3275,-3.2734,-3.2083,-3.1448,-3.1102,-3.0757,-3.0298,-3.0213,0.0,0.0,0.0,-3.0245,-3.0245,-3.0245,-3.0245,-3.0245,-3.0245,-3.0057,-2.9651,-2.9617,-2.9296,-2.8518,-2.8467,-2.8129,-2.7351,-2.7334,-2.7131,0.0,0.0,0.0,0.0,0.0,0.0,0.0,0.0,0.0,0.0,0.0,0.0,0.0,0.0,0.0,0.0,0.0,0.0,0.0,0.0,0.0,0.0,0.0,0.0,0.0,0.0,0.0,0.0,-3.5579,-3.554,-3.5595,-3.5534,-3.55,0.0,0.0,0.0,0.0,0.0,0.0,-3.5837,-3.6419,-3.6725,-3.6725,-3.7328,-3.7599,-3.7517,-3.7136,-3.6844,-3.6708,-3.6509,-3.6366,-3.6303,-3.6303,-3.6303,-3.6303,-3.6303,-3.6303,-3.6193,-3.4945,-3.4302,-3.4119,-3.4119,-3.399,-3.3807,-3.3807,-3.3807,-3.3807,-3.3807,-3.3807,-3.3807,-3.3807,-3.3807,-3.3807,-3.3807,0.0,0.0,0.0,0.0,-3.3807,-3.3807,-3.3807,-3.3807,-3.3807,-3.3807,-3.3807,-3.3807,-3.3721,-3.3428,-3.2674,-3.2252,-3.1869,-3.142,-3.1252,0.0,-3.1325,-3.1269,-3.119,-3.119,-3.119,-3.119,-3.119,-3.119,-3.097,-3.0429,-3.0378,-3.0074,-2.9331,-2.9281,-2.8924,-2.8128,-2.7908,-2.7536,-2.6996,0.0,0.0,0.0,0.0,0.0,0.0,0.0,0.0,0.0,0.0,0.0,0.0,0.0,0.0,0.0,0.0,0.0,0.0,0.0,0.0,0.0,0.0,0.0,0.0,0.0,0.0,0.0,0.0,0.0,-3.5611,-3.5534,0.0,0.0,0.0,0.0,-3.6635,-3.7385,-3.7858,-3.7858,-3.7896,-3.7916,-3.7916,-3.7954,-3.7851,-3.7591,-3.7564,-3.7265,-3.669,-3.6696,-3.6552,-3.6303,-3.6303,-3.6303,-3.6303,-3.6303,-3.6303,-3.6285,-3.6211,-3.5697,-3.4949,-3.4949,-3.4472,-3.3807,-3.3807,-3.3807,-3.3807,-3.3807,-3.3807,-3.3807,-3.3807,-3.3807,-3.3807,-3.3807,-3.3807,0.0,0.0,-3.3807,-3.3807,-3.3807,-3.3807,-3.3807,-3.3807,-3.3807,-3.3807,-3.3807,-3.3508,-3.3332,-3.3652,-3.3693,-3.3552,-3.3141,0.0,-3.2263,-3.1826,-3.1449,-3.119,-3.119,-3.119,-3.119,-3.119,-3.119,-3.1173,-3.114,-3.114,-3.0835,-3.0091,-3.004,-2.9719,-2.8976,-2.8213,-2.779,-2.7756,-2.7063,0.0,0.0,0.0,0.0,0.0,0.0,0.0,0.0,0.0,0.0,0.0,0.0,0.0,0.0,0.0,0.0,0.0,0.0,0.0,0.0,0.0,0.0,0.0,0.0,0.0,0.0,0.0,0.0,-3.6241,-3.6291,0.0,-3.7046,-3.7373,-3.7546,-3.7546,-3.7815,-3.8238,-3.8815,-3.9342,-3.9873,-4.0431,-4.078,-4.0912,-4.0816,-4.0397,-4.0071,-3.9852,-3.9626,-3.9473,-3.9405,-3.9405,-3.9405,-3.9405,-3.9405,-3.9405,-3.935,-3.8836,-3.7514,-3.5844,-3.5844,-3.5661,-3.5404,-3.5404,-3.5055,-3.4564,-3.4564,-3.4215,-3.3807,-3.3807,-3.3807,-3.3807,-3.3807,-3.3807,-3.3807,-3.3807,-3.3807,-3.3807,-3.3807,-3.3807,-3.3807,-3.3807,-3.3807,-3.3807,-3.3807,-3.3694,-3.3638,-3.3762,-3.3578,-3.3273,-3.2842,-3.2616,-3.2248,-3.1526,-3.1291,-3.119,-3.119,-3.119,-3.119,-3.119,-3.119,-3.119,-3.119,-3.119,-3.1089,-3.0818,-3.0818,-3.048,-2.9736,-2.9431,-2.8804,-2.7824,-2.7536,-2.7182,0.0,0.0,0.0,0.0,0.0,0.0,0.0,0.0,0.0,0.0,0.0,0.0,0.0,0.0,0.0,0.0,0.0,0.0,0.0,0.0,0.0,0.0,0.0,0.0,0.0,-3.6072,-3.6328,-3.7115,-3.7165,-3.7488,-3.8354,-3.8681,-3.8969,-3.9258,-3.9546,-3.9969,-4.0546,-4.1093,-4.1643,-4.222,-4.2582,-4.2766,-4.2766,-4.2325,-4.2046,-4.1932,-4.1595,-4.1385,-4.1246,-4.1158,-4.1095,-4.1095,-4.1095,-4.1095,-4.1058,-4.0524,-3.9368,-3.7845,-3.7019,-3.6541,-3.6303,-3.6303,-3.5936,-3.5445,-3.5445,-3.5092,-3.4596,-3.4302,-3.4197,-3.4156,-3.388,-3.3807,-3.3807,-3.3807,-3.3807,-3.3807,-3.3807,-3.3807,-3.3807,-3.3807,-3.3807,-3.3807,-3.3807,-3.3807,-3.3807,-3.3807,-3.3578,-3.3302,-3.2981,-3.2825,-3.2484,-3.1749,-3.1506,-3.1351,-3.121,-3.119,-3.119,-3.119,-3.119,-3.119,-3.119,-3.119,-3.119,-3.119,-3.119,-3.097,-3.0497,-3.0243,-2.9616,-2.8601,-2.8077,-2.7553,-2.708,0.0,0.0,0.0,0.0,0.0,0.0,0.0,0.0,0.0,0.0,0.0,0.0,0.0,0.0,0.0,0.0,0.0,0.0,0.0,0.0,0.0,0.0,0.0,-3.7216,-3.7043,-3.7281,-3.8178,-3.8164,-3.843,-3.9342,-4.0131,-4.0931,-4.1769,-4.2624,-4.3104,-4.3143,-4.3143,-4.3143,-4.3181,-4.3201,-4.322,-4.322,-4.3231,-4.306,-4.2723,-4.2366,-4.2012,-4.1688,-4.1341,-4.1168,-4.1168,-4.1168,-4.1168,-4.1168,-4.115,-4.1132,-4.0893,-3.8539,-3.7125,-3.6413,-3.6413,-3.6376,-3.6321,-3.6303,-3.6303,-3.6156,-3.5316,-3.5041,-3.4894,-3.4119,-3.388,-3.3862,-3.3844,-3.3844,-3.3825,-3.3807,-3.3807,-3.3807,-3.3807,-3.3807,-3.3807,-3.3807,-3.3807,-3.3807,-3.3807,-3.3807,-3.3807,-3.3775,-3.3465,-3.3045,-3.2567,-3.2109,0.0,-3.1291,-3.1249,-3.123,-3.123,-3.121,-3.121,-3.119,-3.119,-3.119,-3.119,-3.119,-3.119,-3.119,-3.0514,-3.0125,-3.0108,-2.8618,-2.7841,-2.7841,0.0,0.0,0.0,0.0,0.0,0.0,0.0,0.0,0.0,0.0,0.0,0.0,0.0,0.0,0.0,0.0,0.0,0.0,0.0,0.0,0.0,-3.7676,-3.7963,-3.7172,-3.7545,-3.8399,-3.97,-3.9834,-4.04,-4.1912,-4.2258,-4.247,-4.272,-4.297,-4.3355,-4.3932,-4.397,-4.4259,-4.4902,-4.5528,-4.5855,-4.5855,-4.6195,-4.6161,-4.5767,-4.4867,-4.4228,-4.3815,-4.3145,-4.2837,-4.2837,-4.2837,-4.2837,-4.2782,-4.2213,-4.1974,-4.1864,-4.0598,-3.9625,-3.8909,-3.8909,-3.8157,-3.7088,-3.6486,-3.6303,-3.6266,-3.6028,-3.5936,-3.5899,-3.5679,-3.5605,-3.5477,-3.4839,-3.4674,-3.4546,-3.3954,-3.3807,-3.3807,-3.3807,-3.3807,-3.3807,-3.3807,-3.3807,-3.3807,-3.3807,-3.3807,-3.3707,-3.3422,-3.3273,-3.3045,-3.2567,-3.2401,-3.2265,-3.2162,-3.2144,-3.2021,-3.166,-3.164,-3.1526,-3.123,-3.119,-3.119,-3.119,-3.119,-3.119,-3.119,-3.1004,-3.0649,-3.0106,-2.9161,-2.867,0.0,0.0,0.0,0.0,0.0,0.0,0.0,0.0,0.0,0.0,0.0,0.0,0.0,0.0,0.0,0.0,0.0,0.0,0.0,0.0,0.0,0.0,-3.8887,-3.9425,-3.8695,-3.9039,-3.9927,-4.1452,-4.1601,-4.2124,-4.347,-4.3605,-4.3912,-4.4643,-4.4701,-4.5047,-4.5855,-4.5893,-4.6124,-4.6624,-4.7144,-4.7413,-4.7413,-4.7673,-4.7687,-4.7455,-4.6482,-4.5884,-4.5637,-4.4864,-4.4507,-4.4488,-4.414,-4.3993,-4.3938,-4.313,-4.28,-4.269,0.0,0.0,0.0,0.0,-3.9588,-3.8447,-3.7955,-3.7588,-3.7239,-3.6923,-3.6813,-3.6725,-3.6395,-3.6303,-3.6193,-3.5697,-3.5536,-3.544,-3.4963,-3.4578,-3.4289,-3.4289,-3.4045,-3.3807,-3.3807,-3.3807,-3.3807,-3.3807,-3.3807,0.0,-3.3494,-3.3447,-3.3302,-3.2856,-3.2793,-3.2713,-3.2517,-3.2501,-3.2401,-3.2109,-3.1933,-3.1715,-3.147,-3.131,0.0,0.0,0.0,-3.119,-3.119,-3.119,0.0,0.0,0.0,-2.9448,-2.9448,-2.9162,0.0,0.0,-2.7317,-2.6996,0.0,0.0,0.0,0.0,0.0,0.0,0.0,0.0,0.0,0.0,0.0,0.0,0.0,0.0,0.0,0.0,-4.0273,-4.1319,-4.1259,-4.1237,-4.1762,-4.3157,-4.3273,-4.3585,-4.4489,-4.4586,-4.5278,-4.6904,-4.7038,-4.7355,-4.8067,-4.8105,0.0,0.0,0.0,-4.8259,-4.8259,-4.8336,-4.8375,-4.8318,-4.7573,-4.7186,-4.7118,-4.6335,-4.5974,-4.5937,-4.5167,-4.4838,-4.4782,-4.3975,-4.3588,-4.3349,-4.1827,-4.1242,-4.1224,-4.1132,-4.0653,-4.0029,-4.0029,0.0,0.0,-3.8006,-3.7713,-3.7511,-3.678,-3.656,-3.6541,-3.645,-3.6431,-3.6413,-3.6321,-3.5734,-3.5151,-3.5151,-3.4601,-3.4045,-3.3954,-3.3935,-3.3917,-3.3825,-3.3807,-3.3807,-3.3807,-3.3807,-3.368,-3.3317,-3.3273,-3.3121,-3.2697,-3.2648,-3.2632,-3.2583,-3.2196,0.0,-3.1825,-3.147,-3.1249,-3.121,-3.119,-3.119,-3.119,-3.119,-3.119,-3.119,-3.0565,-3.0207,-3.0207,-2.9585,-2.9213,-2.9111,-2.8315,-2.7588,0.0,0.0,0.0,0.0,0.0,0.0,0.0,0.0,0.0,0.0,0.0,0.0,0.0,0.0,0.0,-4.0586,-4.1523,-4.2594,-4.3856,-4.398,-4.3975,-4.4076,-4.4072,-4.4682,-4.6259,-4.6413,-4.6817,-4.7798,-4.7875,-4.7952,-4.8086,-4.8105,-4.8105,-4.8105,-4.8779,-4.9144,-4.9144,-4.9856,-5.0035,-4.9698,-4.8917,0.0,-4.8008,-4.6878,-4.6394,-4.6362,-4.5879,-4.5663,-4.5608,-4.48,-4.4085,-4.3387,-4.2433,-4.2066,-4.1992,-4.1334,-4.1003,-4.0873,-4.0873,-4.0341,-3.9643,-3.9478,-3.9001,-3.8432,-3.8285,-3.8248,0.0,-3.7456,-3.7272,-3.7125,-3.6468,-3.6174,-3.6046,-3.6046,-3.5936,-3.5624,-3.4912,-3.4766,-3.4582,-3.3935,-3.3807,-3.3807,-3.3807,-3.3807,-3.3762,-3.3694,-3.3694,-3.3648,-3.3564,-3.355,-3.3419,-3.309,-3.2965,-3.2614,-3.1862,-3.1733,-3.1564,-3.123,-3.119,-3.119,-3.119,-3.119,-3.119,-3.119,-3.1055,-3.0987,-3.0987,-3.0835,-3.0463,-2.9871,-2.911,-2.8705,0.0,0.0,0.0,0.0,0.0,0.0,0.0,0.0,0.0,0.0,0.0,-3.873,0.0,0.0,-4.1289,-4.1738,-4.2871,-4.3962,-4.471,-4.5452,-4.588,-4.5684,-4.5616,-4.6105,-4.7375,-4.7509,-4.7855,-4.8682,-4.8759,-4.8933,-4.9375,-4.9394,-4.9394,-4.9394,-4.9817,-5.0048,-5.0048,-5.0481,-5.0604,-5.038,-4.9786,-4.939,-4.9168,-4.8361,-4.8014,-4.7965,-4.7161,-4.6809,-4.6699,-4.5275,-4.447,-4.4011,-4.3204,-4.2892,-4.2837,-4.2451,-4.2047,-4.1699,-4.1699,-4.1167,-4.0506,-4.0506,-3.9955,-3.9294,-3.9294,-3.9019,-3.8615,-3.8212,-3.8102,-3.801,-3.7606,-3.7202,-3.6905,-3.6905,-3.6578,-3.6174,-3.5752,-3.5316,-3.4876,-3.4472,-3.4082,-3.3807,-3.3807,-3.3807,-3.3807,-3.3807,-3.3807,-3.3807,-3.3807,-3.3807,-3.3721,-3.3522,-3.3317,-3.3014,-3.2533,-3.2281,-3.1968,-3.1526,-3.1507,-3.1411,-3.121,-3.119,-3.119,-3.119,-3.119,-3.119,-3.119,-3.119,-3.1004,-3.0632,-3.026,-2.9721,0.0,0.0,0.0,0.0,0.0,0.0,0.0,0.0,-3.7598,-3.7773,-3.8926,-4.0,-4.0332,-4.1484,-4.2519,-4.2851,-4.4082,-4.5076,-4.5308,-4.642,-4.7291,-4.7514,-4.7298,-4.7451,-4.8279,-4.8355,-4.8702,-4.9586,-4.9644,-4.9952,-5.0654,-5.0712,-5.0712,-5.0712,-5.0712,-5.0712,-5.0712,-5.0712,-5.0712,-5.0702,-5.0369,-5.0225,-5.0195,-4.98,-4.9622,-4.957,-4.8509,-4.7916,-4.7576,-4.5945,-4.5037,-4.4654,-4.3993,-4.3626,-4.3515,-4.3515,-4.3075,-4.2525,-4.2525,-4.2011,-4.1334,-4.1334,-4.0799,-4.0102,-3.9937,-3.9441,-3.8909,-3.8744,-3.8707,-3.8707,-3.8707,-3.8212,-3.7731,-3.7731,-3.7254,-3.6725,-3.656,-3.5991,-3.5445,-3.5279,-3.4582,-3.4027,-3.4027,-3.3899,-3.3807,-3.3807,-3.3807,-3.3807,-3.3807,-3.3807,-3.3807,-3.3807,-3.3508,-3.3288,-3.3214,-3.2761,-3.235,-3.1951,-3.1861,-3.1641,-3.1332,-3.1232,-3.119,-3.119,-3.119,-3.119,-3.119,-3.119,-3.119,-3.119,-3.119,-3.0567,-3.5996,-3.5996,-3.5996,-3.5996,-3.6582,-3.7148,0.0,0.0,-3.8672,-3.9453,-3.9766,-4.0351,-4.1855,-4.2266,-4.291,-4.4453,-4.4863,-4.5547,-4.707,-4.7237,-4.7772,-4.9294,-4.8589,-4.8317,-4.9163,-4.924,-4.9625,-5.05,-5.0558,-5.0596,-5.0693,-5.0712,-5.0712,-5.0712,-5.0712,-5.0712,-5.0712,-5.0712,-5.0712,-5.0712,-5.0663,-5.0624,-5.0614,-5.0225,-5.0031,-5.0019,-4.9509,-4.8689,-4.7667,-4.745,-4.6308,-4.4691,-4.4617,-4.4121,-4.3515,-4.3515,-4.3441,-4.3369,-4.3369,-4.2837,-4.2176,-4.2176,-4.1625,-4.082,-4.012,-3.9827,-3.9625,-3.8909,-3.8707,-3.8707,-3.8707,-3.8634,-3.8579,-3.8579,-3.8505,-3.8248,-3.7529,-3.729,-3.7015,-3.6285,-3.5445,-3.4876,-3.4876,-3.427,-3.3807,-3.3807,-3.3807,-3.3807,-3.3807,-3.3807,-3.3807,-3.3807,-3.3762,-3.3578,-3.3229,-3.2761,-3.2484,-3.2434,-3.2022,-3.1789,-3.1734,-3.1389,-3.119,-3.119,-3.119,-3.119,-3.119,-3.119,-3.119,-3.119,-3.119,-3.1106,-3.7383,-3.7519,-3.7519,-3.7519,-3.7793,-3.8066,-3.8066,-3.873,-3.9453,-3.9824,-4.0684,-4.1562,-4.2266,-4.3223,-4.4141,0.0,-4.543,-4.6191,-4.7422,-4.7805,-4.8414,-4.9639,-4.9687,-4.976,-5.0106,-5.0173,-5.0308,-5.0673,-5.0712,-5.0712,-5.0712,-5.0712,-5.0712,-5.0712,-5.0712,-5.0712,-5.0712,-5.0712,-5.0712,-5.0712,-5.0712,-5.0712,-5.0683,-5.0534,-5.0325,-5.0092,-4.9924,-4.9428,-4.8705,-4.8247,-4.7556,-4.6679,-4.5512,-4.4839,-4.4471,-4.3764,-4.3515,-4.3515,-4.3515,-4.3277,-4.3002,-4.3002,-4.2451,-4.1754,-4.1405,-4.0634,-3.9827,-3.9478,-3.9056,-3.8707,-3.8707,-3.8707,-3.8707,-3.8707,-3.8707,-3.8615,-3.8267,-3.7841,-3.7401,-3.707,-3.6321,-3.5591,-3.5096,-3.4729,-3.4325,-3.3862,-3.3807,-3.3807,-3.3807,-3.3807,-3.3807,-3.3807,-3.3807,-3.3734,-3.3564,-3.3375,-3.3166,-3.2919,-3.2729,-3.2366,-3.1808,-3.164,-3.1449,-3.121,-3.119,-3.119,-3.119,-3.119,-3.119,-3.119,-3.119,-3.119,-3.8437,-3.8594,-3.8594,-3.8594,-3.8789,-3.8965,-3.8965,-3.9629,-4.0254,-4.0254,-4.1406,-4.2461,-4.2715,-4.3984,-4.5078,-4.5312,-4.5898,-4.6699,-4.7793,-4.8271,-4.8915,-5.0033,-5.048,-5.0712,-5.0712,-5.0712,-5.0712,-5.0712,-5.0712,-5.0712,-5.0712,-5.0712,-5.0712,-5.0712,-5.0712,-5.0712,-5.0712,-5.0712,-5.0712,-5.0712,-5.0712,-5.0712,-5.0712,-5.0712,-5.0544,-5.026,-5.026,-5.0043,-4.9621,-4.9029,-4.861,-4.814,-4.6438,-4.5627,-4.5301,-4.4212,-4.3662,-4.3515,-4.3515,-4.3515,-4.3515,-4.3515,-4.3112,-4.2598,-4.2378,-4.1479,-4.0469,-4.001,-3.9478,-3.8982,-3.8762,-3.8707,-3.8707,-3.8707,-3.8707,-3.8707,-3.8707,-3.823,-3.7841,-3.7841,-3.7165,-3.6431,-3.5807,-3.55,-3.5078,-3.4252,-3.4137,-3.4045,-3.3825,-3.3807,-3.3807,-3.3807,-3.3807,-3.3807,-3.3807,-3.3807,-3.368,-3.3375,-3.3258,-3.284,-3.2022,-3.1879,-3.1621,-3.121,-3.119,-3.119,-3.119,-3.119,-3.119,-3.119,-3.119,-3.119,-3.8594,-3.8594,-3.8594,-3.8594,-3.9238,-3.9863,-3.9863,-4.0527,-4.1152,-4.1152,-4.1816,-4.2656,-4.3496,-4.4394,-4.5273,-4.6113,-4.6289,-4.6894,-4.8613,-4.8641,-4.9129,-5.0855,-5.0856,-5.0712,0.0,-5.0712,-5.0712,-5.0712,-5.0712,-5.0712,-5.0712,-5.0712,-5.0712,-5.0712,-5.0712,-5.0712,-5.0712,-5.0712,-5.0712,-5.0712,-5.0712,-5.0712,-5.0712,-5.0712,-5.0683,-5.0673,-5.0673,-5.0442,-5.008,-5.0061,-4.9353,-4.8211,-4.7296,-4.6471,-4.5693,-4.4868,-4.411,-4.3515,-4.3515,-4.3515,-4.3515,-4.3515,-4.3478,-4.3331,-4.2543,-4.2268,-4.1901,-4.0341,-3.9879,-3.968,-3.8909,-3.8707,-3.8707,-3.8707,-3.8707,-3.8707,-3.8707,-3.8689,-3.867,-3.867,-3.801,-3.7456,-3.7437,-3.6795,-3.5973,-3.5096,-3.4968,-3.4674,-3.3899,-3.3807,-3.3807,-3.3807,-3.3807,-3.3807,-3.3807,-3.3807,-3.3788,-3.3775,-3.3422,-3.2983,-3.2501,-3.2039,-3.1621,-3.121,-3.119,-3.119,-3.119,-3.119,-3.119,-3.119,-3.119,-3.119,-4.0176,-4.0332,-4.0332,-4.0332,-4.0547,-4.0762,-4.0762,-4.0996,-4.1191,-4.1191,-4.2305,-4.3359,-4.3652,-4.4883,-4.5957,-4.625,-4.6308,-4.6719,-4.7871,-4.831,-4.8934,-5.0092,-5.0519,0.0,0.0,0.0,-5.0712,-5.0712,-5.0712,-5.0712,-5.0712,-5.0712,-5.0712,-5.0712,-5.0712,-5.0712,-5.0712,-5.0712,-5.0712,-5.0712,-5.0712,-5.0712,-5.0712,-5.0712,-5.0712,-5.0712,-5.0712,-5.0624,-5.0493,-5.0493,-5.0248,-4.9786,-4.8691,-4.775,-4.687,-4.5779,-4.4898,-4.418,-4.3927,-4.3695,-4.3515,-4.3515,-4.3515,-4.346,-4.3167,-4.2708,-4.2194,-4.1644,-4.0708,-3.9827,-3.957,-3.9093,-3.8707,-3.8707,-3.8707,-3.8707,-3.8707,-3.8707,-3.8707,-3.8707,-3.8487,-3.812,-3.7584,-3.729,-3.6615,-3.5206,-3.4546,-3.4119,-3.3825,-3.3807,-3.3807,-3.3807,-3.3807,-3.3807,-3.3807,-3.3807,-3.3807,-3.3807,-3.368,-3.327,-3.2534,-3.235,-3.1932,-3.121,-3.119,-3.119,-3.119,-3.119,-3.119,-3.119,-3.119,-3.119,-4.0972,-4.1083,-4.108,-4.1171,-4.1151,-4.1149,-4.1191,-4.1191,-4.1191,-4.1191,-4.2285,-4.332,-4.3633,-4.4863,-4.5918,-4.6187,-4.6225,-4.6537,-4.7416,-4.805,-4.8766,-4.9693,-5.0318,-5.0712,0.0,0.0,0.0,-5.0712,-5.0712,-5.0712,-5.0712,-5.0712,-5.0712,-5.0712,-5.0712,-5.0712,-5.0712,-5.0712,-5.0712,-5.0712,-5.0712,-5.0712,-5.0712,-5.0712,-5.0712,-5.0712,-5.0712,-5.0712,-5.0712,-5.0712,-5.0712,-5.0596,-4.9512,-4.8556,-4.7654,-4.6595,-4.5587,-4.472,-4.4346,-4.4061,-4.3868,-4.3744,-4.3695,-4.3662,-4.3531,-4.313,-4.2671,-4.2378,-4.1552,-4.0616,-4.0047,-3.9515,-3.9056,-3.8781,-3.8707,-3.8707,-3.8707,-3.8707,-3.8707,-3.8707,-3.8707,-3.8542,-3.801,-3.7694,-3.7125,-3.6064,-3.4931,-3.4105,-3.3844,-3.3807,-3.3807,-3.3807,-3.3807,-3.3807,-3.3807,-3.3807,-3.3807,-3.3807,-3.3807,-3.3476,-3.2777,-3.2583,-3.2162,-3.143,-3.1271,-3.119,-3.119,-3.119,-3.119,-3.119,-3.119,-3.119,-4.0992,-4.0905,-4.0864,-4.1127,-4.1082,-4.1025,-4.1171,-4.1191,-4.1191,-4.1191,-4.1836,-4.2656,-4.3476,-4.4375,-4.5233,-4.5925,-4.6074,-4.6407,-4.7227,-4.786,-4.8613,0.0,0.0,0.0,0.0,0.0,0.0,-5.0712,-5.0712,-5.0712,-5.0712,-5.0712,-5.0712,-5.0712,-5.0712,-5.0712,-5.0712,-5.0712,-5.0712,-5.0712,-5.0712,-5.0712,-5.0712,-5.0712,-5.0712,-5.0712,-5.0712,-5.0712,-5.0712,-5.0712,-5.0712,-5.0616,-4.9779,-4.8913,-4.8009,-4.7231,-4.6186,-4.5085,-4.4757,-4.4618,-4.454,-4.4146,-4.4028,-4.3971,-4.3646,-4.3548,-4.3384,-4.2595,-4.234,-4.1956,-4.0414,-3.9955,-3.9698,-3.8946,-3.8726,-3.8707,-3.8707,-3.8707,-3.8707,-3.8707,-3.8707,-3.8707,-3.8707,-3.8065,-3.7547,-3.7511,-3.6156,-3.4821,-3.3972,-3.3825,-3.3807,-3.3807,-3.3807,-3.3807,-3.3807,-3.3807,-3.3807,-3.3807,-3.3807,-3.3606,-3.3214,-3.2761,-3.2316,-3.1826,-3.1468,-3.1252,-3.123,-3.123,-3.123,-3.123,-3.123,-3.123,-4.0857,-4.0839,-4.085,-4.1019,-4.0955,-4.0914,-4.1149,-4.1126,-4.108,-4.1171,-4.1836,-4.2461,-4.2695,-4.3965,-4.5058,-4.5252,-4.5837,0.0,-4.656,-4.7199,0.0,-4.8745,0.0,-5.0094,-5.0645,-5.0712,0.0,-5.0712,-5.0712,-5.0712,-5.0712,-5.0712,-5.0712,-5.0712,-5.0712,-5.0712,-5.0712,-5.0712,-5.0712,-5.0712,-5.0712,-5.0712,-5.0712,-5.0712,-5.0712,-5.0712,-5.0712,-5.0712,-5.0712,-5.0712,-5.0712,-5.0673,-5.0462,-4.9433,-4.8086,-4.7875,-4.6819,-4.5448,-4.5371,-4.5011,-4.458,-4.4487,-4.4447,-4.4433,-4.4337,-4.4106,-4.3844,-4.3621,-4.2938,-4.2213,-4.1791,-4.0799,-3.9845,-3.9643,-3.9148,-3.8707,-3.8707,-3.8707,-3.8707,-3.8707,-3.8707,-3.8707,-3.8707,-3.8524,-3.8193,-3.7584,-3.7144,-3.634,-3.4876,-3.4174,-3.3807,-3.3807,-3.3807,-3.3807,-3.3807,-3.3807,-3.3807,-3.3807,-3.3807,-3.3606,-3.3214,-3.3093,-3.2793,-3.2333,-3.2213,-3.2003,-3.1641,-3.1641,-3.1641,-3.1641,-3.1641,-3.1641,-4.0762,-4.0717,-4.0703,-4.0864,-4.0828,-4.0824,-4.1052,-4.1054,-4.1048,-4.1171,-4.1562,-4.1973,-4.2324,-4.3203,-4.4082,0.0,0.0,0.0,-4.6164,-4.6845,-4.7492,0.0,-4.9001,0.0,-5.0182,-5.0623,-5.0851,-5.0799,-5.073,-5.0712,-5.0712,-5.0712,-5.0712,-5.0712,-5.0712,-5.0712,-5.0712,-5.0712,-5.0712,-5.0712,-5.0712,-5.0712,-5.0712,-5.0712,-5.0712,-5.0712,-5.0712,-5.0712,-5.0712,-5.0712,-5.0712,-5.0654,-5.0289,-4.9298,-4.8067,-4.7702,-4.674,-4.5594,-4.5594,-4.5352,-4.5011,-4.4872,-4.4825,-4.4781,-4.4631,-4.4304,-4.4001,-4.4001,-4.3442,-4.2745,-4.2396,-4.1368,-4.0341,-3.9974,-3.9294,-3.8707,-3.8707,-3.8707,-3.8707,-3.8707,-3.8707,-3.8707,-3.8707,-3.8707,-3.856,-3.8083,-3.7731,-3.7162,-3.6229,-3.5073,-3.4325,-3.4325,-3.4009,-3.3807,-3.3807,-3.3807,-3.3807,-3.3807,-3.3807,-3.3694,-3.348,-3.3288,-3.3093,-3.2809,-3.2599,-3.2384,-3.2109,-3.2109,-3.2109,-3.2109,-3.2109,-3.2109,-4.0667,-4.0582,-4.0547,-4.0743,-4.0722,-4.0735,-4.0947,-4.099,-4.1021,-4.1171,0.0,-4.1406,-4.2109,-4.2324,-4.2869,-4.425,0.0,-4.5084,-4.5845,-4.6593,-4.715,-4.7365,-4.8729,-4.9653,-4.9626,-5.0528,-5.1031,-5.0903,-5.0799,-5.074,-5.074,-5.0712,-5.0712,-5.0712,-5.0712,-5.0712,-5.0712,-5.0712,-5.0712,-5.0712,-5.0712,-5.0712,-5.0712,-5.0712,-5.0712,-5.0712,-5.0712,-5.0712,-5.0712,-5.0712,-5.0635,-5.0462,-4.9702,-4.8798,-4.7855,-4.7154,-4.6355,-4.5594,-4.5594,-4.5594,-4.5559,-4.5253,-4.5169,-4.5107,-4.4806,-4.4428,-4.4073,-4.4073,-4.3804,-4.3332,-4.2635,-4.1864,-4.1058,-4.0249,-3.9441,-3.8836,-3.8726,-3.8707,-3.8707,-3.8707,-3.8707,-3.8707,-3.8707,-3.8707,-3.8707,-3.8707,-3.8102,-3.7658,-3.7658,-3.6211,-3.5169,-3.5169,-3.4559,-3.4137,-3.4137,-3.4137,-3.4137,-3.4137,-3.4027,-3.3972,-3.3972,-3.352,-3.3273,-3.3273,-3.2872,-3.2648,-3.2599,-3.2599,-3.2599,-3.2599,-3.2599,-3.2599,-4.053,-4.0519,-4.053,-4.0672,-4.0623,-4.0623,-4.0936,-4.0914,0.0,0.0,-4.1191,-4.123,-4.1387,-4.1953,-4.248,-4.2772,-4.4022,-4.5018,-4.5174,-4.5915,-4.6687,0.0,-4.8279,-4.9113,-4.9717,-5.0568,0.0,-5.0903,-5.0879,-5.0875,-5.0875,-5.0766,-5.0712,-5.0712,-5.0712,-5.0712,-5.0712,-5.0712,-5.0712,-5.0712,-5.0712,-5.0712,-5.0712,-5.0712,-5.0712,-5.0712,-5.0712,-5.0712,-5.0712,-5.0712,-5.0289,-4.9606,-4.9452,-4.8452,-4.7077,-4.6942,-4.6355,-4.5594,-4.5594,-4.5594,-4.5586,-4.5522,-4.5513,-4.5504,-4.5438,-4.5,-4.4501,-4.4501,-4.4004,-4.3478,-4.3331,-4.269,-4.1901,-4.1077,-4.0286,-3.9515,-3.8836,-3.8707,-3.8707,-3.8707,-3.8707,-3.8707,-3.8707,-3.8707,-3.8707,-3.8707,-3.8579,-3.8487,-3.8487,-3.7074,-3.6064,-3.6064,-3.5954,-3.5862,-3.5862,-3.5862,-3.5862,-3.5862,-3.5188,-3.4784,-3.4784,-3.4087,-3.3694,-3.3694,-3.362,-3.3419,-3.3075,-3.3075,-3.3075,-3.3075,-3.3075,-3.3075,-4.04,-4.0496,-4.0519,-4.0588,-4.0545,-4.0563,-4.0836,0.0,0.0,0.0,-4.1191,-4.1191,-4.1191,-4.1523,0.0,-4.2324,-4.3105,-4.3965,-4.4863,-4.5351,-4.5917,-4.6728,-4.7606,-4.8429,-4.9156,-5.0087,-5.0745,-5.1035,-5.1064,-5.0989,-5.0805,-5.074,-5.0712,-5.0712,-5.0712,-5.0712,-5.0712,-5.0712,-5.0712,-5.0712,-5.0712,-5.0712,-5.0712,-5.0712,-5.0712,-5.0712,-5.0712,-5.0442,-5.001,-5.001,-4.951,-4.8682,-4.8259,-4.7605,-4.6855,-4.6394,-4.5951,-4.5594,-4.5594,-4.5594,-4.5594,-4.5594,-4.5594,-4.5568,-4.54,-4.4988,-4.4553,-4.4364,-4.3915,-4.3515,-4.3515,-4.2892,-4.2103,-4.1279,-4.0175,-3.9166,-3.8781,-3.8707,-3.8707,-3.8707,-3.8707,-3.8707,-3.8707,-3.8707,-3.8707,-3.8707,-3.8707,-3.8707,-3.8707,-3.8028,-3.7386,-3.6978,-3.6556,-3.6303,-3.6303,-3.6303,-3.6303,-3.6303,-3.5917,-3.5665,-3.5665,-3.5312,-3.5092,-3.5092,-3.5092,-3.5007,-3.4816,-3.4816,-3.4816,-3.4816,-3.4816,-3.4816,-4.0015,-4.0112,-4.0015,-4.0208,-4.0092,-4.0014,-4.0222,-4.0412,0.0,-4.0876,-4.1074,-4.1191,-4.1191,-4.1191,-4.1406,0.0,-4.2285,-4.2871,-4.4258,-4.4766,-4.5254,0.0,-4.6953,0.0,-4.841,-4.9526,0.0,-5.0913,-5.1057,-5.1015,-5.0757,-5.0721,-5.0712,-5.0712,-5.0712,-5.0712,-5.0712,-5.0712,-5.0712,-5.0712,-5.0712,-5.0712,-5.0712,-5.0712,-5.0596,-5.0423,-5.0423,-4.9933,-4.9125,-4.9125,-4.8625,-4.7778,-4.7154,-4.6797,-4.6547,-4.5845,-4.5594,-4.5594,-4.5594,-4.5594,-4.5594,-4.5594,-4.5594,-4.555,-4.5201,-4.4872,-4.4514,-4.4102,-4.3775,-4.3515,-4.3515,-4.302,-4.2304,-4.1334,-3.9866,-3.8707,-3.8707,-3.8707,-3.8707,-3.8707,-3.8707,-3.8707,-3.8707,-3.8707,-3.8707,-3.8707,-3.8707,-3.8707,-3.8707,-3.8707,-3.8469,-3.7823,-3.7184,-3.6798,-3.6798,-3.6798,-3.6798,-3.6798,-3.6652,-3.656,-3.656,-3.6376,-3.6303,-3.6303,-3.6303,-3.6303,-3.6303,-3.6303,-3.6303,-3.6303,-3.6303,-3.6303,-3.9188,-3.8834,-3.8411,-3.9207,-3.8815,-3.8279,-3.8473,0.0,-3.9772,-3.9977,-4.0644,-4.1191,-4.1191,-4.1191,-4.1211,-4.1308,-4.1914,-4.2461,-4.2617,-4.4004,-4.5039,-4.5117,0.0,0.0,-4.7695,-4.9219,-5.0172,-5.0113,-5.0616,-5.0918,-5.0886,-5.0775,-5.0712,-5.0712,-5.0712,-5.0712,-5.0712,-5.0712,-5.0712,-5.0712,-5.0712,-5.0712,-5.0712,-5.0712,-5.0269,-4.951,-4.951,-4.9029,-4.8221,-4.8221,-4.774,-4.7,-4.6923,-4.6413,-4.571,-4.5633,-4.5594,-4.5594,-4.5594,-4.5594,-4.5594,-4.5594,-4.5594,-4.555,-4.5201,-4.4872,-4.4514,-4.4102,-4.3775,-4.3515,-4.3515,-4.346,-4.3002,-4.1462,-3.9866,-3.8707,-3.8707,-3.8707,-3.8707,-3.8707,-3.8707,-3.8707,-3.8707,-3.8707,-3.8707,-3.8707,-3.8707,-3.8707,-3.8707,-3.8707,-3.867,-3.8597,-3.8524,-3.8487,-3.8487,-3.8487,-3.8487,-3.8487,-3.7804,-3.7382,-3.7382,-3.6703,-3.6303,-3.6303,-3.6303,-3.6303,-3.6303,-3.6303,-3.6303,-3.6303,-3.6303,-3.6303,-3.8277,-3.8257,-3.8084,-3.843,-3.8257,-3.8047,-3.8259,0.0,-3.9029,-3.9743,-4.0176,-4.0586,-4.1094,-4.1191,-4.1191,-4.1191,-4.1465,0.0,-4.2324,-4.3412,-4.4365,-4.4922,-4.5991,0.0,0.0,0.0,-4.902,-4.9937,-5.0556,-5.0908,-5.0908,-5.0764,-5.0712,-5.0712,-5.0712,-5.0712,-5.0712,-5.0712,-5.0442,-4.9913,-4.9913,-4.9644,-4.9144,-4.9144,-4.8952,-4.8625,-4.8625,-4.8144,-4.7394,-4.7394,-4.6874,-4.6124,-4.6124,-4.5913,-4.5594,-4.5594,-4.5594,-4.5594,-4.5594,-4.5594,-4.5594,-4.5594,-4.5594,-4.555,-4.5201,-4.4872,-4.4514,-4.4102,-4.3775,-4.3515,-4.3515,-4.2782,-4.1901,-4.1242,-3.9866,-3.8707,-3.8707,-3.8707,-3.8707,-3.8707,-3.8707,-3.8707,-3.8707,-3.8707,-3.8707,-3.8707,-3.8707,-3.8707,-3.8707,-3.8707,-3.8707,-3.8707,-3.8707,-3.8707,-3.8707,-3.8707,-3.8707,-3.8707,-3.8395,-3.8212,-3.8212,-3.7918,-3.7734,-3.7734,-3.7734,-3.7734,-3.7734,-3.7734,-3.7734,-3.7734,-3.7734,-3.7734,-3.7373,-3.745,-3.7315,-3.7565,-3.745,-3.7315,0.0,0.0,-3.8152,-3.8962,-3.9531,-4.0098,-4.0703,-4.1035,-4.1191,-4.1191,-4.1191,-4.1406,-4.1973,-4.2746,-4.3581,-4.4512,0.0,-4.611,-4.7129,-4.7441,-4.816,-4.9506,-4.997,-5.017,-5.0134,-5.0012,-5.0048,-5.0308,-5.0327,-5.0183,-4.9933,-4.9933,-4.9625,-4.9029,-4.9029,-4.8682,-4.8105,-4.8105,-4.7971,-4.7759,-4.7759,-4.7278,-4.6528,-4.6528,-4.6144,-4.5594,-4.5594,-4.5594,-4.5594,-4.5594,-4.5594,-4.5594,-4.5594,-4.5594,-4.5594,-4.5594,-4.5594,-4.5559,-4.5322,-4.5011,-4.467,-4.4276,-4.402,-4.3791,-4.3679,-4.2527,-4.14,-4.14,-4.007,-3.8833,-3.8833,-3.8747,-3.8707,-3.8707,-3.8707,-3.8707,-3.8707,-3.8707,-3.8707,-3.8707,-3.8707,-3.8707,-3.8707,-3.8707,-3.8707,-3.8707,-3.8707,-3.8707,-3.8707,-3.8707,-3.8707,-3.8707,-3.8707,-3.8707,-3.8707,-3.8707,-3.8707,-3.8707,-3.8707,-3.8707,-3.8707,-3.8707,-3.8707,-3.8707,-3.8707,-3.8707,-3.6481,-3.6135,-3.5712,-3.65,-3.6115,-3.5554,0.0,-3.6391,-3.7063,-3.7282,-3.8691,-3.9902,-3.9902,-4.0625,-4.1191,-4.1191,-4.1191,0.0,-4.1211,-4.1914,-4.2734,0.0,0.0,-4.521,-4.6211,-4.709,-4.7906,-4.8667,-4.8608,-4.8466,-4.8326,-4.8202,-4.8529,-4.9394,-4.9413,-4.899,-4.8144,-4.8125,-4.8125,-4.8105,-4.8105,-4.8105,-4.8105,-4.8105,-4.7682,-4.6904,-4.6904,-4.6413,-4.5614,-4.5614,-4.5614,-4.5594,-4.5594,-4.5594,-4.5594,-4.5594,-4.5594,-4.5594,-4.5594,-4.5594,-4.5594,-4.5594,-4.5594,-4.5594,-4.5605,-4.5352,-4.5011,-4.4682,-4.458,-4.4501,-4.4106,-4.3043,-4.2096,-4.2096,-4.0558,-3.9099,-3.9099,-3.8898,-3.8707,-3.8707,-3.8707,-3.8707,-3.8707,-3.8707,-3.8707,-3.8707,-3.8707,-3.8707,-3.8707,-3.8707,-3.8707,-3.8707,-3.8707,-3.8707,-3.8707,-3.8707,-3.8707,-3.8707,-3.8707,-3.8707,-3.8707,-3.8707,-3.8707,-3.8707,-3.8707,-3.8707,-3.8707,-3.8707,-3.8707,-3.8707,-3.8707,-3.8707,-3.5808,-3.5692,-3.5558,-3.5827,-3.5727,-3.559,-3.5675,-3.5983,-3.6446,-3.7147,-3.7734,-3.8301,-3.8906,-3.9726,-4.0312,-4.0312,-4.0801,-4.1191,0.0,0.0,0.0,-4.3594,-4.4959,-4.5955,0.0,-4.7003,-4.7567,-4.7782,-4.8246,-4.8472,-4.8444,-4.8398,-4.8413,-4.8519,-4.8509,-4.8375,-4.8105,-4.8105,-4.7817,-4.7278,-4.7278,-4.6971,-4.6394,-4.6394,-4.624,-4.6009,-4.6009,-4.5855,-4.5594,-4.5594,-4.5594,-4.5594,-4.5594,-4.5594,-4.5594,-4.5594,-4.5594,-4.5594,-4.5594,-4.5594,-4.5594,-4.5594,-4.5594,-4.5594,-4.5594,-4.5381,-4.503,-4.4682,-4.4593,-4.4567,-4.4447,-4.3258,-4.2108,-4.2108,-4.0753,-3.9438,-3.9438,-3.921,-3.8971,-3.8971,-3.8971,-3.8923,-3.8735,-3.884,-3.8909,-3.8719,-3.8707,-3.8707,-3.8707,-3.8707,-3.8707,-3.8707,-3.8707,-3.8707,-3.8707,-3.8707,-3.8707,-3.8707,-3.8707,-3.8707,-3.8707,-3.8707,-3.8707,-3.8707,-3.8707,-3.8707,-3.8707,-3.8707,-3.8707,-3.8707,-3.8707,-3.8707,0.0,-3.55,-3.55,-3.55,-3.5528,0.0,-3.5675,-3.5764,-3.6011,-3.6679,-3.707,-3.7461,-3.8008,-3.8828,-3.9512,-3.9844,-4.0351,-4.082,0.0,0.0,0.0,-4.3528,0.0,0.0,0.0,-4.6686,-4.6972,-4.6972,-4.7362,-4.7584,-4.7584,-4.7542,-4.7442,-4.7274,-4.7537,-4.7512,-4.7163,-4.7163,-4.6913,-4.6413,-4.6413,-4.6124,-4.5594,-4.5594,-4.5594,-4.5594,-4.5594,-4.5594,0.0,-4.5594,-4.5594,-4.5594,-4.5594,-4.5594,-4.5594,-4.5594,-4.5594,-4.5594,-4.5594,-4.5594,-4.5594,-4.5594,-4.5594,-4.5594,-4.5594,-4.5448,-4.5222,-4.4884,-4.4884,-4.4954,-4.4806,-4.365,-4.2474,-4.2474,-4.1106,-3.9786,-3.9786,-3.9529,-3.9238,-3.9107,-3.9112,-3.9008,-3.875,-3.8844,-3.888,-3.8719,-3.8707,-3.8707,-3.8707,-3.8707,-3.8707,-3.8707,-3.8707,-3.8707,-3.8707,-3.8707,-3.8707,-3.8707,-3.8707,-3.8707,-3.8707,-3.8707,-3.8707,-3.8707,-3.8707,-3.8707,-3.8707,-3.8707,-3.8707,-3.8707,-3.8707,-3.8707,0.0,-3.55,-3.55,0.0,0.0,0.0,-3.5663,-3.571,0.0,-3.5954,-3.6641,-3.7207,-3.7207,-3.793,-3.8769,-3.957,-3.9824,-4.0176,0.0,-4.1211,0.0,0.0,-4.515,-4.6189,-4.6119,-4.6225,-4.6308,-4.6308,-4.6177,-4.6115,-4.6115,-4.5995,-4.592,-4.5912,-4.6579,-4.6508,-4.562,-4.5603,-4.5594,-4.5594,-4.5594,-4.5594,-4.5594,-4.5594,-4.5594,-4.5594,-4.5594,-4.5594,-4.5594,-4.5594,-4.5594,-4.5594,-4.5594,-4.5594,-4.5594,-4.5594,-4.5594,-4.5594,-4.5594,-4.5594,-4.5594,-4.5594,-4.5594,-4.5594,-4.5594,-4.5594,-4.555,-4.5222,-4.5352,-4.5522,-4.5222,-4.4126,-4.3104,-4.3104,-4.1586,-4.012,-4.0101,-3.9848,-3.9505,-3.9178,-3.9112,-3.9008,-3.875,-3.8723,-3.8719,-3.8707,-3.8707,-3.8707,-3.8707,-3.8707,-3.8707,-3.8707,-3.8707,-3.8707,-3.8707,-3.8707,-3.8707,-3.8707,-3.8707,-3.8707,-3.8707,-3.8707,-3.8707,-3.8707,-3.8707,-3.8707,-3.8707,-3.8707,-3.8707,-3.8707,-3.8707,-3.8707,-3.55,0.0,-3.55,-3.55,-3.5547,-3.5605,0.0,-3.5772,-3.5884,-3.5975,0.0,-3.6309,-3.6309,-3.7012,-3.7676,-3.7871,-3.9023,-3.9961,-4.0176,0.0,0.0,-4.3552,-4.4648,-4.5566,-4.6189,-4.6289,-4.6308,-4.6308,-4.6268,-4.6248,-4.6248,-4.6224,-4.615,-4.6069,-4.6222,-4.6123,-4.5761,-4.566,-4.5594,-4.5594,-4.5594,-4.5594,-4.5594,-4.5594,-4.5594,-4.5594,-4.5594,-4.5594,-4.5594,-4.5594,-4.5594,-4.5594,-4.5594,-4.5594,-4.5594,-4.5594,-4.5594,-4.5594,-4.5594,-4.5594,-4.5594,-4.5594,-4.5594,-4.5594,-4.5594,-4.5594,-4.5577,-4.5504,-4.555,-4.5577,-4.5504,-4.4292,-4.3104,-4.3104,-4.1726,-4.0347,-4.0139,-3.9848,-3.9505,-3.9178,-3.9112,-3.9008,-3.875,-3.8869,-3.8952,-3.8735,-3.8707,-3.8707,-3.8707,-3.8707,-3.8707,-3.8707,-3.8707,-3.8707,-3.8707,-3.8707,-3.8707,-3.8707,-3.8707,-3.8707,-3.8707,-3.8707,-3.8707,-3.8707,-3.8707,-3.8707,-3.8707,-3.8707,-3.8707,-3.8707,-3.8707,-3.8707,-3.55,-3.55,-3.55,-3.55,-3.5552,-3.5626,-3.5682,0.0,0.0,0.0,0.0,0.0,0.0,-3.6387,-3.6836,-3.7226,-3.8437,0.0,0.0,0.0,-4.3164,-4.3633,-4.4824,-4.5781,-4.625,-4.6308,-4.6308,-4.6308,-4.6308,-4.6308,-4.6308,-4.6308,-4.6268,-4.6199,-4.6122,-4.6014,-4.5853,-4.5742,-4.5685,-4.5685,-4.5627,-4.5594,-4.5594,-4.5594,-4.5594,-4.5594,-4.5594,-4.5594,-4.5594,-4.5594,-4.5594,-4.5594,-4.5594,-4.5594,-4.5594,-4.5594,-4.5594,-4.5594,-4.5594,-4.5594,-4.5594,-4.5594,-4.5594,-4.5594,-4.5594,-4.5594,-4.5594,-4.5594,-4.5594,-4.5518,-4.5114,-4.4066,-4.3008,-4.2604,-4.1377,-4.0313,-4.0295,-3.9924,-3.9552,-3.9364,-3.9218,-3.9008,-3.875,-3.8815,-3.8869,-3.8719,-3.8803,-3.8865,-3.8865,-3.8865,-3.8865,-3.8865,-3.8777,-3.8707,-3.8707,-3.8707,-3.8707,-3.8707,-3.8707,-3.8707,-3.8707,-3.8707,-3.8707,-3.8707,-3.8707,-3.8707,-3.8707,-3.8707,-3.8707,-3.8707,-3.8707,-3.8707,-3.55,-3.5501,-3.5515,-3.5507,-3.5534,-3.5601,0.0,0.0,0.0,0.0,0.0,0.0,0.0,-3.5996,0.0,0.0,0.0,0.0,-4.0957,-4.2422,-4.3359,-4.3496,-4.4922,-4.5957,-4.6094,-4.6211,-4.6308,-4.6308,-4.6308,-4.6308,-4.6308,-4.6308,-4.6308,-4.6308,-4.6198,-4.6077,-4.5951,-4.5869,-4.5809,-4.5796,-4.5677,-4.5629,-4.5594,-4.5594,-4.5594,-4.5594,-4.5594,-4.5594,-4.5594,-4.5594,-4.5594,-4.5594,-4.5594,-4.5594,-4.5594,-4.5594,-4.5594,-4.5594,-4.5594,-4.5594,-4.5594,-4.5594,-4.5594,-4.5575,-4.5441,-4.5402,-4.5383,-4.5248,-4.5306,-4.521,-4.4335,-4.3508,-4.272,-4.1981,-4.0963,-4.0204,-4.0397,-4.0034,-3.9656,-3.9611,-3.9364,-3.9104,-3.8873,-3.8833,-3.8833,-3.8833,-3.9027,-3.9192,-3.9192,-3.9192,-3.9192,-3.9192,-3.898,-3.8822,-3.8762,-3.8762,-3.8732,-3.8707,-3.8707,-3.8707,-3.8707,-3.8707,-3.8707,-3.8707,-3.8707,-3.8707,-3.8707,-3.8707,-3.8707,-3.8707,-3.8707,-3.8707,-3.55,-3.5534,-3.5566,-3.5521,-3.5501,-3.5546,0.0,0.0,0.0,0.0,0.0,0.0,0.0,-3.5996,-3.6035,0.0,0.0,-3.9219,0.0,0.0,-4.1836,-4.2519,-4.3496,-4.4394,-4.5137,-4.5879,-4.6308,-4.6308,-4.6308,-4.6308,-4.6308,-4.6308,-4.6308,-4.6308,-4.6289,-4.6268,-4.6246,-4.5992,-4.5855,-4.5803,-4.5769,-4.5715,-4.5594,-4.5594,-4.5594,-4.5594,-4.5594,-4.5594,-4.5594,-4.5594,-4.5594,-4.5594,-4.5594,-4.5594,-4.5594,-4.5594,-4.5594,-4.5594,-4.5594,-4.5594,-4.5594,-4.5594,-4.5594,-4.546,-4.472,-4.4489,-4.4355,-4.3682,-4.397,-4.4316,-4.3508,-4.2643,-4.1962,-4.1827,-4.1099,-4.0381,-4.0195,-4.0101,-3.9932,-3.9656,-3.9564,-3.9517,-3.9457,-3.9457,-3.9457,-3.9457,-3.9493,-3.951,-3.951,-3.951,-3.951,-3.951,-3.9481,-3.9346,-3.9063,-3.9036,-3.8933,-3.8704,-3.8707,-3.8707,-3.8707,-3.8707,-3.8707,-3.8707,-3.8707,-3.8707,-3.8707,-3.8707,-3.8707,-3.8707,-3.8707,-3.8707,-3.55,-3.5522,-3.5546,-3.5538,-3.5645,-3.5725,0.0,0.0,0.0,0.0,0.0,0.0,0.0,0.0,-3.6309,-3.7246,0.0,-3.9219,-4.0957,-4.1562,-4.1992,-4.2363,-4.3164,-4.3867,-4.4258,-4.4668,-4.5098,-4.5566,-4.5156,-4.5098,-4.5566,-4.5156,-4.4902,-4.4902,-4.4902,-4.4902,-4.4902,-4.4768,-4.5125,-4.5951,-4.5886,-4.5808,-4.5708,-4.5708,-4.5665,-4.5594,-4.5594,-4.5594,-4.5594,-4.5594,-4.5594,-4.5594,-4.5594,-4.5594,-4.5594,-4.5594,-4.5306,-4.4893,-4.4893,-4.4605,-4.4239,-4.4239,-4.4239,-4.4162,-4.3778,-4.3643,-4.347,-4.2624,-4.3008,-4.3451,-4.2624,-4.2104,-4.1673,-4.12,-4.0669,-4.0295,-4.0321,-4.0053,-3.9848,-3.9851,-3.9712,-3.9599,-3.9599,-3.9599,-3.9599,-3.9599,-3.9754,-3.988,-3.988,-3.988,-3.988,-3.988,-3.972,-3.9541,-3.9377,-3.9364,-3.9171,-3.8719,-3.8707,-3.8707,-3.8707,-3.8707,-3.8707,-3.8707,-3.8707,-3.8707,-3.8707,-3.8707,-3.8707,-3.8707,-3.8707,-3.8707,-3.5442,-3.5515,-3.554,-3.5579,0.0,0.0,0.0,0.0,0.0,0.0,0.0,0.0,0.0,-3.6131,0.0,-3.8359,-3.8769,-3.9434,-4.0976,-4.1738,-4.2129,-4.2129,-4.2871,-4.3398,-4.3398,-4.3574,-4.3984,-4.4648,-4.4082,-4.3984,-4.4668,-4.4062,-4.3691,-4.3691,-4.3691,-4.3691,-4.3691,-4.3691,-4.4311,-4.5501,-4.5407,-4.5298,-4.5196,-4.5196,-4.5138,-4.5017,-4.5017,-4.5017,-4.5017,-4.5017,-4.5017,-4.5017,-4.5017,-4.5017,-4.5017,-4.5017,-4.4586,-4.4028,-4.4028,-4.3624,-4.3104,-4.3104,-4.3104,-4.3066,-4.2854,-4.2797,-4.2604,-4.1739,-4.1989,-4.2335,-4.1662,-4.1508,-4.1335,-4.0669,-4.0347,-4.0241,-4.0457,-4.0138,-3.9893,-4.0129,-3.9993,-3.981,-3.981,-3.981,-3.981,-3.981,-4.0023,-4.0186,-4.0186,-4.0186,-4.0186,-4.0186,-3.9954,-3.9789,-3.9712,-3.9645,-3.9402,-3.8946,-3.8902,-3.8902,-3.8902,-3.8902,-3.8859,-3.8788,-3.8788,-3.8762,-3.8707,-3.8707,-3.8707,-3.8707,-3.8707,-3.8707,-3.5269,-3.554,-3.5595,-3.5605,-3.5556,0.0,-3.5846,-3.5807,0.0,-3.5955,0.0,0.0,0.0,-3.6572,-3.7443,-3.8437,-3.9277,-4.0137,-4.1074,-4.125,-4.1289,-4.1289,-4.1992,-4.248,-4.248,-4.3223,-4.373,-4.3789,-4.373,-4.373,-4.3789,-4.373,-4.3691,-4.3691,-4.3691,-4.3691,-4.3691,-4.3691,-4.3725,-4.3782,-4.3778,-4.3635,-4.3382,-4.3382,-4.3347,-4.3278,-4.3278,-4.3278,-4.3278,-4.3278,-4.3278,-4.3278,-4.3278,-4.3278,-4.3278,-4.3278,-4.3239,-4.3181,-4.3181,-4.3143,-4.3104,-4.3104,-4.3104,-4.2951,-4.2143,-4.1885,-4.172,-4.0843,-4.065,-4.0669,-4.0612,-4.0593,-4.0573,-4.0516,-4.0481,-4.0481,-4.0489,-4.0473,-4.0438,-4.0473,-4.0438,-4.043,-4.043,-4.043,-4.043,-4.043,-4.0465,-4.0473,-4.0473,-4.0473,-4.0473,-4.0473,-4.0457,-4.0328,-4.0091,-3.9775,-3.9587,-3.9541,-3.9529,-3.9529,-3.9529,-3.9529,-3.9396,-3.9072,-3.9072,-3.8947,-3.8707,-3.8707,-3.8707,-3.8707,-3.8707,-3.8707,-3.4603,-3.5133,-3.5611,-3.5611,-3.5588,0.0,0.0,-3.5869,-3.5845,-3.5918,-3.5973,0.0,0.0,0.0,-3.7732,-3.918,-3.9687,-4.0195,-4.1074,-4.1191,-4.1191,-4.1191,-4.1465,-4.1641,-4.1641,-4.1953,-4.2344,-4.2851,-4.2422,-4.2363,-4.2851,-4.2422,-4.2148,-4.2148,-4.2148,-4.2148,-4.2148,-4.2148,-4.2128,-4.2122,-4.3157,-4.3599,-4.3456,-4.3349,-4.3274,-4.3166,-4.3123,-4.3104,-4.3104,-4.3104,-4.3104,-4.3104,-4.3104,-4.3104,-4.3104,-4.3104,-4.2758,-4.2297,-4.2297,-4.1931,-4.1477,-4.1477,-4.1477,-4.142,-4.1085,-4.0989,-4.0912,-4.0593,-4.0496,-4.0496,-4.0496,-4.0496,-4.0496,-4.0496,-4.0496,-4.0496,-4.0496,-4.0496,-4.0496,-4.0496,-4.0496,-4.0496,-4.0496,-4.0496,-4.0496,-4.0496,-4.0496,-4.0496,-4.0496,-4.0496,-4.0496,-4.0496,-4.0496,-4.0465,-4.0356,-4.023,-4.0157,-4.0157,-3.981,-3.9599,-3.9599,-3.9599,-3.9552,-3.9414,-3.9218,-3.9139,-3.9268,-3.8873,-3.8788,-3.8947,-3.8792,-3.8707,-3.4165,-3.4897,-3.5621,0.0,0.0,0.0,-3.5858,-3.5871,-3.5849,-3.5917,-3.6137,0.0,-3.6816,0.0,0.0,0.0,-3.9941,-4.0527,-4.1113,-4.1191,-4.1191,-4.1191,-4.1191,-4.1191,-4.1191,-4.1191,-4.1426,-4.1973,-4.1504,-4.1445,-4.1992,-4.1504,-4.1191,-4.1191,-4.1191,-4.1191,-4.1191,-4.1191,-4.1191,-4.1211,-4.2363,-4.2865,-4.2787,-4.2682,-4.2579,-4.2441,-4.2374,-4.2333,-4.2345,-4.2302,-4.2277,-4.2277,-4.2277,-4.2277,-4.2277,-4.2277,-4.1893,-4.1393,-4.1393,-4.0989,-4.0496,-4.0496,-4.0496,-4.0496,-4.0496,-4.0496,-4.0496,-4.0496,-4.0496,-4.0496,-4.0496,-4.0496,-4.0496,-4.0496,-4.0496,-4.0496,-4.0496,-4.0496,-4.0496,-4.0496,-4.0496,-4.0496,-4.0496,-4.0496,-4.0496,-4.0496,-4.0496,-4.0496,-4.0496,-4.0496,-4.0496,-4.0496,-4.0496,-4.0496,-4.0496,-4.0496,-4.0496,-4.0496,-4.0101,-3.9884,-3.9884,-3.9884,-3.9842,-3.9765,-3.9541,-3.9414,-3.9438,-3.9031,-3.8884,-3.8975,-3.8792,-3.8707,-3.4066,-3.4913,-3.5607,0.0,0.0,0.0,-3.5858,-3.5799,-3.5752,-3.5954,0.0,-3.6796,-3.613,-3.7966,0.0,-3.8729,-4.0059,-4.1191,-4.1191,-4.1191,-4.1191,-4.1191,-4.1191,-4.1191,-4.1191,-4.1191,-4.1191,-4.1191,-4.1191,-4.1191,-4.1191,-4.1191,-4.1191,-4.1191,-4.1191,-4.1191,-4.1191,-4.1191,-4.1191,-4.1191,-4.1191,-4.1128,-4.0996,-4.0996,-4.0922,-4.0793,-4.0726,-4.0697,-4.0686,-4.0552,-4.0496,-4.0496,-4.0496,-4.0496,-4.0496,-4.0496,-4.0496,-4.0496,-4.0496,-4.0496,-4.0496,-4.0496,-4.0496,-4.0496,-4.0496,-4.0496,-4.0496,-4.0496,-4.0496,-4.0496,-4.0496,-4.0496,-4.0496,-4.0496,-4.0496,-4.0496,-4.0496,-4.0496,-4.0496,-4.0496,-4.0496,-4.0496,-4.0496,-4.0496,-4.0496,-4.0496,-4.0496,-4.0496,-4.0496,-4.0496,-4.0496,-4.0496,-4.0496,-4.0496,-4.0496,-4.0496,-4.0496,-4.0496,-4.0496,-4.0496,-4.0496,-4.0496,-4.0372,-4.011,-4.0101,-3.9775,-3.9112,-3.9093,-3.8957,-3.8707,-3.8707,-3.8707,-3.3099,-3.4047,0.0,-3.5508,0.0,0.0,0.0,-3.5799,0.0,0.0,-3.6095,-3.6366,-3.6835,-3.7496,0.0,-3.9355,-3.9941,-4.0508,-4.1113,-4.1191,-4.1191,-4.1191,-4.1191,-4.1191,-4.1191,-4.1191,-4.1191,-4.1191,-4.1191,-4.1191,-4.1191,-4.1191,-4.1191,-4.1191,-4.1191,-4.1191,-4.1191,-4.1191,-4.1191,-4.1191,-4.1191,-4.1171,-4.1148,-4.103,-4.0986,-4.0925,-4.0817,-4.0738,-4.0686,-4.0552,-4.0496,-4.0496,-4.0496,-4.0496,-4.0496,-4.0496,-4.0496,-4.0496,-4.0496,-4.0496,-4.0496,-4.0496,-4.0496,-4.0496,-4.0496,-4.0496,-4.0496,-4.0496,-4.0496,-4.0496,-4.0496,-4.0496,-4.0496,-4.0496,-4.0496,-4.0496,-4.0496,-4.0496,-4.0496,-4.0496,-4.0496,-4.0496,-4.0496,-4.0496,-4.0496,-4.0496,-4.0496,-4.0496,-4.0496,-4.0496,-4.0496,-4.0496,-4.0496,-4.0496,-4.0496,-4.0496,-4.0496,-4.0496,-4.0496,-4.0496,-4.0496,-4.0496,-4.0465,-4.0381,-4.0195,-4.0002,-3.9797,-3.9327,-3.9044,-3.8971,-3.8788,-3.8707,-3.24,-3.3517,0.0,-3.5126,-3.5576,-3.5901,-3.5901,0.0,0.0,0.0,-3.6166,-3.6459,-3.6738,-3.7302,-3.7984,-3.873,-3.916,-3.957,-4.0098,-4.0176,-4.0293,-4.0644,-4.0684,-4.082,-4.1172,-4.1191,-4.1055,-4.0703,-4.0684,-4.0527,-4.0195,-4.0176,-4.0176,-4.0176,-4.0176,-4.0176,-4.0176,-4.0176,-4.0176,-4.0176,-4.0527,-4.0684,-4.0683,-4.0969,-4.108,-4.1077,-4.0947,-4.0816,-4.0692,-4.061,-4.0545,-4.0496,-4.0496,-4.0496,-4.0496,-4.0496,-4.0496,-4.0496,-4.0496,-4.0496,-4.0496,-4.0496,-4.0496,-4.0496,-4.0496,-4.0496,-4.0496,-4.0496,-4.0496,-4.0496,-4.0496,-4.0496,-4.0496,-4.0496,-4.0496,-4.0496,-4.0496,-4.0496,-4.0496,-4.0496,-4.0496,-4.0496,-4.0496,-4.0496,-4.0496,-4.0496,-4.0496,-4.0496,-4.0496,-4.0496,-4.0496,-4.0496,-4.0496,-4.0496,-4.0496,-4.0496,-4.0496,-4.0496,-4.0496,-4.0496,-4.0496,-4.0496,-4.0496,-4.0496,-4.0347,-4.0204,-4.0101,-3.969,-3.9426,-3.9289,-3.9122,-3.9064,-3.1943,0.0,0.0,-3.4646,-3.5303,0.0,-3.5908,-3.597,-3.5996,-3.5996,0.0,-3.6794,-3.6113,-3.7196,-3.7986,-3.7402,-3.7969,-3.8516,-3.8594,-3.8594,-3.8887,-3.9687,-3.9785,-4.0098,-4.0898,-4.0957,-4.0625,-3.9844,-3.9785,-3.9434,-3.8633,-3.8594,-3.8594,-3.8594,-3.8594,-3.8594,-3.8594,-3.8594,-3.8594,-3.8613,-3.9394,-3.9785,-3.9805,-4.0762,-4.1191,-4.1191,-4.1055,-4.0903,-4.0738,-4.0709,-4.063,-4.0519,-4.0504,-4.0496,-4.0496,-4.0496,-4.0496,-4.0496,-4.0496,-4.0496,-4.0496,-4.0496,-4.0496,-4.0496,-4.0496,-4.0496,-4.0496,-4.0496,-4.0496,-4.0496,-4.0496,-4.0496,-4.0496,-4.0496,-4.0496,-4.0496,-4.0496,-4.0496,-4.0496,-4.0496,-4.0496,-4.0496,-4.0496,-4.0496,-4.0496,-4.0496,-4.0496,-4.0496,-4.0496,-4.0496,-4.0496,-4.0496,-4.0496,-4.0496,-4.0496,-4.0496,-4.0496,-4.0496,-4.0496,-4.0496,-4.0496,-4.0496,-4.0496,-4.0496,-4.0496,-4.0364,-4.0101,-4.0101,-3.9922,-3.9599,-3.9599,-3.9599,-3.1651,-3.2188,0.0,0.0,-3.5303,-3.5975,-3.5975,-3.5996,-3.5995,-3.5921,-3.6085,-3.619,-3.6035,-3.6288,-3.6698,-3.7207,-3.7461,-3.7812,-3.8496,-3.8594,-3.8672,-3.8867,-3.8887,-3.8945,-3.9141,-3.916,-3.9082,-3.8887,-3.8887,-3.8809,-3.8613,-3.8594,-3.8594,-3.8594,-3.8594,-3.8594,-3.8594,-3.8594,-3.8594,-3.8594,-3.8789,-3.8887,-3.8926,-4.0488,-4.1191,-4.1191,-4.1055,-4.0981,-4.0925,-4.0776,-4.068,-4.0655,-4.0537,-4.0496,-4.0496,-4.0496,-4.0496,-4.0496,-4.0496,-4.0496,-4.0496,-4.0496,-4.0496,-4.0496,-4.0496,-4.0496,-4.0496,-4.0496,-4.0496,-4.0496,-4.0496,-4.0496,-4.0496,-4.0496,-4.0496,-4.0496,-4.0496,-4.0496,-4.0496,-4.0496,-4.0496,-4.0496,-4.0496,-4.0496,-4.0496,-4.0496,-4.0496,-4.0496,-4.0496,-4.0496,-4.0496,-4.0496,-4.0496,-4.0496,-4.0496,-4.0496,-4.0496,-4.0496,-4.0496,-4.0496,-4.0496,-4.0496,-4.0496,-4.0496,-4.0496,-4.0364,-4.0101,-4.0101,-3.9922,-3.9599,-3.9599,-3.9599,-3.1122,0.0,0.0,-3.3698,0.0,-3.5371,-3.5371,-3.5703,-3.5996,-3.597,-3.5974,-3.5996,-3.5996,-3.5996,-3.6152,-3.6601,-3.668,-3.6836,-3.7285,-3.7363,-3.7519,-3.793,-3.7988,-3.8144,-3.8555,-3.8594,-3.8437,-3.8008,-3.7988,-3.7793,-3.7383,-3.7363,-3.7363,-3.7363,-3.7363,-3.7363,-3.7363,-3.7363,-3.7363,-3.7363,-3.7773,-3.8203,-3.8633,-3.9531,-3.9961,-3.9941,-3.9877,-3.9804,-3.9776,-4.0057,-4.0134,-4.0112,-4.0391,-4.0496,-4.0496,-4.0496,-4.0496,-4.0496,-4.0496,-4.0496,-4.0496,-4.0496,-4.0496,-4.0496,-4.0496,-4.0496,-4.0496,-4.0496,-4.0496,-4.0496,-4.0496,-4.0496,-4.0496,-4.0496,-4.0496,-4.0496,-4.0496,-4.0496,-4.0496,-4.0496,-4.0496,-4.0496,-4.0496,-4.0496,-4.0496,-4.0496,-4.0496,-4.0496,-4.0496,-4.0496,-4.0496,-4.0496,-4.0496,-4.0496,-4.0496,-4.0496,-4.0496,-4.0496,-4.0496,-4.0496,-4.0496,-4.0496,-4.0496,-4.0496,-4.0496,-4.0422,-4.0276,-4.0276,-4.0194,-4.0034,-4.0034,-4.0034,-3.0645,0.0,-3.2189,-3.2987,-3.3848,0.0,-3.4473,-3.5156,-3.5781,-3.5781,-3.5898,-3.5996,-3.5996,-3.5996,-3.5996,-3.5996,-3.5996,-3.5996,-3.5996,-3.5996,-3.6269,-3.6992,-3.707,-3.7363,-3.8086,-3.8144,-3.7851,-3.7129,-3.707,-3.6758,-3.6035,-3.5996,-3.5996,-3.5996,-3.5996,-3.5996,-3.5996,-3.5996,-3.5996,-3.6016,-3.6738,-3.7441,-3.8144,-3.8144,-3.832,-3.8594,-3.8594,-3.8531,-3.8482,-3.914,-3.9321,-3.9284,-3.9868,-4.0099,-4.0072,-4.0062,-4.0073,-4.0073,-4.0073,-4.0073,-4.0073,-4.0073,-4.0073,-4.0073,-4.0073,-4.0073,-4.0073,-4.0073,-4.0073,-4.0073,-4.0073,-4.0073,-4.0073,-4.0073,-4.0073,-4.015,-4.0439,-4.0496,-4.0496,-4.0496,-4.0496,-4.0496,-4.0496,-4.0496,-4.0496,-4.0496,-4.0496,-4.0496,-4.0496,-4.0496,-4.0496,-4.0496,-4.0496,-4.0496,-4.0496,-4.0496,-4.0496,-4.0496,-4.0496,-4.0496,-4.0496,-4.0496,-4.0496,-4.0496,-4.0496,-4.0496,-4.0496,-4.0496,-4.0496,-4.0496,-4.0496,-4.0496,0.0,0.0,-3.2052,0.0,-3.2969,-3.3574,0.0,0.0,-3.4863,0.0,-3.5469,-3.5996,-3.5996,-3.5996,-3.5996,-3.5996,-3.5996,-3.5996,-3.5996,-3.5996,-3.6035,-3.6152,-3.6172,-3.6211,-3.6348,-3.6348,-3.6309,-3.6172,-3.6172,-3.6113,-3.6016,-3.5996,-3.5996,-3.5996,-3.5996,-3.5996,-3.5996,-3.5996,-3.5996,-3.5996,-3.6113,-3.623,-3.6348,-3.6348,-3.7168,-3.8594,-3.8594,-3.8594,-3.8573,-3.8562,-3.8553,-3.8533,-3.8443,-3.8417,-3.8419,-3.8353,-3.8334,-3.8334,-3.8334,-3.8334,-3.8334,-3.8334,-3.8334,-3.8334,-3.8334,-3.8334,-3.8334,-3.8334,-3.8334,-3.8334,-3.8334,-3.8334,-3.8334,-3.8334,-3.8334,-3.8719,-4.0189,-4.0496,-4.0496,-4.0496,-4.0496,-4.0496,-4.0496,-4.0496,-4.0496,-4.0496,-4.0496,-4.0496,-4.0496,-4.0496,-4.0496,-4.0496,-4.0496,-4.0496,-4.0496,-4.0496,-4.0496,-4.0496,-4.0496,-4.0496,-4.0496,-4.0496,-4.0496,-4.0496,-4.0496,-4.0496,-4.0496,-4.0496,-4.0496,-4.0496,-4.0496,-4.0496,-3.0537,-3.0911,-3.1309,0.0,-3.2109,-3.2734,-3.2734,0.0,-3.3965,-3.3965,-3.4277,-3.4844,-3.582,-3.5996,-3.5996,-3.5996,-3.5996,-3.5996,-3.5996,-3.5996,-3.5996,-3.5996,-3.5996,-3.5996,-3.5996,-3.5996,-3.5996,-3.5996,-3.5996,-3.5996,-3.5996,-3.5996,-3.5996,-3.5996,-3.5996,-3.5996,-3.5996,-3.5996,-3.5996,-3.5996,-3.5996,-3.5996,-3.5996,-3.5996,-3.6426,-3.7148,-3.7148,-3.7148,-3.7168,-3.7536,-3.7671,-3.7702,-3.807,-3.8161,-3.8111,-3.806,-3.8034,-3.8007,-3.8007,-3.8007,-3.8007,-3.8007,-3.8007,-3.8007,-3.8007,-3.8007,-3.8007,-3.8007,-3.8007,-3.8007,-3.8007,-3.8007,-3.8007,-3.8007,-3.8007,-3.82,-3.8931,-3.9104,-3.9104,-3.9104,-3.9104,-3.9104,-3.9104,-3.9104,-3.9104,-3.9104,-3.9104,-3.9104,-3.9104,-3.9104,-3.9284,-3.9785,-3.9823,-4.0015,-4.0458,-4.0496,-4.0496,-4.0496,-4.0496,-4.0496,-4.0496,-4.0496,-4.0496,-4.0496,-4.0496,-4.0496,-4.0496,-4.0496,-4.0496,-4.0496,-4.0496,-4.0496,0.0,0.0,-3.0722,-3.0878,-3.1387,-3.1875,0.0,0.0,-3.3105,0.0,-3.3262,-3.3809,-3.5098,-3.5332,-3.5332,-3.5332,-3.5332,-3.5332,-3.5332,-3.5332,-3.5332,-3.5332,-3.5332,-3.5332,-3.5332,-3.5332,-3.5332,-3.5332,-3.5332,-3.5332,-3.5332,-3.5332,-3.5332,-3.5332,-3.5332,-3.5332,-3.5332,-3.5566,-3.5781,-3.5996,-3.5996,-3.5996,-3.5996,-3.5996,-3.5996,-3.5996,-3.5996,-3.5996,-3.6035,-3.6589,-3.6812,-3.6886,-3.7467,-3.7611,-3.7487,-3.7475,-3.7423,-3.7353,-3.7353,-3.7353,-3.7353,-3.7353,-3.7353,-3.7353,-3.7353,-3.7353,-3.7353,-3.7353,-3.7353,-3.7353,-3.7353,-3.7353,-3.7353,-3.7353,-3.7353,-3.7488,-3.7911,-3.8007,-3.8007,-3.8007,-3.8007,-3.8007,-3.8007,-3.8007,-3.8007,-3.8007,-3.8007,-3.8007,-3.8007,-3.8007,-3.8257,-3.8892,-3.8977,-3.9207,-3.9804,-3.9861,-3.9861,-3.9861,-4.0073,-4.0208,-4.0208,-4.04,-4.0496,-4.0496,-4.0304,-4.0304,-4.0496,-4.0496,-4.0496,-4.0496,-4.0285,-4.0208,0.0,-3.0693,0.0,-3.0878,-3.0937,0.0,0.0,0.0,-3.2266,-3.2266,-3.2871,-3.3437,-3.3516,-3.3535,-3.3535,-3.3535,-3.3535,-3.3535,-3.3535,-3.3535,-3.3535,-3.3535,-3.3535,-3.3535,-3.3535,-3.3535,-3.3535,-3.3535,-3.3535,-3.3535,-3.3535,-3.3535,-3.3535,-3.3535,-3.3535,-3.3535,-3.3535,-3.4355,-3.5176,-3.5996,-3.5996,-3.5996,-3.5996,-3.5996,-3.5996,-3.5996,-3.5996,-3.5996,-3.5996,-3.6035,-3.6055,-3.6054,-3.6031,-3.5941,-3.5822,-3.5752,-3.5685,-3.5635,-3.5635,-3.5635,-3.5635,-3.5635,-3.5635,-3.5635,-3.5635,-3.5635,-3.5635,-3.5635,-3.5635,-3.5635,-3.5635,-3.5635,-3.5635,-3.5635,-3.5635,-3.6077,-3.7661,-3.8007,-3.8007,-3.8007,-3.8007,-3.8007,-3.8007,-3.8007,-3.8007,-3.8007,-3.8007,-3.8007,-3.8007,-3.8007,-3.8027,-3.8065,-3.8065,-3.8084,-3.8123,-3.8123,-3.8123,-3.8123,-3.8911,-3.9361,-3.9361,-4.0092,-4.0496,-4.0496,-3.9746,-3.9746,-4.0496,-4.0496,-4.0496,-4.0477,-3.9727,-3.9361,0.0,0.0,0.0,-3.0878,-3.0898,-3.0898,-3.0898,-3.1133,-3.1367,-3.1367,-3.1582,-3.1797,-3.1797,-3.2676,-3.3398,-3.3398,-3.3398,-3.3398,-3.3398,-3.3398,-3.3398,-3.3398,-3.3398,-3.3398,-3.3398,-3.3398,-3.3398,-3.3398,-3.3398,-3.3398,-3.3398,-3.3398,-3.3398,-3.3398,-3.3398,-3.3398,-3.3398,-3.3711,-3.4023,-3.4336,-3.4336,-3.4336,-3.4355,-3.4902,-3.5176,-3.5195,-3.5762,-3.5996,-3.5996,-3.5996,-3.5996,-3.5996,-3.5974,-3.5917,-3.5831,-3.5805,-3.5698,-3.5568,-3.5568,-3.554,-3.55,-3.55,-3.55,-3.55,-3.55,-3.55,-3.55,-3.55,-3.55,-3.55,-3.55,-3.55,-3.55,-3.55,-3.55,-3.5654,-3.6269,-3.6404,-3.6404,-3.6404,-3.6404,-3.6404,-3.6404,-3.6404,-3.6404,-3.6404,-3.6404,-3.6404,-3.6404,-3.6404,-3.6596,-3.7123,-3.718,-3.7392,-3.795,-3.8007,-3.8007,-3.8007,-3.8296,-3.8469,-3.8469,-3.8738,-3.8892,-3.8892,-3.8604,-3.8873,-3.9727,-3.9161,-3.8892,-3.8892,-3.8604,-3.8469,-3.0742,0.0,0.0,0.0,-3.0898,-3.0898,-3.0898,-3.0898,-3.0898,-3.0898,-3.0898,-3.0898,-3.0898,-3.1816,-3.2559,-3.2559,-3.2559,-3.2559,-3.2559,-3.2559,-3.2559,-3.2559,-3.2559,-3.2559,-3.2559,-3.2559,-3.2559,-3.2559,-3.2559,-3.2559,-3.2559,-3.2559,-3.2559,-3.2559,-3.2559,-3.2695,-3.2988,-3.3008,-3.3125,-3.3398,-3.3398,-3.3398,-3.3418,-3.4004,-3.4258,-3.4297,-3.4883,-3.5469,-3.5996,-3.5996,-3.5996,-3.5996,-3.5996,-3.5951,-3.5901,-3.5901,-3.5797,-3.563,-3.5606,-3.5566,-3.5522,-3.5501,-3.55,-3.55,-3.55,-3.55,-3.55,-3.55,-3.55,-3.55,-3.55,-3.55,-3.55,-3.55,-3.55,-3.55,-3.55,-3.55,-3.55,-3.55,-3.55,-3.55,-3.55,-3.55,-3.55,-3.55,-3.55,-3.55,-3.55,-3.55,-3.5692,-3.6231,-3.6308,-3.6519,-3.7103,-3.7161,-3.7161,-3.7161,-3.7411,-3.7565,-3.7565,-3.7834,-3.8007,-3.8007,-3.7719,-3.7853,-3.843,-3.8142,-3.8007,-3.7988,-3.77,-3.743,0.0,0.0,0.0,0.0,0.0,0.0,-3.0898,-3.0898,-3.0898,-3.0898,-3.0898,-3.0898,-3.0898,-3.0898,-3.0898,-3.0898,-3.0898,-3.0898,-3.0898,-3.0898,-3.0898,-3.0898,-3.0898,-3.0898,-3.0898,-3.0898,-3.0898,-3.0898,-3.0898,-3.0898,-3.0898,-3.0898,-3.0898,-3.0898,-3.0898,-3.1309,-3.2148,-3.2168,-3.2559,-3.332,-3.332,-3.332,-3.332,-3.3359,-3.3359,-3.3379,-3.3398,-3.4355,-3.5937,-3.5957,-3.5957,-3.5957,-3.5996,-3.5951,-3.5903,-3.5901,-3.5807,-3.5693,-3.5616,-3.5605,-3.5599,-3.5522,-3.55,-3.55,-3.55,-3.55,-3.55,-3.55,-3.55,-3.55,-3.55,-3.55,-3.55,-3.55,-3.55,-3.55,-3.55,-3.55,-3.55,-3.55,-3.55,-3.55,-3.55,-3.55,-3.55,-3.55,-3.55,-3.55,-3.55,-3.55,-3.55,-3.55,-3.55,-3.55,-3.55,-3.55,-3.55,-3.55,-3.6231,-3.6654,-3.6654,-3.7488,-3.793,-3.793,-3.7103,-3.6654,-3.6673,-3.7507,-3.793,-3.7911,-3.7065,-3.625,-3.0898,0.0,0.0,0.0,0.0,0.0,-3.0898,-3.0898,-3.0898,-3.0898,-3.0898,-3.0898,-3.0898,-3.0898,-3.0898,-3.0898,-3.0898,-3.0898,-3.0898,-3.0898,-3.0898,-3.0898,-3.0898,-3.0898,-3.0898,-3.0898,-3.0898,-3.0898,-3.0898,-3.0898,-3.0898,-3.0898,-3.0898,-3.0898,-3.0898,-3.1016,-3.1269,-3.1269,-3.1367,-3.1582,-3.1582,-3.1582,-3.1601,-3.2246,-3.2539,-3.2559,-3.3144,-3.3672,-3.418,-3.4805,-3.5059,-3.5117,-3.5693,-3.5947,-3.5951,-3.5817,-3.5726,-3.5693,-3.5616,-3.5579,-3.5528,-3.5514,-3.55,-3.55,-3.55,-3.55,-3.55,-3.55,-3.55,-3.55,-3.55,-3.55,-3.55,-3.55,-3.55,-3.55,-3.55,-3.55,-3.55,-3.55,-3.55,-3.55,-3.55,-3.55,-3.55,-3.55,-3.55,-3.55,-3.55,-3.55,-3.55,-3.55,-3.55,-3.55,-3.55,-3.55,-3.55,-3.55,-3.5712,-3.5827,-3.5827,-3.6058,-3.6192,-3.6192,-3.5942,-3.5827,-3.5827,-3.6077,-3.6192,-3.6192,-3.5942,-3.5712,0.0,0.0,0.0,0.0,0.0,0.0,-3.0898,-3.0898,-3.0898,-3.0898,-3.0898,-3.0898,-3.0898,-3.0898,-3.0898,-3.0898,-3.0898,-3.0898,-3.0898,-3.0898,-3.0898,-3.0898,-3.0898,-3.0898,-3.0898,-3.0898,-3.0898,-3.0898,-3.0898,-3.0898,-3.0898,-3.0898,-3.0898,-3.0898,-3.0898,-3.0898,-3.0898,-3.0898,-3.0898,-3.0898,-3.0898,-3.0898,-3.0918,-3.1426,-3.166,-3.168,-3.2148,-3.2363,-3.2422,-3.3301,-3.3848,-3.4199,-3.4661,-3.4879,-3.4941,-3.5164,-3.5246,-3.5287,-3.5518,-3.5571,-3.554,-3.5508,-3.55,-3.55,-3.55,-3.55,-3.55,-3.55,-3.55,-3.55,-3.55,-3.55,-3.55,-3.55,-3.55,-3.55,-3.55,-3.55,-3.55,-3.55,-3.55,-3.55,-3.55,-3.55,-3.55,-3.55,-3.55,-3.55,-3.55,-3.55,-3.55,-3.55,-3.55,-3.55,-3.55,-3.55,-3.55,-3.55,-3.55,-3.55,-3.55,-3.55,-3.55,-3.55,-3.55,-3.55,-3.55,-3.55,-3.55,-3.55,-3.55,-3.55,0.0,0.0,0.0,0.0,-3.0898,0.0,-3.0898,-3.0898,-3.0898,-3.0898,-3.0898,-3.0898,-3.0898,-3.0898,-3.0898,-3.0898,-3.0898,-3.0898,-3.0898,-3.0898,-3.0898,-3.0898,-3.0898,-3.0898,-3.0898,-3.0898,-3.0898,-3.0898,-3.0898,-3.0898,-3.0898,-3.0898,-3.0898,-3.0898,-3.0898,-3.0898,-3.0898,-3.0898,-3.0898,-3.0898,-3.0898,-3.0898,-3.0898,-3.0898,-3.0898,-3.0898,-3.0898,-3.0898,-3.0957,-3.1738,-3.2539,-3.3262,-3.3359,-3.3398,-3.3476,-3.4192,-3.4447,-3.453,-3.5105,-3.531,-3.5317,-3.5342,-3.5365,-3.5365,-3.5462,-3.55,-3.55,-3.55,-3.55,-3.55,-3.55,-3.55,-3.55,-3.55,-3.55,-3.55,-3.55,-3.55,-3.55,-3.55,-3.55,-3.55,-3.55,-3.55,-3.55,-3.55,-3.55,-3.55,-3.55,-3.55,-3.55,-3.55,-3.55,-3.55,-3.55,-3.55,-3.5507,-3.5508,-3.5494,-3.5507,-3.5508,-3.5508,-3.5501,-3.55,-3.55,-3.5488,-3.5508,-3.5488,-3.55,-3.55,-3.55,-3.55,0.0,0.0,0.0,0.0,-3.0898,0.0,-3.0898,-3.0898,-3.0898,-3.0898,-3.0898,-3.0898,-3.0898,-3.0898,-3.0898,-3.0898,-3.0898,-3.0898,-3.0898,-3.0898,-3.0898,-3.0898,-3.0898,-3.0898,-3.0898,-3.0898,-3.0898,-3.0898,-3.0898,-3.0898,-3.0898,-3.0898,-3.0898,-3.0898,-3.0898,-3.0898,-3.0898,-3.0898,-3.0898,-3.0898,-3.0898,-3.0898,-3.0898,-3.0898,-3.0898,-3.0898,-3.0898,-3.0898,-3.0918,-3.1074,-3.166,-3.248,-3.3092,-3.3351,-3.3417,-3.3468,-3.3462,-3.3475,-3.3498,-3.3476,-3.3531,-3.4231,-3.4449,-3.4584,-3.5288,-3.55,-3.55,-3.55,-3.55,-3.55,-3.55,-3.55,-3.55,-3.55,-3.55,-3.55,-3.55,-3.55,-3.55,-3.55,-3.55,-3.55,-3.55,-3.55,-3.55,-3.55,-3.55,-3.55,-3.55,-3.55,-3.55,-3.55,-3.55,-3.55,-3.55,-3.55,-3.5522,-3.5577,-3.5522,-3.5528,-3.5582,-3.5588,-3.5564,-3.55,-3.55,-3.5534,-3.5588,-3.5534,-3.55,-3.55,-3.55,-3.55,0.0,0.0,0.0,-3.0898,-3.0898,0.0,0.0,-3.0898,-3.0898,-3.0898,-3.0898,-3.0898,-3.0898,-3.0898,-3.0898,-3.0898,-3.0898,-3.0898,-3.0898,-3.0898,-3.0898,-3.0898,-3.0898,-3.0898,-3.0898,-3.0898,-3.0898,-3.0898,-3.0898,-3.0898,-3.0898,-3.0898,-3.0898,-3.0898,-3.0898,-3.0898,-3.0898,-3.0898,-3.0898,-3.0898,-3.0898,-3.0898,-3.0898,-3.0898,-3.0898,-3.0898,-3.0898,-3.0898,-3.0898,-3.0898,-3.1152,-3.1582,-3.1967,-3.2125,-3.2187,-3.2491,-3.2594,-3.2642,-3.2906,-3.2975,-3.3026,-3.3416,-3.3545,-3.3622,-3.4064,-3.4507,-3.4949,-3.5385,-3.55,-3.55,-3.55,-3.55,-3.55,-3.55,-3.55,-3.55,-3.55,-3.55,-3.55,-3.55,-3.55,-3.55,-3.55,-3.55,-3.55,-3.55,-3.55,-3.55,-3.55,-3.55,-3.55,-3.55,-3.5522,-3.5552,-3.5552,-3.5588,-3.5616,-3.5642,-3.5626,-3.5602,-3.5642,-3.5646,-3.5639,-3.5591,-3.5611,-3.5621,-3.5646,-3.5621,-3.5574,-3.5552,-3.5552,-3.5528,0.0,0.0,0.0,0.0,-3.0898,-3.0898,0.0,0.0,0.0,-3.0898,-3.0898,-3.0898,-3.0898,-3.0898,-3.0898,-3.0898,-3.0898,-3.0898,-3.0898,-3.0898,-3.0898,-3.0898,-3.0898,-3.0898,-3.0898,-3.0898,-3.0898,-3.0898,-3.0898,-3.0898,-3.0898,-3.0898,-3.0898,-3.0898,-3.0898,-3.0898,-3.0898,-3.0898,-3.0898,-3.0898,-3.0898,-3.0898,-3.0898,-3.0898,-3.0898,-3.0898,-3.0898,-3.0898,-3.0898,-3.0898,-3.0898,-3.0898,-3.0898,-3.0898,-3.0976,-3.1567,-3.1767,-3.1826,-3.2368,-3.2535,-3.2537,-3.2648,-3.2781,-3.2891,-3.2891,-3.3391,-3.4122,-3.5007,-3.525,-3.5288,-3.5462,-3.55,-3.55,-3.55,-3.55,-3.55,-3.55,-3.55,-3.55,-3.55,-3.55,-3.55,-3.55,-3.55,-3.55,-3.55,-3.55,-3.55,-3.55,-3.5515,-3.5515,-3.5515,-3.5582,-3.5631,-3.5631,-3.5679,-3.5713,-3.5749,-3.5713,-3.5713,-3.5749,-3.5713,-3.5713,-3.5749,-3.5713,-3.5713,-3.5749,-3.5749,-3.5702,-3.5631,-3.5631,-3.559,0.0,0.0,0.0,0.0,-3.0898,-3.0898,-3.0898,0.0,-3.0898,-3.0898,0.0,-3.0898,-3.0898,0.0,0.0,-3.0898,-3.0898,-3.0898,-3.0898,-3.0898,-3.0898,-3.0898,-3.0898,-3.0898,-3.0898,-3.0898,-3.0898,-3.0898,-3.0898,-3.0898,-3.0898,-3.0898,-3.0898,-3.0898,-3.0898,-3.0898,-3.0898,-3.0898,-3.0898,-3.0898,-3.0898,-3.0898,-3.0898,-3.0898,-3.0898,-3.0898,-3.0898,-3.0898,-3.0898,-3.0898,-3.0898,-3.0898,-3.0898,-3.0898,-3.0918,-3.0996,-3.095,-3.0867,-3.0936,-3.0878,-3.0901,-3.1681,-3.2367,-3.2891,-3.2891,-3.2968,-3.3237,-3.4103,-3.4359,-3.4526,-3.5308,-3.55,-3.55,-3.55,-3.55,-3.55,-3.55,-3.55,-3.55,-3.55,-3.55,-3.55,-3.55,-3.55,-3.55,-3.55,-3.55,-3.55,-3.55,-3.5558,-3.5585,-3.5585,-3.5646,-3.5689,-3.5689,-3.57,-3.5755,-3.5871,-3.5764,-3.5758,-3.5873,-3.5764,-3.5758,-3.5873,-3.5761,-3.5761,-3.5875,-3.5875,-3.5805,-3.5689,-3.5689,-3.5682,0.0,0.0,0.0,0.0,-3.0838,-3.0794,-3.0879,-3.0898,-3.0898,-3.0898,0.0,0.0,0.0,0.0,0.0,0.0,-3.0898,-3.0898,-3.0898,-3.0898,-3.0898,-3.0898,-3.0898,-3.0898,-3.0898,-3.0898,-3.0898,-3.0898,-3.0898,-3.0898,-3.0898,-3.0898,-3.0898,-3.0898,-3.0898,-3.0898,-3.0898,-3.0898,-3.0898,-3.0898,-3.0898,-3.0898,-3.0898,-3.0898,-3.0898,-3.0898,-3.0898,-3.0898,-3.0898,-3.0898,-3.0898,-3.0898,-3.0898,-3.0898,-3.0898,-3.0898,-3.0858,-3.0795,-3.0721,-3.065,-3.0675,-3.0996,-3.1291,-3.1597,-3.2118,-3.2232,-3.2372,-3.3199,-3.3449,-3.3641,-3.4526,-3.4757,-3.4872,-3.5385,-3.55,-3.55,-3.55,-3.55,-3.55,-3.55,-3.55,-3.55,-3.55,-3.55,-3.55,-3.55,-3.55,-3.5521,-3.5538,-3.5574,-3.5602,-3.5655,-3.5746,-3.5829,-3.5829,-3.5841,-3.59,-3.595,-3.5902,-3.5901,-3.595,-3.5902,-3.5901,-3.5951,-3.5901,-3.5901,-3.5951,-3.5951,-3.5926,-3.5874,-3.5825,-3.5769,-3.0837,-3.0771,-3.0722,-3.0878,-3.0836,-3.0771,-3.0879,-3.0898,-3.0898,-3.0898,-3.0898,0.0,0.0,0.0,0.0,0.0,0.0,-3.0898,-3.0898,-3.0898,-3.0898,-3.0898,-3.0898,-3.0898,-3.0898,-3.0898,-3.0898,-3.0898,-3.0898,-3.0898,-3.0898,-3.0898,-3.0898,-3.0898,-3.0898,-3.0879,-3.0857,-3.0857,-3.0836,-3.0811,-3.0836,-3.0857,-3.0857,-3.0879,-3.0898,-3.0898,-3.0898,-3.0898,-3.0898,-3.0898,-3.0898,-3.0898,-3.0898,-3.0898,-3.0898,-3.0898,-3.0898,-3.0898,-3.0792,-3.0722,-3.0689,-3.0628,-3.0565,-3.0641,-3.1277,-3.1429,-3.1567,-3.2397,-3.2621,-3.2779,-3.3646,-3.3865,-3.4064,-3.4949,-3.5135,-3.5212,-3.5442,-3.5502,-3.5534,-3.5534,-3.5534,-3.5544,-3.5544,-3.5547,-3.5534,-3.5534,-3.5534,-3.5566,-3.5611,-3.5653,-3.5702,-3.5752,-3.5855,-3.5938,-3.5938,-3.5974,-3.5996,-3.5996,-3.5996,-3.5996,-3.5996,-3.5996,-3.5996,-3.5996,-3.5996,-3.5996,-3.5996,-3.5996,-3.5996,-3.5996,-3.5948,-3.5884,-3.0686,-3.0696,-3.0722,-3.0878,-3.0898,-3.0898,-3.0898,-3.0898,-3.0898,-3.0898,-3.0898,-3.0898,-3.0898,0.0,0.0,0.0,0.0,0.0,0.0,-3.0898,-3.0898,-3.0898,-3.0898,-3.0898,-3.0898,-3.0898,-3.0898,-3.0898,-3.0898,-3.0898,-3.0898,-3.0898,-3.0898,-3.0898,-3.0898,-3.0837,-3.0717,-3.0716,-3.0675,-3.0611,-3.0675,-3.0716,-3.0717,-3.0838,-3.0898,-3.0898,-3.0898,-3.0898,-3.0898,-3.0898,-3.0898,-3.0898,-3.0898,-3.0898,-3.0898,-3.0898,-3.0898,-3.0898,-3.0898,-3.0814,-3.0689,-3.0628,-3.0603,-3.06,-3.0639,-3.0636,-3.0827,-3.1699,-3.1887,-3.2019,-3.2837,-3.2993,-3.316,-3.4032,-3.4244,-3.4468,-3.5327,-3.5558,-3.56,-3.56,-3.5646,-3.5696,-3.5696,-3.5648,-3.56,-3.56,-3.565,-3.5696,-3.57,-3.5805,-3.5898,-3.59,-3.595,-3.5996,-3.5996,-3.5996,-3.5996,-3.5996,-3.5996,-3.5996,-3.5996,-3.5996,-3.5996,-3.5996,-3.5996,-3.5996,-3.5996,-3.5996,-3.5996,-3.5996,-3.5996,-3.5996,-3.0636,-3.0609,-3.0587,-3.0676,-3.0662,-3.0642,-3.0683,-3.071,-3.071,-3.071,-3.0734,-3.0744,-3.0716,0.0,0.0,0.0,0.0,0.0,0.0,-3.0816,-3.0769,-3.0769,-3.0857,-3.0878,-3.0771,-3.0769,-3.0742,-3.0693,-3.071,-3.0725,-3.0768,-3.0728,-3.0725,-3.0769,-3.0726,-3.0681,-3.0624,-3.0621,-3.0611,-3.0603,-3.0611,-3.0621,-3.0643,-3.0735,-3.0769,-3.077,-3.0858,-3.0898,-3.0898,-3.0898,-3.0898,-3.0898,-3.0898,-3.0898,-3.0898,-3.0898,-3.0898,-3.0898,-3.0898,-3.0878,-3.0836,-3.081,-3.0734,-3.0671,-3.0671,-3.0643,-3.0661,-3.0953,-3.1028,-3.1199,-3.2046,-3.2252,-3.246,-3.3328,-3.3973,-3.4486,-3.4772,-3.5273,-3.5675,-3.5675,-3.5682,-3.5707,-3.5707,-3.5746,-3.5765,-3.5683,-3.5686,-3.5726,-3.5812,-3.5873,-3.5913,-3.5951,-3.5995,-3.5996,-3.5996,-3.5996,-3.5996,-3.5996,-3.5996,-3.5996,-3.5996,-3.5996,-3.5996,-3.5996,-3.5996,-3.5996,-3.5996,-3.5996,-3.5996,-3.5996,-3.5996,-3.5996,-3.057,-3.0533,-3.0528,-3.0584,-3.0565,-3.0556,-3.0591,-3.0603,-3.0603,-3.0603,-3.0624,-3.0659,-3.0614,0.0,0.0,0.0,0.0,0.0,0.0,-3.0737,-3.065,-3.065,-3.0734,-3.0764,-3.0716,-3.068,-3.0655,-3.0609,-3.0603,-3.0625,-3.0667,-3.0611,-3.0628,-3.0669,-3.0611,-3.0591,-3.0561,-3.0558,-3.054,-3.0525,-3.0544,-3.0558,-3.0561,-3.0624,-3.065,-3.0671,-3.0757,-3.0811,-3.0836,-3.0836,-3.0858,-3.0898,-3.0898,-3.0898,-3.0898,-3.0898,-3.0898,-3.0898,-3.0898,-3.0898,-3.0898,-3.0898,-3.0838,-3.077,-3.077,-3.0735,-3.0712,-3.0712,-3.0678,-3.076,-3.1322,-3.1457,-3.1667,-3.2539,-3.3164,-3.3751,-3.4374,-3.4925,-3.5396,-3.5708,-3.5788,-3.5804,-3.5804,-3.5889,-3.5892,-3.5797,-3.579,-3.5836,-3.5921,-3.5942,-3.5948,-3.5996,-3.5996,-3.5996,-3.5996,-3.5996,-3.5996,-3.5996,-3.5996,-3.5996,-3.5996,-3.5996,-3.6152,-3.6465,-3.6152,-3.6152,-3.6465,-3.6152,-3.5996,-3.5996,-3.5996,-3.5996]},{"header":{"parameterUnit":"m.s-1","parameterCategory":1,"la1":30.6,"la2":29.2853,"lo1":-89.7004,"lo2":-87.6739,"dy":0.0162,"dx":0.0183,"nx":112,"ny":82,"refTime":"2023-11-01T12:00:00:Z","depth":0,"parameterNumber":3,"parameterNumberName":"V-component_of_WINDS"},"data":[0.0,0.0,0.0,0.0,0.0,0.0,0.0,0.0,0.0,0.0,0.0,0.0,0.0,0.0,0.0,0.0,0.0,0.0,0.0,0.0,0.0,0.0,0.0,0.0,0.0,0.0,0.0,0.0,0.0,0.0,0.0,0.0,0.0,0.0,0.0,0.0,0.0,0.0,0.0,0.0,0.0,0.0,0.0,0.0,0.0,0.0,0.0,0.0,0.0,0.0,0.0,0.0,0.0,0.0,0.0,0.0,0.0,0.0,0.0,0.0,0.0,0.0,0.0,0.0,0.0,0.0,0.0,0.0,0.0,0.0,0.0,0.0,0.0,0.0,0.0,0.0,0.0,0.0,0.0,0.0,0.0,0.0,0.0,0.0,0.0,0.0,0.0,0.0,0.0,0.0,-1.541,-1.541,-1.541,-1.541,-1.541,-1.541,-1.541,-1.541,0.0,0.0,0.0,0.0,0.0,0.0,0.0,0.0,0.0,0.0,0.0,0.0,0.0,0.0,0.0,0.0,0.0,0.0,0.0,0.0,0.0,0.0,0.0,0.0,0.0,0.0,0.0,0.0,0.0,0.0,0.0,0.0,0.0,0.0,0.0,0.0,0.0,0.0,0.0,0.0,0.0,0.0,0.0,0.0,0.0,0.0,0.0,0.0,0.0,0.0,0.0,0.0,0.0,0.0,0.0,0.0,0.0,0.0,0.0,0.0,0.0,0.0,0.0,0.0,0.0,0.0,0.0,0.0,0.0,0.0,0.0,0.0,0.0,0.0,0.0,0.0,0.0,0.0,0.0,0.0,0.0,0.0,0.0,0.0,0.0,0.0,0.0,0.0,0.0,0.0,0.0,0.0,0.0,0.0,0.0,0.0,0.0,0.0,0.0,0.0,0.0,0.0,0.0,0.0,-1.541,-1.541,-1.541,-1.541,-1.541,-1.541,-1.541,-1.541,0.0,0.0,0.0,0.0,0.0,0.0,0.0,0.0,0.0,0.0,0.0,0.0,0.0,0.0,0.0,0.0,0.0,0.0,0.0,0.0,0.0,0.0,0.0,0.0,0.0,0.0,0.0,0.0,0.0,0.0,0.0,0.0,0.0,0.0,0.0,0.0,0.0,0.0,0.0,0.0,0.0,0.0,0.0,0.0,0.0,0.0,0.0,0.0,0.0,0.0,0.0,0.0,0.0,0.0,0.0,0.0,0.0,0.0,0.0,0.0,0.0,0.0,0.0,0.0,0.0,0.0,0.0,0.0,0.0,0.0,0.0,0.0,0.0,0.0,0.0,0.0,0.0,0.0,0.0,0.0,0.0,0.0,0.0,0.0,0.0,0.0,0.0,0.0,0.0,0.0,0.0,0.0,0.0,0.0,0.0,0.0,0.0,0.0,0.0,0.0,0.0,0.0,0.0,-1.541,-1.541,-1.541,-1.541,-1.541,-1.541,-1.541,-1.541,-1.541,-1.541,0.0,0.0,0.0,0.0,0.0,0.0,0.0,0.0,0.0,0.0,0.0,0.0,0.0,0.0,0.0,0.0,0.0,0.0,0.0,0.0,0.0,0.0,0.0,0.0,0.0,0.0,0.0,0.0,0.0,0.0,0.0,0.0,0.0,0.0,0.0,0.0,0.0,0.0,0.0,0.0,0.0,0.0,0.0,0.0,0.0,0.0,0.0,0.0,0.0,0.0,0.0,0.0,0.0,0.0,0.0,0.0,0.0,0.0,0.0,0.0,0.0,0.0,0.0,0.0,0.0,0.0,0.0,0.0,0.0,0.0,0.0,0.0,0.0,0.0,0.0,0.0,0.0,0.0,0.0,0.0,0.0,0.0,0.0,0.0,0.0,0.0,0.0,0.0,0.0,0.0,0.0,0.0,0.0,0.0,0.0,0.0,0.0,0.0,0.0,0.0,0.0,0.0,-1.541,-1.541,-1.541,-1.541,-1.541,-1.541,-1.541,-1.541,-1.541,-1.541,0.0,0.0,0.0,0.0,0.0,0.0,0.0,0.0,0.0,0.0,0.0,0.0,0.0,0.0,0.0,0.0,0.0,0.0,0.0,0.0,0.0,0.0,0.0,0.0,0.0,0.0,0.0,0.0,0.0,0.0,0.0,0.0,0.0,0.0,0.0,0.0,0.0,0.0,0.0,0.0,0.0,0.0,0.0,0.0,0.0,0.0,0.0,0.0,0.0,0.0,0.0,0.0,0.0,0.0,0.0,0.0,0.0,0.0,0.0,0.0,0.0,0.0,0.0,0.0,0.0,0.0,0.0,0.0,0.0,0.0,0.0,0.0,0.0,0.0,0.0,0.0,0.0,0.0,0.0,0.0,0.0,0.0,0.0,0.0,0.0,0.0,0.0,0.0,0.0,0.0,0.0,0.0,0.0,0.0,0.0,0.0,0.0,0.0,0.0,0.0,0.0,0.0,-1.541,-1.541,-1.541,-1.541,-1.541,-1.541,-1.541,-1.541,-1.541,-1.541,0.0,0.0,0.0,0.0,0.0,0.0,0.0,0.0,0.0,0.0,0.0,0.0,0.0,0.0,0.0,0.0,0.0,0.0,0.0,0.0,0.0,0.0,0.0,0.0,0.0,0.0,0.0,0.0,0.0,0.0,0.0,0.0,0.0,0.0,0.0,0.0,0.0,0.0,0.0,0.0,0.0,0.0,0.0,0.0,0.0,0.0,0.0,0.0,0.0,0.0,0.0,0.0,0.0,0.0,0.0,0.0,0.0,0.0,0.0,0.0,0.0,0.0,0.0,0.0,0.0,0.0,0.0,0.0,0.0,0.0,0.0,0.0,0.0,0.0,0.0,0.0,0.0,0.0,0.0,0.0,0.0,0.0,0.0,0.0,0.0,0.0,0.0,0.0,0.0,0.0,0.0,0.0,0.0,0.0,0.0,0.0,0.0,0.0,0.0,0.0,0.0,0.0,-1.541,-1.541,-1.541,-1.541,-1.541,-1.541,-1.541,-1.541,-1.541,0.0,0.0,0.0,0.0,0.0,0.0,0.0,0.0,0.0,0.0,0.0,0.0,0.0,0.0,0.0,0.0,0.0,0.0,0.0,0.0,0.0,0.0,0.0,0.0,0.0,0.0,0.0,0.0,0.0,0.0,0.0,0.0,0.0,0.0,0.0,0.0,0.0,0.0,0.0,0.0,0.0,0.0,0.0,0.0,0.0,0.0,0.0,0.0,0.0,0.0,0.0,0.0,0.0,0.0,0.0,0.0,0.0,0.0,0.0,0.0,0.0,0.0,0.0,0.0,0.0,0.0,0.0,0.0,0.0,0.0,0.0,0.0,0.0,0.0,0.0,0.0,0.0,0.0,0.0,0.0,0.0,0.0,0.0,0.0,0.0,0.0,0.0,0.0,0.0,0.0,0.0,0.0,0.0,0.0,0.0,0.0,0.0,0.0,0.0,0.0,0.0,0.0,-1.541,-1.541,-1.541,-1.541,-1.541,-1.541,-1.541,-1.541,-1.541,-1.541,0.0,0.0,0.0,0.0,0.0,0.0,0.0,0.0,0.0,0.0,0.0,0.0,0.0,0.0,0.0,0.0,0.0,0.0,0.0,0.0,0.0,0.0,0.0,0.0,0.0,0.0,0.0,0.0,0.0,0.0,0.0,0.0,0.0,0.0,0.0,0.0,0.0,0.0,0.0,0.0,0.0,0.0,0.0,0.0,0.0,0.0,0.0,0.0,0.0,0.0,0.0,0.0,0.0,0.0,0.0,0.0,0.0,0.0,0.0,0.0,0.0,0.0,0.0,0.0,0.0,0.0,0.0,0.0,0.0,0.0,0.0,0.0,0.0,0.0,0.0,0.0,0.0,0.0,0.0,0.0,0.0,0.0,0.0,0.0,0.0,0.0,0.0,0.0,0.0,0.0,0.0,0.0,0.0,0.0,0.0,0.0,0.0,0.0,0.0,0.0,0.0,0.0,-1.541,-1.541,-1.541,-1.541,-1.541,-1.541,-1.541,-1.541,-1.541,0.0,0.0,0.0,0.0,0.0,0.0,0.0,0.0,0.0,0.0,0.0,0.0,0.0,0.0,0.0,0.0,0.0,0.0,0.0,0.0,0.0,0.0,0.0,0.0,0.0,0.0,0.0,0.0,0.0,0.0,0.0,0.0,0.0,0.0,0.0,0.0,0.0,0.0,0.0,0.0,0.0,0.0,0.0,0.0,0.0,0.0,0.0,0.0,0.0,0.0,0.0,0.0,0.0,0.0,0.0,0.0,0.0,0.0,0.0,0.0,0.0,0.0,0.0,0.0,0.0,0.0,0.0,0.0,0.0,0.0,0.0,0.0,0.0,0.0,0.0,0.0,0.0,0.0,0.0,0.0,0.0,0.0,0.0,0.0,0.0,0.0,0.0,0.0,0.0,0.0,0.0,0.0,0.0,0.0,0.0,0.0,0.0,0.0,0.0,0.0,0.0,0.0,0.0,-1.541,-1.541,-1.541,-1.541,-1.541,-1.541,-1.541,-1.541,-1.541,-1.541,0.0,0.0,0.0,0.0,0.0,0.0,0.0,0.0,0.0,0.0,0.0,0.0,0.0,0.0,0.0,0.0,0.0,0.0,0.0,0.0,0.0,0.0,0.0,0.0,0.0,0.0,0.0,0.0,0.0,0.0,0.0,0.0,0.0,0.0,0.0,0.0,0.0,0.0,0.0,0.0,0.0,0.0,0.0,0.0,0.0,0.0,0.0,0.0,0.0,0.0,0.0,0.0,0.0,0.0,0.0,0.0,0.0,0.0,0.0,0.0,0.0,0.0,0.0,0.0,0.0,0.0,0.0,0.0,0.0,0.0,0.0,0.0,0.0,0.0,0.0,0.0,0.0,0.0,0.0,0.0,0.0,0.0,0.0,0.0,0.0,0.0,0.0,0.0,0.0,0.0,0.0,0.0,0.0,0.0,0.0,0.0,0.0,0.0,0.0,0.0,0.0,0.0,-1.541,-1.541,-1.541,-1.541,-1.541,-1.541,-1.541,-1.541,-1.541,-1.541,0.0,0.0,0.0,0.0,0.0,0.0,0.0,0.0,0.0,0.0,0.0,0.0,0.0,0.0,0.0,0.0,0.0,0.0,0.0,0.0,0.0,0.0,0.0,0.0,0.0,0.0,0.0,0.0,0.0,0.0,0.0,0.0,0.0,0.0,0.0,0.0,0.0,0.0,0.0,0.0,0.0,0.0,0.0,0.0,0.0,0.0,0.0,0.0,0.0,0.0,0.0,0.0,0.0,0.0,0.0,0.0,0.0,0.0,0.0,0.0,0.0,0.0,0.0,0.0,0.0,0.0,0.0,0.0,0.0,0.0,0.0,0.0,0.0,0.0,0.0,0.0,0.0,0.0,0.0,0.0,0.0,0.0,0.0,0.0,0.0,0.0,0.0,0.0,0.0,0.0,0.0,0.0,0.0,0.0,0.0,0.0,0.0,0.0,0.0,0.0,0.0,0.0,-1.541,-1.541,-1.541,-1.541,-1.541,-1.541,-1.541,-1.541,-1.541,-1.541,0.0,0.0,0.0,0.0,0.0,0.0,0.0,0.0,0.0,0.0,0.0,0.0,0.0,0.0,0.0,0.0,0.0,0.0,0.0,0.0,0.0,0.0,0.0,0.0,0.0,0.0,0.0,0.0,0.0,0.0,0.0,0.0,0.0,0.0,0.0,0.0,0.0,0.0,0.0,0.0,0.0,0.0,0.0,0.0,0.0,0.0,0.0,0.0,0.0,0.0,0.0,0.0,0.0,0.0,0.0,0.0,0.0,0.0,0.0,0.0,-1.1503,-1.1557,0.0,0.0,0.0,0.0,0.0,0.0,0.0,0.0,0.0,0.0,0.0,0.0,0.0,0.0,0.0,0.0,0.0,0.0,0.0,0.0,0.0,0.0,0.0,0.0,0.0,0.0,0.0,0.0,0.0,0.0,0.0,0.0,0.0,0.0,0.0,0.0,0.0,0.0,0.0,0.0,-1.541,-1.541,-1.541,-1.541,-1.541,-1.541,-1.541,-1.541,-1.541,-1.541,-1.541,0.0,0.0,0.0,0.0,0.0,0.0,0.0,0.0,0.0,0.0,0.0,0.0,0.0,0.0,0.0,0.0,0.0,0.0,0.0,0.0,0.0,0.0,0.0,0.0,0.0,0.0,0.0,0.0,0.0,0.0,0.0,0.0,0.0,0.0,0.0,0.0,0.0,0.0,0.0,0.0,0.0,0.0,0.0,0.0,0.0,0.0,0.0,0.0,0.0,0.0,0.0,0.0,0.0,0.0,0.0,0.0,0.0,0.0,0.0,-1.1911,-1.1937,0.0,0.0,0.0,0.0,0.0,0.0,0.0,0.0,0.0,0.0,0.0,0.0,0.0,0.0,0.0,0.0,0.0,0.0,0.0,0.0,0.0,0.0,0.0,0.0,0.0,0.0,0.0,0.0,0.0,0.0,0.0,0.0,0.0,0.0,0.0,0.0,0.0,0.0,0.0,0.0,-1.6015,-1.6015,-1.6015,-1.6015,-1.6015,-1.5957,-1.5742,-1.5723,-1.5635,-1.542,-1.541,0.0,0.0,0.0,0.0,0.0,0.0,0.0,0.0,0.0,0.0,0.0,0.0,0.0,0.0,0.0,0.0,0.0,0.0,0.0,0.0,0.0,0.0,0.0,0.0,0.0,0.0,0.0,0.0,0.0,0.0,0.0,0.0,0.0,0.0,0.0,0.0,0.0,0.0,0.0,0.0,0.0,0.0,0.0,0.0,0.0,0.0,0.0,0.0,0.0,0.0,0.0,0.0,0.0,-1.1622,-1.2114,-1.2305,-1.2305,-1.2305,-1.2305,-1.2305,-1.2305,-1.2305,-1.2305,0.0,0.0,0.0,0.0,0.0,0.0,0.0,0.0,0.0,0.0,0.0,0.0,0.0,0.0,0.0,0.0,0.0,0.0,0.0,0.0,0.0,0.0,-1.1736,-1.2409,-1.2565,-1.2687,-1.3054,0.0,0.0,0.0,0.0,0.0,0.0,0.0,0.0,0.0,0.0,0.0,-1.6697,-1.6697,-1.6697,-1.6697,-1.6697,-1.6582,-1.6242,-1.6212,-1.6026,-1.5557,-1.5527,-1.5488,0.0,0.0,0.0,0.0,0.0,0.0,0.0,0.0,0.0,0.0,0.0,0.0,0.0,0.0,0.0,0.0,0.0,0.0,0.0,0.0,0.0,0.0,0.0,0.0,0.0,0.0,0.0,0.0,0.0,0.0,0.0,0.0,-0.421,-0.421,0.0,0.0,0.0,0.0,0.0,0.0,0.0,0.0,0.0,0.0,0.0,0.0,0.0,-0.9505,-1.0461,-0.9793,-1.0338,-1.2054,-1.1335,-1.1465,-1.2305,-1.2305,-1.2305,-1.2305,-1.2305,0.0,-1.2305,-1.2305,0.0,0.0,0.0,0.0,0.0,0.0,0.0,0.0,0.0,0.0,0.0,0.0,0.0,0.0,0.0,0.0,0.0,0.0,0.0,0.0,0.0,0.0,-1.2161,-1.2048,-1.2022,-1.2009,-1.2067,-1.3002,-1.3852,-1.3983,-1.4016,-1.4302,0.0,0.0,0.0,0.0,0.0,0.0,-1.6697,-1.6697,-1.6697,-1.6697,-1.6697,-1.6677,-1.6619,-1.6609,-1.6455,-1.6036,-1.6007,-1.5811,-1.543,-1.541,0.0,0.0,0.0,0.0,0.0,0.0,0.0,0.0,0.0,0.0,0.0,0.0,0.0,0.0,0.0,0.0,0.0,0.0,0.0,0.0,0.0,0.0,0.0,0.0,0.0,0.0,0.0,0.0,0.0,-0.446,-0.515,-0.4543,-0.5413,-0.6098,0.0,0.0,0.0,0.0,0.0,0.0,0.0,0.0,0.0,-0.7926,-0.8501,-0.9025,-0.9454,-1.0254,-1.1086,-1.1945,-1.21,-1.2376,-1.2812,-1.2812,-1.2812,-1.2812,-1.2812,-1.2812,-1.2786,-1.2445,-1.2305,-1.2305,0.0,0.0,0.0,0.0,-1.2305,-1.2305,-1.2305,-1.2305,-1.2305,-1.2305,0.0,0.0,0.0,0.0,0.0,0.0,0.0,-1.2372,-1.2806,-1.2629,-1.2271,-1.2144,-1.2111,-1.2111,-1.2111,-1.2607,-1.3085,-1.3389,-1.3888,-1.4547,-1.5479,-1.5644,0.0,0.0,0.0,-1.7418,-1.7418,-1.7418,-1.7418,-1.7418,-1.7418,-1.7353,-1.7119,-1.71,-1.6914,-1.6465,-1.6436,-1.624,-1.5791,-1.5781,-1.5664,0.0,0.0,0.0,0.0,0.0,0.0,0.0,0.0,0.0,0.0,0.0,0.0,0.0,0.0,0.0,0.0,0.0,0.0,0.0,0.0,0.0,0.0,0.0,0.0,0.0,0.0,0.0,0.0,-0.5198,-0.5589,-0.4805,-0.5628,-0.63,0.0,0.0,0.0,0.0,0.0,0.0,-0.7536,-0.7617,-0.7681,-0.7681,-0.7849,-0.8078,-0.836,-0.9994,-1.1089,-1.1662,-1.2393,-1.2923,-1.3213,-1.3213,-1.3213,-1.3213,-1.3213,-1.3213,-1.3173,-1.2719,-1.2485,-1.2418,-1.2418,-1.2371,-1.2305,-1.2305,-1.2305,-1.2305,-1.2305,-1.2305,-1.2305,-1.2305,-1.2305,-1.2305,-1.2305,0.0,0.0,0.0,0.0,-1.2305,-1.2305,-1.2305,-1.2305,-1.2305,-1.2305,-1.2305,-1.2305,-1.2482,-1.2706,-1.287,-1.3442,-1.4231,-1.5197,-1.5539,0.0,-1.7453,-1.7872,-1.8008,-1.8008,-1.8008,-1.8008,-1.8008,-1.8008,-1.7881,-1.7568,-1.7539,-1.7363,-1.6892,-1.6863,-1.6699,-1.6281,-1.6153,-1.5938,-1.5586,0.0,0.0,0.0,0.0,0.0,0.0,0.0,0.0,0.0,0.0,0.0,0.0,0.0,0.0,0.0,0.0,0.0,0.0,0.0,0.0,0.0,0.0,0.0,0.0,0.0,0.0,0.0,0.0,0.0,-0.4688,-0.5628,0.0,0.0,0.0,0.0,-0.6501,-0.6634,-0.6761,-0.6761,-0.6767,-0.6771,-0.6771,-0.6778,-0.7229,-0.8205,-0.8328,-0.9421,-1.1524,-1.157,-1.2141,-1.3213,-1.3213,-1.3213,-1.3213,-1.3213,-1.3213,-1.3206,-1.318,-1.2993,-1.2764,-1.2764,-1.2589,-1.2305,-1.2305,-1.2305,-1.2305,-1.2305,-1.2305,-1.2305,-1.2305,-1.2305,-1.2305,-1.2305,-1.2305,0.0,0.0,-1.2305,-1.2305,-1.2305,-1.2305,-1.2305,-1.2305,-1.2305,-1.2305,-1.2305,-1.2989,-1.3382,-1.2498,-1.2388,-1.2712,-1.3643,0.0,-1.5562,-1.6523,-1.7432,-1.8008,-1.8008,-1.8008,-1.8008,-1.8008,-1.8008,-1.7998,-1.7978,-1.7978,-1.7803,-1.7373,-1.7344,-1.7158,-1.6687,-1.6289,-1.6085,-1.6065,-1.5625,0.0,0.0,0.0,0.0,0.0,0.0,0.0,0.0,0.0,0.0,0.0,0.0,0.0,0.0,0.0,0.0,0.0,0.0,0.0,0.0,0.0,0.0,0.0,0.0,0.0,0.0,0.0,0.0,-0.5781,-0.6195,0.0,-0.6532,-0.659,-0.662,-0.662,-0.6668,-0.6742,-0.6844,-0.6893,-0.7031,-0.7129,-0.7927,-0.8556,-0.8909,-1.0494,-1.168,-1.247,-1.3355,-1.3978,-1.4342,-1.4342,-1.4342,-1.4342,-1.4342,-1.4342,-1.4322,-1.4135,-1.3654,-1.3046,-1.3046,-1.2979,-1.2886,-1.2886,-1.2759,-1.2623,-1.2623,-1.2496,-1.2305,-1.2305,-1.2305,-1.2305,-1.2305,-1.2305,-1.2305,-1.2305,-1.2305,-1.2305,-1.2305,-1.2305,-1.2305,-1.2305,-1.2305,-1.2305,-1.2305,-1.2556,-1.2703,-1.2372,-1.2806,-1.3528,-1.4494,-1.495,-1.5728,-1.7251,-1.7794,-1.8008,-1.8008,-1.8008,-1.8008,-1.8008,-1.8008,-1.8008,-1.8008,-1.8008,-1.7949,-1.7793,-1.7793,-1.7598,-1.7168,-1.6992,-1.6672,-1.6105,-1.5938,-1.5693,0.0,0.0,0.0,0.0,0.0,0.0,0.0,0.0,0.0,0.0,0.0,0.0,0.0,0.0,0.0,0.0,0.0,0.0,0.0,0.0,0.0,0.0,0.0,0.0,0.0,-0.4309,-0.5065,-0.5878,-0.6303,-0.661,-0.6763,-0.682,-0.6871,-0.6922,-0.6973,-0.7048,-0.7149,-0.72,-0.7343,-0.7444,-0.8277,-0.875,-0.875,-1.0357,-1.1365,-1.1777,-1.3115,-1.3948,-1.4353,-1.4777,-1.5008,-1.5008,-1.5008,-1.5008,-1.4995,-1.475,-1.4329,-1.3774,-1.3474,-1.33,-1.3213,-1.3213,-1.308,-1.2945,-1.2945,-1.2772,-1.2592,-1.2485,-1.2489,-1.2432,-1.2331,-1.2305,-1.2305,-1.2305,-1.2305,-1.2305,-1.2305,-1.2305,-1.2305,-1.2305,-1.2305,-1.2305,-1.2305,-1.2305,-1.2305,-1.2305,-1.2806,-1.3455,-1.4127,-1.4486,-1.5234,-1.6837,-1.7329,-1.7647,-1.7974,-1.8008,-1.8008,-1.8008,-1.8008,-1.8008,-1.8008,-1.8008,-1.8008,-1.8008,-1.8008,-1.7881,-1.7607,-1.7461,-1.7142,-1.6555,-1.6251,-1.5948,-1.5635,0.0,0.0,0.0,0.0,0.0,0.0,0.0,0.0,0.0,0.0,0.0,0.0,0.0,0.0,0.0,0.0,0.0,0.0,0.0,0.0,0.0,0.0,0.0,-0.1503,-0.3485,-0.4867,-0.4941,-0.6002,-0.6776,-0.6893,-0.7031,-0.7217,-0.7412,-0.7516,-0.76,-0.7607,-0.7607,-0.7607,-0.7614,-0.7617,-0.7621,-0.7621,-0.7671,-0.8273,-0.9423,-1.076,-1.1997,-1.3144,-1.4437,-1.5035,-1.5035,-1.5035,-1.5035,-1.5035,-1.5028,-1.5022,-1.4934,-1.3979,-1.3467,-1.3253,-1.3253,-1.324,-1.322,-1.3213,-1.3213,-1.316,-1.2898,-1.2797,-1.2744,-1.2418,-1.2331,-1.2325,-1.2318,-1.2318,-1.2311,-1.2305,-1.2305,-1.2305,-1.2305,-1.2305,-1.2305,-1.2305,-1.2305,-1.2305,-1.2305,-1.2305,-1.2305,-1.2335,-1.3098,-1.4027,-1.5057,-1.5965,0.0,-1.7794,-1.7906,-1.794,-1.794,-1.7974,-1.7974,-1.8008,-1.8008,-1.8008,-1.8008,-1.8008,-1.8008,-1.8008,-1.7617,-1.7393,-1.7383,-1.6564,-1.6114,-1.6114,0.0,0.0,0.0,0.0,0.0,0.0,0.0,0.0,0.0,0.0,0.0,0.0,0.0,0.0,0.0,0.0,0.0,0.0,0.0,0.0,0.0,0.0,-0.0663,-0.264,-0.3367,-0.4417,-0.6288,-0.68,-0.7078,-0.739,-0.7451,-0.7489,-0.7533,-0.7577,-0.7645,-0.7746,-0.7753,-0.7804,-0.7867,-0.8028,-0.8085,-0.8085,-0.9136,-1.0339,-1.173,-1.2812,-1.4051,-1.5408,-1.5544,-1.5591,-1.5591,-1.5591,-1.5591,-1.5571,-1.5364,-1.5277,-1.5237,-1.4776,-1.4422,-1.4162,-1.4162,-1.3888,-1.3453,-1.328,-1.3213,-1.32,-1.3113,-1.308,-1.3066,-1.2986,-1.2959,-1.2913,-1.2723,-1.2663,-1.2616,-1.2358,-1.2305,-1.2305,-1.2305,-1.2305,-1.2305,-1.2305,-1.2305,-1.2305,-1.2305,-1.2305,-1.2519,-1.3208,-1.3528,-1.4027,-1.5057,-1.5411,-1.5693,-1.5948,-1.5983,-1.6228,-1.6922,-1.7001,-1.7251,-1.794,-1.8008,-1.8008,-1.8008,-1.8008,-1.8008,-1.8008,-1.79,-1.7695,-1.7425,-1.6836,-1.6553,0.0,0.0,0.0,0.0,0.0,0.0,0.0,0.0,0.0,0.0,0.0,0.0,0.0,0.0,0.0,0.0,0.0,0.0,0.0,0.0,0.0,0.0,0.0,-0.0817,-0.3215,-0.3544,-0.4285,-0.6334,-0.7008,-0.7428,-0.7665,-0.7689,-0.7743,-0.7872,-0.7882,-0.7943,-0.8085,-0.8092,-0.8133,-0.8221,-0.8313,-0.836,-0.836,-0.9213,-1.0028,-1.0901,-1.2618,-1.3919,-1.4773,-1.5722,-1.6199,-1.6192,-1.6066,-1.6012,-1.5992,-1.5698,-1.5578,-1.5538,0.0,0.0,0.0,0.0,-1.4409,-1.3946,-1.3814,-1.3681,-1.3554,-1.3393,-1.3353,-1.3367,-1.3247,-1.3213,-1.3173,-1.2993,-1.2978,-1.2899,-1.2726,-1.2585,-1.2522,-1.2522,-1.2392,-1.2305,-1.2305,-1.2305,-1.2305,-1.2305,-1.2305,0.0,-1.3025,-1.3091,-1.3455,-1.4414,-1.4557,-1.4736,-1.5163,-1.5199,-1.5411,-1.5965,-1.6358,-1.6819,-1.7354,-1.7759,0.0,0.0,0.0,-1.8008,-1.8008,-1.8008,0.0,0.0,0.0,-1.7002,-1.7002,-1.6794,0.0,0.0,-1.5771,-1.5586,0.0,0.0,0.0,0.0,0.0,0.0,0.0,0.0,0.0,0.0,0.0,0.0,0.0,0.0,0.0,0.0,0.0,-0.0856,-0.3247,-0.3744,-0.4389,-0.5873,-0.6951,-0.7685,-0.7845,-0.7862,-0.7984,-0.8323,-0.8347,-0.835,-0.8476,-0.8482,0.0,0.0,0.0,-0.8509,-0.8509,-0.8523,-0.8639,-0.8846,-1.1257,-1.2478,-1.2735,-1.5279,-1.645,-1.6437,-1.6384,-1.6375,-1.6299,-1.6005,-1.5811,-1.5724,-1.5224,-1.5062,-1.5055,-1.5022,-1.4796,-1.4569,-1.4569,0.0,0.0,-1.3786,-1.368,-1.3606,-1.3387,-1.3307,-1.33,-1.3267,-1.326,-1.3253,-1.322,-1.3006,-1.2837,-1.2837,-1.2636,-1.2392,-1.2358,-1.2351,-1.2345,-1.2311,-1.2305,-1.2305,-1.2305,-1.2305,-1.2592,-1.3419,-1.3528,-1.3846,-1.4772,-1.4879,-1.4914,-1.5021,-1.579,0.0,-1.6567,-1.7354,-1.7906,-1.7974,-1.8008,-1.8008,-1.8008,-1.8008,-1.8008,-1.8008,-1.7646,-1.7484,-1.7484,-1.7038,-1.6824,-1.6765,-1.6348,-1.5928,0.0,0.0,0.0,0.0,0.0,0.0,0.0,0.0,0.0,0.0,0.0,0.0,0.0,0.0,0.0,0.0,0.0,-0.0558,-0.2107,-0.3268,-0.4816,-0.7129,-0.7622,-0.7879,-0.8157,-0.8184,-0.8255,-0.8428,-0.8442,-0.8455,-0.8479,-0.8482,-0.8482,-0.8482,-0.8601,-0.8665,-0.8665,-0.8791,-0.9443,-1.062,-1.0901,0.0,-1.2808,-1.4276,-1.4907,-1.5008,-1.6134,-1.662,-1.66,-1.6306,-1.6046,-1.5792,-1.5444,-1.5311,-1.5284,-1.5095,-1.4975,-1.4877,-1.4877,-1.4683,-1.4429,-1.4369,-1.4195,-1.3988,-1.3935,-1.3921,0.0,-1.3586,-1.352,-1.3467,-1.3273,-1.3166,-1.312,-1.312,-1.308,-1.2966,-1.275,-1.2697,-1.263,-1.2351,-1.2305,-1.2305,-1.2305,-1.2305,-1.2372,-1.2556,-1.2556,-1.2622,-1.2842,-1.2879,-1.3164,-1.3918,-1.4163,-1.4906,-1.6454,-1.6784,-1.7182,-1.794,-1.8008,-1.8008,-1.8008,-1.8008,-1.8008,-1.8008,-1.793,-1.7891,-1.7891,-1.7803,-1.7588,-1.7246,-1.6807,-1.6531,0.0,0.0,0.0,0.0,0.0,0.0,0.0,0.0,0.0,0.0,0.0,0.0,0.0,0.0,0.0,0.0,0.0,-0.048,-0.1805,-0.3228,-0.4822,-0.6828,-0.7633,-0.813,-0.8353,-0.8377,-0.8438,-0.8584,-0.8598,-0.8628,-0.8706,-0.871,-0.871,-0.871,-0.8784,-0.8825,-0.8825,-0.8844,-0.9265,-1.0021,-1.0582,-1.1289,-1.1975,-1.3298,-1.3881,-1.398,-1.5267,-1.5833,-1.5852,-1.62,-1.6186,-1.6019,-1.5725,-1.5611,-1.5591,-1.5451,-1.5304,-1.5177,-1.5177,-1.4983,-1.4743,-1.4743,-1.4543,-1.4302,-1.4302,-1.4202,-1.4055,-1.3908,-1.3868,-1.3834,-1.3687,-1.354,-1.3387,-1.3387,-1.3313,-1.3166,-1.3013,-1.2898,-1.2737,-1.2589,-1.2405,-1.2305,-1.2305,-1.2305,-1.2305,-1.2305,-1.2305,-1.2305,-1.2305,-1.2305,-1.2482,-1.2952,-1.3419,-1.4099,-1.5084,-1.5614,-1.6289,-1.7251,-1.7285,-1.7501,-1.7974,-1.8008,-1.8008,-1.8008,-1.8008,-1.8008,-1.8008,-1.8008,-1.79,-1.7686,-1.7471,-1.7116,0.0,0.0,0.0,0.0,0.0,0.0,0.0,0.0,0.0,0.0,0.0,0.0,0.0,0.0,0.0,0.0,0.0,-0.0393,-0.1483,-0.3093,-0.4658,-0.5834,-0.7386,-0.8367,-0.8513,-0.8526,-0.8587,-0.8743,-0.8754,-0.8808,-0.8875,-0.8885,-0.8885,-0.8885,-0.8885,-0.8885,-0.8885,-0.8885,-0.8885,-0.894,-1.0076,-1.0676,-1.0726,-1.2186,-1.2891,-1.2935,-1.4139,-1.4821,-1.5058,-1.5764,-1.617,-1.6253,-1.6012,-1.5879,-1.5784,-1.5784,-1.5678,-1.5478,-1.5478,-1.5291,-1.5095,-1.5095,-1.485,-1.4596,-1.4536,-1.4355,-1.4162,-1.4102,-1.4088,-1.4088,-1.4088,-1.3908,-1.3686,-1.3686,-1.3513,-1.3367,-1.3307,-1.31,-1.2945,-1.2884,-1.263,-1.2385,-1.2385,-1.2338,-1.2305,-1.2305,-1.2305,-1.2305,-1.2305,-1.2305,-1.2305,-1.2305,-1.2989,-1.3491,-1.3673,-1.4629,-1.5517,-1.628,-1.6498,-1.6957,-1.7681,-1.7896,-1.8008,-1.8008,-1.8008,-1.8008,-1.8008,-1.8008,-1.8008,-1.8008,-1.8008,-1.7603,0.0,0.0,0.0,0.0,0.0,0.0,0.0,0.0,0.0,0.0,0.0,0.0,0.0,0.0,0.0,0.0,0.0,-0.005,-0.0205,-0.2527,-0.4337,-0.4638,-0.6937,-0.852,-0.8669,-0.8682,-0.875,-0.8848,-0.8858,-0.8865,-0.8881,-0.8885,-0.8885,-0.8885,-0.8885,-0.8885,-0.8885,-0.8885,-0.8885,-0.8885,-0.9047,-0.9154,-0.921,-1.0676,-1.1378,-1.1433,-1.2862,-1.4077,-1.5029,-1.5132,-1.5607,-1.6321,-1.6239,-1.6059,-1.5784,-1.5784,-1.5758,-1.5785,-1.5785,-1.5591,-1.5351,-1.5351,-1.515,-1.4908,-1.4603,-1.4496,-1.4422,-1.4162,-1.4088,-1.4088,-1.4088,-1.4062,-1.4041,-1.4041,-1.4015,-1.3921,-1.3613,-1.3527,-1.3427,-1.3206,-1.2945,-1.2737,-1.2737,-1.2516,-1.2305,-1.2305,-1.2305,-1.2305,-1.2305,-1.2305,-1.2305,-1.2305,-1.2372,-1.2806,-1.3637,-1.4629,-1.5234,-1.534,-1.614,-1.6636,-1.674,-1.7579,-1.8008,-1.8008,-1.8008,-1.8008,-1.8008,-1.8008,-1.8008,-1.8008,-1.8008,-1.7959,0.0,0.0,0.0,0.0,0.0,0.0,0.0,0.0,0.0,0.0,0.0,0.0,0.0,0.0,0.0,0.0,0.0,0.0,0.0,-0.2505,-0.4395,-0.4507,-0.6983,-0.8774,-0.8835,-0.879,-0.8814,-0.8878,-0.8885,-0.8885,-0.8885,-0.8885,-0.8885,-0.8885,-0.8885,-0.8885,-0.8885,-0.8885,-0.8885,-0.8885,-0.8885,-0.8885,-0.8937,-0.9537,-1.0296,-1.1105,-1.1755,-1.2783,-1.4023,-1.3778,-1.3918,-1.4327,-1.4843,-1.4949,-1.488,-1.5551,-1.5784,-1.5784,-1.5784,-1.5752,-1.5651,-1.5651,-1.5451,-1.5197,-1.507,-1.479,-1.4496,-1.4369,-1.4215,-1.4088,-1.4088,-1.4088,-1.4088,-1.4088,-1.4088,-1.4055,-1.3928,-1.3726,-1.3567,-1.3447,-1.322,-1.2998,-1.2817,-1.2683,-1.2536,-1.2325,-1.2305,-1.2305,-1.2305,-1.2305,-1.2305,-1.2305,-1.2305,-1.2445,-1.2842,-1.3273,-1.3738,-1.4271,-1.47,-1.5438,-1.6558,-1.7001,-1.7432,-1.7974,-1.8008,-1.8008,-1.8008,-1.8008,-1.8008,-1.8008,-1.8008,-1.8008,0.0,0.0,0.0,0.0,0.0,0.0,0.0,0.0,0.0,0.0,0.0,0.0,0.0,0.0,0.0,0.0,0.0,0.0,0.0,-0.2583,-0.4495,-0.4487,-0.7095,-0.8885,-0.8885,-0.8885,-0.8885,-0.8885,-0.8885,-0.8885,-0.8885,-0.8885,-0.8885,-0.8885,-0.8885,-0.8885,-0.8885,-0.8885,-0.8885,-0.8885,-0.8885,-0.8885,-0.8885,-0.8885,-0.9482,-1.0511,-1.0511,-1.1324,-1.266,-1.2452,-1.2515,-1.2843,-1.3426,-1.3624,-1.3688,-1.4419,-1.5194,-1.5784,-1.5784,-1.5784,-1.5784,-1.5784,-1.5691,-1.5504,-1.5424,-1.5097,-1.473,-1.4563,-1.4369,-1.4188,-1.4108,-1.4088,-1.4088,-1.4088,-1.4088,-1.4088,-1.4088,-1.3915,-1.3726,-1.3726,-1.3527,-1.326,-1.3033,-1.2965,-1.2811,-1.2509,-1.2425,-1.2392,-1.2311,-1.2305,-1.2305,-1.2305,-1.2305,-1.2305,-1.2305,-1.2305,-1.2592,-1.3273,-1.3564,-1.445,-1.614,-1.6463,-1.7035,-1.7974,-1.8008,-1.8008,-1.8008,-1.8008,-1.8008,-1.8008,-1.8008,-1.8008,0.0,0.0,0.0,0.0,0.0,0.0,0.0,0.0,0.0,0.0,0.0,0.0,0.0,0.0,0.0,0.0,0.0,0.0,0.0,-0.2602,-0.4514,-0.4505,-0.7091,-0.8885,0.0,-0.8885,-0.8885,-0.8885,-0.8885,-0.8885,-0.8885,-0.8885,-0.8885,-0.8885,-0.8885,-0.8885,-0.8885,-0.8885,-0.8885,-0.8885,-0.8885,-0.8885,-0.8885,-0.8885,-0.8937,-0.8992,-0.8992,-0.9805,-1.116,-1.1156,-1.1792,-1.2805,-1.2673,-1.2506,-1.2243,-1.2075,-1.3644,-1.5784,-1.5784,-1.5784,-1.5784,-1.5784,-1.5771,-1.5718,-1.5484,-1.5384,-1.5251,-1.4683,-1.4466,-1.4442,-1.4162,-1.4088,-1.4088,-1.4088,-1.4088,-1.4088,-1.4088,-1.4082,-1.4075,-1.4075,-1.3834,-1.3586,-1.358,-1.3347,-1.3093,-1.2817,-1.277,-1.2663,-1.2338,-1.2305,-1.2305,-1.2305,-1.2305,-1.2305,-1.2305,-1.2305,-1.2298,-1.2335,-1.3208,-1.4171,-1.5199,-1.6105,-1.7035,-1.7974,-1.8008,-1.8008,-1.8008,-1.8008,-1.8008,-1.8008,-1.8008,-1.8008,0.0,0.0,0.0,0.0,0.0,0.0,0.0,0.0,0.0,0.0,0.0,0.0,0.0,0.0,0.0,0.0,0.0,0.0,0.0,-0.2585,-0.4496,-0.4493,-0.71,0.0,0.0,0.0,-0.8885,-0.8885,-0.8885,-0.8885,-0.8885,-0.8885,-0.8885,-0.8885,-0.8885,-0.8885,-0.8885,-0.8885,-0.8885,-0.8885,-0.8885,-0.8885,-0.8885,-0.8885,-0.8885,-0.8885,-0.8885,-0.9154,-0.9644,-0.9644,-0.9881,-1.0299,-1.1018,-1.1189,-1.109,-1.1839,-1.2557,-1.3349,-1.422,-1.5099,-1.5784,-1.5784,-1.5784,-1.5764,-1.5712,-1.5545,-1.5357,-1.5157,-1.4816,-1.4496,-1.4402,-1.4229,-1.4088,-1.4088,-1.4088,-1.4088,-1.4088,-1.4088,-1.4088,-1.4088,-1.4008,-1.3874,-1.3633,-1.3527,-1.3327,-1.2857,-1.2616,-1.2418,-1.2311,-1.2305,-1.2305,-1.2305,-1.2305,-1.2305,-1.2305,-1.2305,-1.2305,-1.2305,-1.2592,-1.3484,-1.5128,-1.5517,-1.6402,-1.7974,-1.8008,-1.8008,-1.8008,-1.8008,-1.8008,-1.8008,-1.8008,-1.8008,-0.0626,-0.0941,-0.1076,-0.0225,-0.0314,-0.0539,-0.009,0.0,0.0,0.0,0.0,0.0,0.0,0.0,-0.015,-0.0655,-0.0706,-0.0711,-0.0724,-0.3307,-0.5018,-0.4566,-0.7128,-0.8885,0.0,0.0,0.0,-0.8885,-0.8885,-0.8885,-0.8885,-0.8885,-0.8885,-0.8885,-0.8885,-0.8885,-0.8885,-0.8885,-0.8885,-0.8885,-0.8885,-0.8885,-0.8885,-0.8885,-0.8885,-0.8885,-0.8885,-0.8885,-0.8885,-0.8885,-0.8885,-0.8978,-0.968,-0.9879,-0.9804,-1.0543,-1.0997,-1.1409,-1.2716,-1.3734,-1.4465,-1.4956,-1.5099,-1.5194,-1.5683,-1.5698,-1.5531,-1.5424,-1.5124,-1.4783,-1.4576,-1.4382,-1.4215,-1.4115,-1.4088,-1.4088,-1.4088,-1.4088,-1.4088,-1.4088,-1.4088,-1.4028,-1.3834,-1.3673,-1.3467,-1.3126,-1.2757,-1.2455,-1.2318,-1.2305,-1.2305,-1.2305,-1.2305,-1.2305,-1.2305,-1.2305,-1.2305,-1.2305,-1.2305,-1.3018,-1.4593,-1.5021,-1.5948,-1.7467,-1.7828,-1.8008,-1.8008,-1.8008,-1.8008,-1.8008,-1.8008,-1.8008,-0.1879,-0.2726,-0.3037,-0.0673,-0.0986,-0.1567,-0.0269,-0.0045,-0.009,0.0,0.0,0.0,0.0,0.0,-0.0395,-0.1704,-0.1911,-0.1874,-0.1907,-0.445,-0.5861,0.0,0.0,0.0,0.0,0.0,0.0,-0.8885,-0.8885,-0.8885,-0.8885,-0.8885,-0.8885,-0.8885,-0.8885,-0.8885,-0.8885,-0.8885,-0.8885,-0.8885,-0.8885,-0.8885,-0.8885,-0.8885,-0.8885,-0.8885,-0.8885,-0.8885,-0.8885,-0.8885,-0.8885,-0.8868,-0.8777,-0.8625,-0.8465,-0.8381,-0.8978,-1.0047,-1.1263,-1.1799,-1.2091,-1.3392,-1.3776,-1.4022,-1.5242,-1.5635,-1.563,-1.5398,-1.5358,-1.5271,-1.471,-1.4543,-1.4449,-1.4175,-1.4095,-1.4088,-1.4088,-1.4088,-1.4088,-1.4088,-1.4088,-1.4088,-1.4088,-1.3854,-1.362,-1.3606,-1.316,-1.2717,-1.2365,-1.2311,-1.2305,-1.2305,-1.2305,-1.2305,-1.2305,-1.2305,-1.2305,-1.2305,-1.2305,-1.2732,-1.3673,-1.4629,-1.5587,-1.6523,-1.7398,-1.7862,-1.794,-1.794,-1.794,-1.794,-1.794,-1.794,-0.3126,-0.3349,-0.3215,-0.1701,-0.2236,-0.2592,-0.0494,-0.0718,-0.1076,-0.018,0.0,0.0,0.0,0.0,-0.0098,-0.0444,-0.05,0.0,-0.0508,-0.2112,0.0,-0.4425,0.0,-0.771,-0.8816,-0.8885,0.0,-0.8885,-0.8885,-0.8885,-0.8885,-0.8885,-0.8885,-0.8885,-0.8885,-0.8885,-0.8885,-0.8885,-0.8885,-0.8885,-0.8885,-0.8885,-0.8885,-0.8885,-0.8885,-0.8885,-0.8885,-0.8885,-0.8885,-0.8885,-0.8885,-0.8878,-0.8841,-0.8716,-0.8479,-0.8442,-0.8466,-0.8577,-0.8871,-1.0288,-1.1945,-1.2285,-1.2431,-1.2479,-1.2818,-1.359,-1.4351,-1.4279,-1.4837,-1.5364,-1.5211,-1.485,-1.4502,-1.4429,-1.4249,-1.4088,-1.4088,-1.4088,-1.4088,-1.4088,-1.4088,-1.4088,-1.4088,-1.4021,-1.3901,-1.3633,-1.3473,-1.3227,-1.2737,-1.2438,-1.2305,-1.2305,-1.2305,-1.2305,-1.2305,-1.2305,-1.2305,-1.2305,-1.2305,-1.2732,-1.3673,-1.3962,-1.4557,-1.5552,-1.5799,-1.6263,-1.6957,-1.6957,-1.6957,-1.6957,-1.6957,-1.6957,-0.4374,-0.4774,-0.4727,-0.3037,-0.3482,-0.3751,-0.1344,-0.1299,-0.1478,-0.0269,0.0,0.0,0.0,0.0,-0.0192,0.0,0.0,0.0,-0.0856,-0.2148,-0.3165,0.0,-0.4826,0.0,-0.778,-0.734,-0.726,-0.7875,-0.8546,-0.8885,-0.8885,-0.8885,-0.8885,-0.8885,-0.8885,-0.8885,-0.8885,-0.8885,-0.8885,-0.8885,-0.8885,-0.8885,-0.8885,-0.8885,-0.8885,-0.8885,-0.8885,-0.8885,-0.8885,-0.8885,-0.8885,-0.8875,-0.8811,-0.8693,-0.8476,-0.8411,-0.8241,-0.7988,-0.7988,-0.897,-1.0288,-1.0877,-1.1072,-1.1165,-1.175,-1.2861,-1.3926,-1.3926,-1.4694,-1.5558,-1.5431,-1.5057,-1.4683,-1.4549,-1.4302,-1.4088,-1.4088,-1.4088,-1.4088,-1.4088,-1.4088,-1.4088,-1.4088,-1.4088,-1.4035,-1.3861,-1.3686,-1.348,-1.3186,-1.2766,-1.2536,-1.2536,-1.2378,-1.2305,-1.2305,-1.2305,-1.2305,-1.2305,-1.2305,-1.2556,-1.3062,-1.3491,-1.3962,-1.4522,-1.4985,-1.5446,-1.6009,-1.6009,-1.6009,-1.6009,-1.6009,-1.6009,-0.5625,-0.6337,-0.6558,-0.4372,-0.473,-0.4956,-0.237,-0.1924,-0.1657,-0.0269,0.0,0.0,0.0,0.0,-0.0374,-0.1545,0.0,-0.1722,-0.1751,-0.285,-0.3297,-0.2327,-0.3407,-0.4781,-0.6258,-0.5255,-0.5139,-0.6589,-0.7875,-0.8605,-0.8605,-0.8771,-0.8885,-0.8885,-0.8885,-0.8885,-0.8885,-0.8885,-0.8885,-0.8885,-0.8885,-0.8885,-0.8885,-0.8885,-0.8885,-0.8885,-0.8885,-0.8885,-0.8885,-0.8885,-0.8871,-0.8841,-0.8764,-0.8604,-0.8438,-0.8368,-0.8174,-0.7988,-0.7988,-0.7988,-0.8187,-0.9361,-0.9756,-0.9948,-1.1068,-1.2425,-1.3632,-1.3632,-1.4657,-1.5772,-1.5518,-1.5237,-1.4995,-1.4649,-1.4355,-1.4135,-1.4095,-1.4088,-1.4088,-1.4088,-1.4088,-1.4088,-1.4088,-1.4088,-1.4088,-1.4088,-1.3868,-1.366,-1.366,-1.318,-1.2844,-1.2844,-1.2579,-1.2425,-1.2425,-1.2425,-1.2425,-1.2425,-1.2385,-1.2365,-1.2365,-1.3119,-1.3528,-1.3528,-1.4378,-1.4879,-1.4985,-1.4985,-1.4985,-1.4985,-1.4985,-1.4985,-0.6782,-0.6962,-0.6782,-0.5445,-0.5935,-0.5935,-0.2549,-0.2592,0.0,0.0,0.0,0.0,0.0,0.0,-0.0093,-0.0327,-0.0336,-0.0344,-0.0345,-0.0551,-0.107,0.0,-0.2425,-0.3219,-0.4732,-0.4647,0.0,-0.6589,-0.6924,-0.7093,-0.7093,-0.8211,-0.8885,-0.8885,-0.8885,-0.8885,-0.8885,-0.8885,-0.8885,-0.8885,-0.8885,-0.8885,-0.8885,-0.8885,-0.8885,-0.8885,-0.8885,-0.8885,-0.8885,-0.8885,-0.8811,-0.8747,-0.872,-0.8543,-0.8354,-0.833,-0.8174,-0.7988,-0.7988,-0.7988,-0.8038,-0.8283,-0.8333,-0.8382,-0.8627,-1.0337,-1.2237,-1.2237,-1.398,-1.5771,-1.5718,-1.5538,-1.5251,-1.5001,-1.4663,-1.4382,-1.4135,-1.4088,-1.4088,-1.4088,-1.4088,-1.4088,-1.4088,-1.4088,-1.4088,-1.4088,-1.4041,-1.4008,-1.4008,-1.3494,-1.3126,-1.3126,-1.3086,-1.3053,-1.3053,-1.3053,-1.3053,-1.3053,-1.2851,-1.2703,-1.2703,-1.2618,-1.2556,-1.2556,-1.2696,-1.3164,-1.3954,-1.3954,-1.3954,-1.3954,-1.3954,-1.3954,-0.7078,-0.7095,-0.6962,-0.6428,-0.6694,-0.6334,-0.3393,0.0,0.0,0.0,0.0,0.0,0.0,0.0,0.0,0.0,0.0,0.0,0.0,0.0,-0.025,-0.0969,-0.1039,-0.1638,-0.3168,-0.2625,-0.277,-0.4241,-0.4355,-0.5359,-0.7706,-0.8491,-0.8885,-0.8885,-0.8885,-0.8885,-0.8885,-0.8885,-0.8885,-0.8885,-0.8885,-0.8885,-0.8885,-0.8885,-0.8885,-0.8885,-0.8885,-0.8838,-0.8818,-0.8818,-0.873,-0.8584,-0.8509,-0.8394,-0.8262,-0.818,-0.8102,-0.7988,-0.7988,-0.7988,-0.7988,-0.7988,-0.7988,-0.8137,-0.8825,-1.0386,-1.2042,-1.2721,-1.4322,-1.5784,-1.5784,-1.5611,-1.5324,-1.5075,-1.4623,-1.4255,-1.4115,-1.4088,-1.4088,-1.4088,-1.4088,-1.4088,-1.4088,-1.4088,-1.4088,-1.4088,-1.4088,-1.4088,-1.4088,-1.3841,-1.3607,-1.3413,-1.326,-1.3213,-1.3213,-1.3213,-1.3213,-1.3213,-1.3073,-1.3025,-1.3025,-1.2852,-1.2772,-1.2772,-1.2772,-1.3002,-1.3452,-1.3452,-1.3452,-1.3452,-1.3452,-1.3452,-0.7011,-0.7028,-0.7011,-0.7045,-0.7024,-0.6427,-0.4094,-0.3536,0.0,-0.049,0.0,0.0,0.0,0.0,0.0,0.0,0.0,0.0,0.0,0.0,0.0,0.0,0.0,0.0,-0.1638,-0.0702,0.0,-0.2112,-0.2787,-0.4688,-0.8266,-0.8716,-0.8885,-0.8885,-0.8885,-0.8885,-0.8885,-0.8885,-0.8885,-0.8885,-0.8885,-0.8885,-0.8885,-0.8885,-0.8865,-0.8834,-0.8834,-0.8804,-0.8662,-0.8662,-0.8574,-0.8425,-0.8368,-0.8252,-0.8208,-0.8032,-0.7988,-0.7988,-0.7988,-0.7988,-0.7988,-0.7988,-0.7988,-0.8237,-0.9608,-1.0877,-1.2188,-1.3536,-1.4806,-1.5784,-1.5784,-1.5658,-1.5398,-1.5095,-1.4559,-1.4088,-1.4088,-1.4088,-1.4088,-1.4088,-1.4088,-1.4088,-1.4088,-1.4088,-1.4088,-1.4088,-1.4088,-1.4088,-1.4088,-1.4088,-1.4001,-1.372,-1.3534,-1.3394,-1.3394,-1.3394,-1.3394,-1.3394,-1.334,-1.3307,-1.3307,-1.324,-1.3213,-1.3213,-1.3213,-1.3213,-1.3213,-1.3213,-1.3213,-1.3213,-1.3213,-1.3213,-0.6866,-0.6848,-0.6773,-0.6869,-0.6844,-0.6148,-0.3916,0.0,-0.2694,-0.048,0.0,0.0,0.0,0.0,0.0,0.0,0.0,0.0,0.0,0.0,0.0,0.0,0.0,0.0,-0.0208,-0.0054,-0.0602,-0.2078,-0.4762,-0.6478,-0.6869,-0.8156,-0.8885,-0.8885,-0.8885,-0.8885,-0.8885,-0.8885,-0.8885,-0.8885,-0.8885,-0.8885,-0.8885,-0.8885,-0.8807,-0.873,-0.873,-0.8645,-0.8503,-0.8503,-0.8418,-0.834,-0.8327,-0.8184,-0.8008,-0.7995,-0.7988,-0.7988,-0.7988,-0.7988,-0.7988,-0.7988,-0.7988,-0.8237,-0.9608,-1.0877,-1.2188,-1.3536,-1.4806,-1.5784,-1.5784,-1.5764,-1.5651,-1.5142,-1.4559,-1.4088,-1.4088,-1.4088,-1.4088,-1.4088,-1.4088,-1.4088,-1.4088,-1.4088,-1.4088,-1.4088,-1.4088,-1.4088,-1.4088,-1.4088,-1.4075,-1.4048,-1.4021,-1.4008,-1.4008,-1.4008,-1.4008,-1.4008,-1.3713,-1.356,-1.356,-1.3313,-1.3213,-1.3213,-1.3213,-1.3213,-1.3213,-1.3213,-1.3213,-1.3213,-1.3213,-1.3213,-0.6749,-0.6746,-0.6715,-0.6776,-0.6746,-0.6111,-0.3895,0.0,-0.2686,-0.0477,0.0,0.0,0.0,0.0,0.0,0.0,0.0,0.0,0.0,-0.071,-0.092,-0.0098,-0.0702,0.0,0.0,0.0,-0.0588,-0.2071,-0.4979,-0.6702,-0.6702,-0.8097,-0.8885,-0.8885,-0.8885,-0.8885,-0.8885,-0.8885,-0.8838,-0.8801,-0.8801,-0.8754,-0.8665,-0.8665,-0.8632,-0.8574,-0.8574,-0.8489,-0.8357,-0.8357,-0.8265,-0.8133,-0.8133,-0.8096,-0.7988,-0.7988,-0.7988,-0.7988,-0.7988,-0.7988,-0.7988,-0.7988,-0.7988,-0.8237,-0.9608,-1.0877,-1.2188,-1.3536,-1.4806,-1.5784,-1.5784,-1.5571,-1.5251,-1.5062,-1.4559,-1.4088,-1.4088,-1.4088,-1.4088,-1.4088,-1.4088,-1.4088,-1.4088,-1.4088,-1.4088,-1.4088,-1.4088,-1.4088,-1.4088,-1.4088,-1.4088,-1.4088,-1.4088,-1.4088,-1.4088,-1.4088,-1.4088,-1.4088,-1.3975,-1.3908,-1.3908,-1.3801,-1.3734,-1.3734,-1.3734,-1.3734,-1.3734,-1.3734,-1.3734,-1.3734,-1.3734,-1.3734,-0.659,-0.6603,-0.658,-0.6624,-0.6603,-0.5994,0.0,0.0,-0.2626,-0.0468,0.0,0.0,0.0,0.0,0.0,0.0,0.0,0.0,0.0,-0.0793,-0.1046,-0.0097,0.0,-0.1459,-0.0154,0.0,-0.063,-0.2107,-0.4537,-0.616,-0.66,-0.7977,-0.8825,-0.8814,-0.8817,-0.8849,-0.8804,-0.8804,-0.875,-0.8645,-0.8645,-0.8584,-0.8482,-0.8482,-0.8459,-0.8421,-0.8421,-0.8336,-0.8204,-0.8204,-0.8136,-0.7988,-0.7988,-0.7988,-0.7988,-0.7988,-0.7988,-0.7988,-0.7988,-0.7988,-0.7988,-0.7988,-0.7988,-0.8187,-0.9118,-1.0288,-1.1604,-1.2958,-1.3932,-1.4758,-1.5146,-1.4591,-1.3902,-1.3902,-1.3748,-1.3561,-1.3561,-1.3864,-1.4088,-1.4088,-1.4088,-1.4088,-1.4088,-1.4088,-1.4088,-1.4088,-1.4088,-1.4088,-1.4088,-1.4088,-1.4088,-1.4088,-1.4088,-1.4088,-1.4088,-1.4088,-1.4088,-1.4088,-1.4088,-1.4088,-1.4088,-1.4088,-1.4088,-1.4088,-1.4088,-1.4088,-1.4088,-1.4088,-1.4088,-1.4088,-1.4088,-1.4088,-0.6474,-0.6412,-0.6337,-0.6477,-0.6409,-0.575,0.0,-0.3104,-0.251,-0.0447,0.0,0.0,0.0,0.0,0.0,0.0,0.0,0.0,0.0,0.0,0.0,0.0,0.0,-0.148,-0.0151,0.0,-0.0627,-0.2072,-0.3452,-0.488,-0.6416,-0.7796,-0.8557,-0.871,-0.8713,-0.8638,-0.8489,-0.8486,-0.8486,-0.8482,-0.8482,-0.8482,-0.8482,-0.8482,-0.8408,-0.8323,-0.8323,-0.8184,-0.7992,-0.7992,-0.7992,-0.7988,-0.7988,-0.7988,-0.7988,-0.7988,-0.7988,-0.7988,-0.7988,-0.7988,-0.7988,-0.7988,-0.7988,-0.7988,-0.8041,-0.897,-1.0288,-1.1556,-1.1945,-1.2237,-1.359,-1.2648,-1.1329,-1.1329,-1.1822,-1.2328,-1.2328,-1.3252,-1.4088,-1.4088,-1.4088,-1.4088,-1.4088,-1.4088,-1.4088,-1.4088,-1.4088,-1.4088,-1.4088,-1.4088,-1.4088,-1.4088,-1.4088,-1.4088,-1.4088,-1.4088,-1.4088,-1.4088,-1.4088,-1.4088,-1.4088,-1.4088,-1.4088,-1.4088,-1.4088,-1.4088,-1.4088,-1.4088,-1.4088,-1.4088,-1.4088,-1.4088,-0.6354,-0.6334,-0.631,-0.6358,-0.5779,-0.4844,-0.3435,-0.2556,-0.1671,-0.0284,0.0,0.0,0.0,0.0,0.0,0.0,0.0,0.0,0.0,0.0,0.0,-0.0095,-0.0392,-0.0451,0.0,-0.0923,-0.1713,-0.2191,-0.3585,-0.4614,-0.5092,-0.5514,-0.6643,-0.8501,-0.8554,-0.853,-0.8482,-0.8482,-0.8431,-0.8336,-0.8336,-0.8282,-0.818,-0.818,-0.8153,-0.8113,-0.8113,-0.8085,-0.7988,-0.7988,-0.7988,-0.7988,-0.7988,-0.7988,-0.7988,-0.7988,-0.7988,-0.7988,-0.7988,-0.7988,-0.7988,-0.7988,-0.7988,-0.7988,-0.7988,-0.8924,-1.0293,-1.1556,-1.1896,-1.1994,-1.2431,-1.1895,-1.1283,-1.1283,-1.1206,-1.1123,-1.1123,-1.2035,-1.2851,-1.2851,-1.2851,-1.3118,-1.3955,-1.3421,-1.316,-1.3997,-1.4088,-1.4088,-1.4088,-1.4088,-1.4088,-1.4088,-1.4088,-1.4088,-1.4088,-1.4088,-1.4088,-1.4088,-1.4088,-1.4088,-1.4088,-1.4088,-1.4088,-1.4088,-1.4088,-1.4088,-1.4088,-1.4088,-1.4088,-1.4088,-1.4088,-1.4088,0.0,-0.63,-0.63,-0.63,-0.5786,0.0,-0.3435,-0.2618,-0.1769,-0.028,0.0,0.0,0.0,0.0,0.0,0.0,0.0,0.0,0.0,0.0,0.0,-0.0807,0.0,0.0,0.0,-0.1121,-0.1384,-0.1384,-0.2741,-0.3536,-0.3536,-0.4055,-0.5091,-0.6749,-0.737,-0.7898,-0.8316,-0.8316,-0.8272,-0.8184,-0.8184,-0.8133,-0.7988,-0.7988,-0.7988,-0.7988,-0.7988,-0.7988,0.0,-0.7988,-0.7988,-0.7988,-0.7988,-0.7988,-0.7988,-0.7988,-0.7988,-0.7988,-0.7988,-0.7988,-0.7988,-0.7988,-0.7988,-0.7988,-0.7988,-0.8577,-0.9509,-1.0828,-1.0828,-1.0534,-1.1068,-1.053,-0.9904,-0.9904,-0.9916,-0.9966,-0.9966,-1.0869,-1.1809,-1.2237,-1.2285,-1.2674,-1.3913,-1.347,-1.3245,-1.3997,-1.4088,-1.4088,-1.4088,-1.4088,-1.4088,-1.4088,-1.4088,-1.4088,-1.4088,-1.4088,-1.4088,-1.4088,-1.4088,-1.4088,-1.4088,-1.4088,-1.4088,-1.4088,-1.4088,-1.4088,-1.4088,-1.4088,-1.4088,-1.4088,-1.4088,-1.4088,0.0,-0.63,-0.63,0.0,0.0,0.0,-0.3552,-0.3046,0.0,-0.0431,0.0,0.0,0.0,0.0,0.0,0.0,0.0,0.0,0.0,0.0,0.0,0.0,-0.0739,-0.0504,-0.1762,-0.0706,0.0,0.0,-0.1159,-0.1862,-0.1862,-0.3015,-0.3765,-0.3865,-0.5256,-0.6588,-0.7839,-0.7939,-0.7988,-0.7988,-0.7988,-0.7988,-0.7988,-0.7988,-0.7988,-0.7988,-0.7988,-0.7988,-0.7988,-0.7988,-0.7988,-0.7988,-0.7988,-0.7988,-0.7988,-0.7988,-0.7988,-0.7988,-0.7988,-0.7988,-0.7988,-0.7988,-0.7988,-0.7988,-0.7988,-0.7988,-0.8237,-0.9509,-0.897,-0.8283,-0.9509,-0.8727,-0.76,-0.76,-0.8178,-0.8803,-0.889,-0.9797,-1.0956,-1.2072,-1.2285,-1.2674,-1.3913,-1.4046,-1.3997,-1.4088,-1.4088,-1.4088,-1.4088,-1.4088,-1.4088,-1.4088,-1.4088,-1.4088,-1.4088,-1.4088,-1.4088,-1.4088,-1.4088,-1.4088,-1.4088,-1.4088,-1.4088,-1.4088,-1.4088,-1.4088,-1.4088,-1.4088,-1.4088,-1.4088,-1.4088,-1.4088,-0.63,0.0,-0.63,-0.63,-0.567,-0.4727,0.0,-0.2501,-0.1567,-0.0275,0.0,0.0,0.0,0.0,0.0,0.0,0.0,0.0,0.0,0.0,0.0,-0.0428,-0.0195,-0.0099,-0.0453,-0.0202,0.0,0.0,-0.0303,-0.0454,-0.0454,-0.0756,-0.141,-0.2414,-0.2827,-0.4137,-0.6431,-0.7487,-0.7988,-0.7988,-0.7988,-0.7988,-0.7988,-0.7988,-0.7988,-0.7988,-0.7988,-0.7988,-0.7988,-0.7988,-0.7988,-0.7988,-0.7988,-0.7988,-0.7988,-0.7988,-0.7988,-0.7988,-0.7988,-0.7988,-0.7988,-0.7988,-0.7988,-0.7988,-0.7988,-0.7988,-0.8088,-0.8382,-0.8237,-0.8088,-0.8382,-0.8059,-0.76,-0.76,-0.7545,-0.7797,-0.8715,-0.9797,-1.0956,-1.2072,-1.2285,-1.2674,-1.3913,-1.3336,-1.3033,-1.3955,-1.4088,-1.4088,-1.4088,-1.4088,-1.4088,-1.4088,-1.4088,-1.4088,-1.4088,-1.4088,-1.4088,-1.4088,-1.4088,-1.4088,-1.4088,-1.4088,-1.4088,-1.4088,-1.4088,-1.4088,-1.4088,-1.4088,-1.4088,-1.4088,-1.4088,-1.4088,-0.63,-0.63,-0.63,-0.63,-0.5512,-0.4414,-0.3357,0.0,0.0,0.0,0.0,0.0,0.0,0.0,0.0,0.0,0.0,0.0,0.0,0.0,0.0,0.0,0.0,0.0,0.0,0.0,0.0,0.0,0.0,0.0,0.0,0.0,-0.0353,-0.1058,-0.1661,-0.3016,-0.5072,-0.6429,-0.7083,-0.7083,-0.7686,-0.7988,-0.7988,-0.7988,-0.7988,-0.7988,-0.7988,-0.7988,-0.7988,-0.7988,-0.7988,-0.7988,-0.7988,-0.7988,-0.7988,-0.7988,-0.7988,-0.7988,-0.7988,-0.7988,-0.7988,-0.7988,-0.7988,-0.7988,-0.7988,-0.7988,-0.7988,-0.7988,-0.7988,-0.7975,-0.7904,-0.777,-0.7584,-0.7512,-0.7715,-0.7973,-0.8061,-0.9401,-1.0783,-1.1381,-1.1943,-1.2674,-1.3913,-1.3555,-1.3336,-1.3997,-1.3646,-1.3288,-1.3288,-1.3288,-1.3288,-1.3288,-1.3779,-1.4088,-1.4088,-1.4088,-1.4088,-1.4088,-1.4088,-1.4088,-1.4088,-1.4088,-1.4088,-1.4088,-1.4088,-1.4088,-1.4088,-1.4088,-1.4088,-1.4088,-1.4088,-1.4088,-0.63,-0.618,-0.6103,-0.6261,-0.5628,-0.4608,0.0,0.0,0.0,0.0,0.0,0.0,0.0,0.0,0.0,0.0,0.0,0.0,0.0,0.0,0.0,0.0,0.0,0.0,0.0,0.0,0.0,0.0,0.0,0.0,0.0,0.0,0.0,0.0,-0.1109,-0.2264,-0.3364,-0.4922,-0.5777,-0.6029,-0.7132,-0.7789,-0.7988,-0.7988,-0.7988,-0.7988,-0.7988,-0.7988,-0.7988,-0.7988,-0.7988,-0.7988,-0.7988,-0.7988,-0.7988,-0.7988,-0.7988,-0.7988,-0.7988,-0.7988,-0.7988,-0.7988,-0.7988,-0.7985,-0.7961,-0.7955,-0.7951,-0.7928,-0.7938,-0.7921,-0.7818,-0.7672,-0.7533,-0.745,-0.8009,-0.8408,-0.7533,-0.8921,-1.0394,-1.0567,-1.1381,-1.2376,-1.3385,-1.3561,-1.3561,-1.3561,-1.2681,-1.2029,-1.2029,-1.2029,-1.2029,-1.2029,-1.2948,-1.3652,-1.3822,-1.3822,-1.3906,-1.4088,-1.4088,-1.4088,-1.4088,-1.4088,-1.4088,-1.4088,-1.4088,-1.4088,-1.4088,-1.4088,-1.4088,-1.4088,-1.4088,-1.4088,-0.63,-0.5628,-0.5157,-0.6064,-0.618,-0.555,0.0,0.0,0.0,0.0,0.0,0.0,0.0,0.0,0.0,0.0,0.0,0.0,0.0,0.0,0.0,0.0,0.0,0.0,0.0,0.0,0.0,0.0,0.0,0.0,0.0,0.0,0.0,0.0,-0.0202,-0.0404,-0.0605,-0.3065,-0.487,-0.5979,-0.6229,-0.6883,-0.7988,-0.7988,-0.7988,-0.7988,-0.7988,-0.7988,-0.7988,-0.7988,-0.7988,-0.7988,-0.7988,-0.7988,-0.7988,-0.7988,-0.7988,-0.7988,-0.7988,-0.7988,-0.7988,-0.7988,-0.7988,-0.7965,-0.7885,-0.7845,-0.7821,-0.7702,-0.7753,-0.7814,-0.7672,-0.7519,-0.7446,-0.7422,-0.7386,-0.7621,-0.8452,-0.889,-0.9449,-1.0394,-1.074,-1.0913,-1.1128,-1.1128,-1.1128,-1.1128,-1.0999,-1.0864,-1.0864,-1.0864,-1.0864,-1.0864,-1.1042,-1.1515,-1.2504,-1.2589,-1.3027,-1.4039,-1.4088,-1.4088,-1.4088,-1.4088,-1.4088,-1.4088,-1.4088,-1.4088,-1.4088,-1.4088,-1.4088,-1.4088,-1.4088,-1.4088,-0.63,-0.5944,-0.555,-0.547,-0.4574,-0.3519,0.0,0.0,0.0,0.0,0.0,0.0,0.0,0.0,0.0,0.0,0.0,0.0,0.0,0.0,0.0,0.0,0.0,0.0,0.0,0.0,0.0,0.0,0.0,0.0,0.0,0.0,0.0,0.0,0.0,0.0,0.0,-0.1221,-0.2513,-0.3869,-0.457,-0.5625,-0.6933,-0.6933,-0.7335,-0.7988,-0.7988,-0.7988,-0.7988,-0.7988,-0.7988,-0.7988,-0.7988,-0.7988,-0.7988,-0.7988,-0.7938,-0.7916,-0.7916,-0.7865,-0.7801,-0.7801,-0.7801,-0.7787,-0.7719,-0.7695,-0.7665,-0.7516,-0.7584,-0.7662,-0.7516,-0.7424,-0.7395,-0.7265,-0.7675,-0.8061,-0.7929,-0.8925,-0.9797,-0.9705,-1.0178,-1.0611,-1.0611,-1.0611,-1.0611,-1.0611,-1.0096,-0.9666,-0.9666,-0.9666,-0.9666,-0.9666,-1.0226,-1.0826,-1.1338,-1.1381,-1.2163,-1.3997,-1.4088,-1.4088,-1.4088,-1.4088,-1.4088,-1.4088,-1.4088,-1.4088,-1.4088,-1.4088,-1.4088,-1.4088,-1.4088,-1.4088,-0.6289,-0.6103,-0.5709,-0.4921,0.0,0.0,0.0,0.0,0.0,0.0,0.0,0.0,0.0,-0.0394,0.0,-0.0042,0.0,0.0,0.0,0.0,0.0,0.0,0.0,0.0,0.0,0.0,0.0,0.0,0.0,0.0,0.0,0.0,0.0,0.0,0.0,0.0,0.0,0.0,-0.0677,-0.2036,-0.3026,-0.4362,-0.595,-0.595,-0.6645,-0.7887,-0.7887,-0.7887,-0.7887,-0.7887,-0.7887,-0.7887,-0.7887,-0.7887,-0.7887,-0.7887,-0.7862,-0.7763,-0.7763,-0.7692,-0.76,-0.76,-0.76,-0.7594,-0.7556,-0.7546,-0.7512,-0.736,-0.7404,-0.7465,-0.7346,-0.7319,-0.7288,-0.7125,-0.7797,-0.8233,-0.7316,-0.8532,-0.9531,-0.8667,-0.9187,-0.9788,-0.9788,-0.9788,-0.9788,-0.9788,-0.9056,-0.8496,-0.8496,-0.8496,-0.8496,-0.8496,-0.927,-0.9874,-1.0178,-1.0438,-1.1391,-1.3173,-1.33,-1.33,-1.33,-1.33,-1.3428,-1.3688,-1.3688,-1.3822,-1.4088,-1.4088,-1.4088,-1.4088,-1.4088,-1.4088,-0.6259,-0.5589,-0.4805,-0.4727,-0.5354,0.0,-0.2271,-0.2268,0.0,-0.0392,0.0,0.0,0.0,-0.1477,-0.1144,-0.0168,0.0,0.0,0.0,0.0,0.0,0.0,0.0,0.0,0.0,0.0,0.0,0.0,0.0,0.0,0.0,0.0,0.0,0.0,0.0,0.0,0.0,0.0,-0.0668,-0.2007,-0.2103,-0.3434,-0.5808,-0.5808,-0.6478,-0.7631,-0.7631,-0.7631,-0.7631,-0.7631,-0.7631,-0.7631,-0.7631,-0.7631,-0.7631,-0.7631,-0.7624,-0.7614,-0.7614,-0.7607,-0.76,-0.76,-0.76,-0.7573,-0.7431,-0.7433,-0.7356,-0.7156,-0.7122,-0.7125,-0.7115,-0.7112,-0.7109,-0.7098,-0.7183,-0.7183,-0.7139,-0.7228,-0.7312,-0.7228,-0.7312,-0.7356,-0.7356,-0.7356,-0.7356,-0.7356,-0.7272,-0.7228,-0.7228,-0.7228,-0.7228,-0.7228,-0.7316,-0.7793,-0.8934,-1.0009,-1.0654,-1.0826,-1.0869,-1.0869,-1.0869,-1.0869,-1.1343,-1.2413,-1.2413,-1.2984,-1.4088,-1.4088,-1.4088,-1.4088,-1.4088,-1.4088,-0.6101,-0.5407,-0.4688,-0.4688,-0.5002,0.0,0.0,-0.188,-0.1957,-0.1176,-0.0471,0.0,0.0,0.0,-0.0453,-0.0085,0.0,0.0,0.0,0.0,0.0,0.0,0.0,0.0,0.0,0.0,0.0,0.0,0.0,0.0,0.0,0.0,0.0,0.0,0.0,0.0,0.0,0.0,-0.0276,-0.0735,-0.0753,-0.1713,-0.3468,-0.4222,-0.5266,-0.6499,-0.7265,-0.76,-0.76,-0.76,-0.76,-0.76,-0.76,-0.76,-0.76,-0.76,-0.7539,-0.7458,-0.7458,-0.7394,-0.7267,-0.7267,-0.7267,-0.7257,-0.7244,-0.7227,-0.7214,-0.7112,-0.7095,-0.7095,-0.7095,-0.7095,-0.7095,-0.7095,-0.7095,-0.7095,-0.7095,-0.7095,-0.7095,-0.7095,-0.7095,-0.7095,-0.7095,-0.7095,-0.7095,-0.7095,-0.7095,-0.7095,-0.7095,-0.7095,-0.7095,-0.7095,-0.7095,-0.7272,-0.7753,-0.8185,-0.8444,-0.8444,-0.9788,-1.0611,-1.0611,-1.0611,-1.0783,-1.1209,-1.1943,-1.22,-1.1912,-1.3385,-1.3688,-1.2984,-1.3737,-1.4088,-0.5526,-0.5138,-0.4611,0.0,0.0,0.0,-0.2075,-0.1841,-0.1879,-0.1215,-0.1065,0.0,-0.012,0.0,0.0,0.0,0.0,0.0,0.0,0.0,0.0,0.0,0.0,0.0,0.0,0.0,0.0,0.0,0.0,0.0,0.0,0.0,0.0,0.0,0.0,0.0,0.0,0.0,0.0,0.0,0.0,-0.0701,-0.1962,-0.2798,-0.3866,-0.5164,-0.638,-0.6894,-0.6944,-0.7316,-0.7455,-0.7455,-0.7455,-0.7455,-0.7455,-0.7455,-0.7387,-0.7299,-0.7299,-0.7227,-0.7095,-0.7095,-0.7095,-0.7095,-0.7095,-0.7095,-0.7095,-0.7095,-0.7095,-0.7095,-0.7095,-0.7095,-0.7095,-0.7095,-0.7095,-0.7095,-0.7095,-0.7095,-0.7095,-0.7095,-0.7095,-0.7095,-0.7095,-0.7095,-0.7095,-0.7095,-0.7095,-0.7095,-0.7095,-0.7095,-0.7095,-0.7095,-0.7095,-0.7095,-0.7095,-0.7095,-0.7095,-0.7095,-0.8615,-0.9483,-0.9483,-0.9483,-0.9657,-1.0053,-1.0826,-1.1209,-1.1123,-1.2729,-1.3294,-1.2899,-1.3737,-1.4088,-0.4447,-0.4596,-0.4411,0.0,0.0,0.0,-0.2075,-0.2386,-0.25,-0.0431,0.0,-0.2694,-0.0434,-0.1782,0.0,-0.0338,0.0,0.0,0.0,0.0,0.0,0.0,0.0,0.0,0.0,0.0,0.0,0.0,0.0,0.0,0.0,0.0,0.0,0.0,0.0,0.0,0.0,0.0,0.0,0.0,0.0,-0.0628,-0.179,-0.179,-0.2458,-0.3659,-0.4865,-0.5403,-0.5492,-0.665,-0.7095,-0.7095,-0.7095,-0.7095,-0.7095,-0.7095,-0.7095,-0.7095,-0.7095,-0.7095,-0.7095,-0.7095,-0.7095,-0.7095,-0.7095,-0.7095,-0.7095,-0.7095,-0.7095,-0.7095,-0.7095,-0.7095,-0.7095,-0.7095,-0.7095,-0.7095,-0.7095,-0.7095,-0.7095,-0.7095,-0.7095,-0.7095,-0.7095,-0.7095,-0.7095,-0.7095,-0.7095,-0.7095,-0.7095,-0.7095,-0.7095,-0.7095,-0.7095,-0.7095,-0.7095,-0.7095,-0.7095,-0.7095,-0.7095,-0.7095,-0.7095,-0.7095,-0.7665,-0.8846,-0.889,-1.0009,-1.2285,-1.2279,-1.2893,-1.4088,-1.4088,-1.4088,-0.5391,-0.4445,0.0,-0.4085,0.0,0.0,0.0,-0.2386,0.0,0.0,-0.1655,-0.1707,-0.0281,-0.0532,0.0,-0.0086,0.0,0.0,0.0,0.0,0.0,0.0,0.0,0.0,0.0,0.0,0.0,0.0,0.0,0.0,0.0,0.0,0.0,0.0,0.0,0.0,0.0,0.0,0.0,0.0,0.0,-0.018,-0.0584,-0.1433,-0.2013,-0.2413,-0.3616,-0.4596,-0.5492,-0.665,-0.7095,-0.7095,-0.7095,-0.7095,-0.7095,-0.7095,-0.7095,-0.7095,-0.7095,-0.7095,-0.7095,-0.7095,-0.7095,-0.7095,-0.7095,-0.7095,-0.7095,-0.7095,-0.7095,-0.7095,-0.7095,-0.7095,-0.7095,-0.7095,-0.7095,-0.7095,-0.7095,-0.7095,-0.7095,-0.7095,-0.7095,-0.7095,-0.7095,-0.7095,-0.7095,-0.7095,-0.7095,-0.7095,-0.7095,-0.7095,-0.7095,-0.7095,-0.7095,-0.7095,-0.7095,-0.7095,-0.7095,-0.7095,-0.7095,-0.7095,-0.7095,-0.7095,-0.7272,-0.7621,-0.8452,-0.9235,-0.9923,-1.1509,-1.2498,-1.2851,-1.3688,-1.4088,-0.4086,-0.3227,0.0,-0.2764,-0.2215,-0.1607,-0.1607,0.0,0.0,0.0,-0.1342,-0.1353,-0.02,-0.0407,-0.0539,-0.0084,0.0,0.0,0.0,0.0,0.0,0.0,0.0,0.0,0.0,0.0,0.0,0.0,0.0,0.0,0.0,0.0,0.0,0.0,0.0,0.0,0.0,0.0,0.0,0.0,0.0,0.0,-0.0044,-0.076,-0.1076,-0.1165,-0.237,-0.384,-0.5447,-0.616,-0.6694,-0.7095,-0.7095,-0.7095,-0.7095,-0.7095,-0.7095,-0.7095,-0.7095,-0.7095,-0.7095,-0.7095,-0.7095,-0.7095,-0.7095,-0.7095,-0.7095,-0.7095,-0.7095,-0.7095,-0.7095,-0.7095,-0.7095,-0.7095,-0.7095,-0.7095,-0.7095,-0.7095,-0.7095,-0.7095,-0.7095,-0.7095,-0.7095,-0.7095,-0.7095,-0.7095,-0.7095,-0.7095,-0.7095,-0.7095,-0.7095,-0.7095,-0.7095,-0.7095,-0.7095,-0.7095,-0.7095,-0.7095,-0.7095,-0.7095,-0.7095,-0.7095,-0.7095,-0.7095,-0.7797,-0.8408,-0.889,-1.0265,-1.1166,-1.1638,-1.2382,-1.2693,-0.1779,0.0,0.0,-0.0378,-0.0809,0.0,-0.145,-0.0706,-0.0039,-0.0118,0.0,-0.1285,-0.0197,-0.0893,-0.1285,-0.0163,0.0,0.0,0.0,0.0,0.0,0.0,0.0,0.0,0.0,0.0,0.0,0.0,0.0,0.0,0.0,0.0,0.0,0.0,0.0,0.0,0.0,0.0,0.0,0.0,0.0,0.0,0.0,0.0,0.0,-0.0045,-0.1254,-0.304,-0.5092,-0.5314,-0.6027,-0.6962,-0.7051,-0.7095,-0.7095,-0.7095,-0.7095,-0.7095,-0.7095,-0.7095,-0.7095,-0.7095,-0.7095,-0.7095,-0.7095,-0.7095,-0.7095,-0.7095,-0.7095,-0.7095,-0.7095,-0.7095,-0.7095,-0.7095,-0.7095,-0.7095,-0.7095,-0.7095,-0.7095,-0.7095,-0.7095,-0.7095,-0.7095,-0.7095,-0.7095,-0.7095,-0.7095,-0.7095,-0.7095,-0.7095,-0.7095,-0.7095,-0.7095,-0.7095,-0.7095,-0.7095,-0.7095,-0.7095,-0.7095,-0.7095,-0.7095,-0.7095,-0.7095,-0.7095,-0.7095,-0.7709,-0.889,-0.889,-0.9492,-1.0611,-1.0611,-1.0611,-0.3606,-0.2498,0.0,0.0,-0.0809,-0.0353,-0.0353,-0.0157,-0.0236,-0.1097,-0.0787,-0.0316,-0.0039,-0.0198,-0.032,-0.0041,0.0,0.0,0.0,0.0,0.0,0.0,0.0,0.0,0.0,0.0,0.0,0.0,0.0,0.0,0.0,0.0,0.0,0.0,0.0,0.0,0.0,0.0,0.0,0.0,0.0,0.0,0.0,0.0,0.0,-0.0045,-0.1254,-0.2103,-0.2727,-0.4601,-0.5536,-0.5849,-0.6738,-0.7095,-0.7095,-0.7095,-0.7095,-0.7095,-0.7095,-0.7095,-0.7095,-0.7095,-0.7095,-0.7095,-0.7095,-0.7095,-0.7095,-0.7095,-0.7095,-0.7095,-0.7095,-0.7095,-0.7095,-0.7095,-0.7095,-0.7095,-0.7095,-0.7095,-0.7095,-0.7095,-0.7095,-0.7095,-0.7095,-0.7095,-0.7095,-0.7095,-0.7095,-0.7095,-0.7095,-0.7095,-0.7095,-0.7095,-0.7095,-0.7095,-0.7095,-0.7095,-0.7095,-0.7095,-0.7095,-0.7095,-0.7095,-0.7095,-0.7095,-0.7095,-0.7095,-0.7709,-0.889,-0.889,-0.9492,-1.0611,-1.0611,-1.0611,-0.3031,0.0,0.0,-0.0919,0.0,0.0,0.0,0.0,-0.0157,-0.0706,-0.0392,0.0,0.0,0.0,0.0,0.0,0.0,0.0,0.0,0.0,0.0,0.0,0.0,0.0,0.0,0.0,0.0,0.0,0.0,0.0,0.0,0.0,0.0,0.0,0.0,0.0,0.0,0.0,0.0,0.0,0.0,0.0,0.0,0.0,0.0,-0.0044,-0.0653,-0.126,-0.1954,-0.3769,-0.4883,-0.5504,-0.6669,-0.7095,-0.7095,-0.7095,-0.7095,-0.7095,-0.7095,-0.7095,-0.7095,-0.7095,-0.7095,-0.7095,-0.7095,-0.7095,-0.7095,-0.7095,-0.7095,-0.7095,-0.7095,-0.7095,-0.7095,-0.7095,-0.7095,-0.7095,-0.7095,-0.7095,-0.7095,-0.7095,-0.7095,-0.7095,-0.7095,-0.7095,-0.7095,-0.7095,-0.7095,-0.7095,-0.7095,-0.7095,-0.7095,-0.7095,-0.7095,-0.7095,-0.7095,-0.7095,-0.7095,-0.7095,-0.7095,-0.7095,-0.7095,-0.7095,-0.7095,-0.7095,-0.7095,-0.7401,-0.8057,-0.8057,-0.836,-0.8921,-0.8921,-0.8921,-0.2177,0.0,-0.1089,-0.0216,0.0,0.0,0.0,0.0,0.0,0.0,0.0,0.0,0.0,0.0,0.0,0.0,0.0,0.0,0.0,0.0,0.0,0.0,0.0,0.0,0.0,0.0,0.0,0.0,0.0,0.0,0.0,0.0,0.0,0.0,0.0,0.0,0.0,0.0,0.0,0.0,0.0,0.0,0.0,0.0,0.0,0.0,0.0,-0.0546,-0.1596,-0.278,-0.3873,-0.491,-0.6225,-0.6755,-0.6796,-0.6974,-0.7021,-0.7021,-0.7021,-0.7021,-0.7021,-0.7021,-0.7021,-0.7021,-0.7021,-0.7021,-0.7021,-0.7021,-0.7021,-0.7021,-0.7021,-0.7021,-0.7021,-0.7021,-0.7021,-0.7034,-0.7085,-0.7095,-0.7095,-0.7095,-0.7095,-0.7095,-0.7095,-0.7095,-0.7095,-0.7095,-0.7095,-0.7095,-0.7095,-0.7095,-0.7095,-0.7095,-0.7095,-0.7095,-0.7095,-0.7095,-0.7095,-0.7095,-0.7095,-0.7095,-0.7095,-0.7095,-0.7095,-0.7095,-0.7095,-0.7095,-0.7095,-0.7095,-0.7095,-0.7095,-0.7095,-0.7095,0.0,0.0,-0.1084,0.0,0.0,0.0,0.0,0.0,0.0,0.0,0.0,0.0,0.0,0.0,0.0,0.0,0.0,0.0,0.0,0.0,0.0,0.0,0.0,0.0,0.0,0.0,0.0,0.0,0.0,0.0,0.0,0.0,0.0,0.0,0.0,0.0,0.0,0.0,0.0,0.0,0.0,0.0,0.0,0.0,0.0,0.0,0.0,-0.0084,-0.0337,-0.1557,-0.2147,-0.2483,-0.455,-0.5356,-0.5485,-0.6418,-0.6759,-0.6759,-0.6759,-0.6759,-0.6759,-0.6759,-0.6759,-0.6759,-0.6759,-0.6759,-0.6759,-0.6759,-0.6759,-0.6759,-0.6759,-0.6759,-0.6759,-0.6759,-0.6759,-0.6827,-0.7041,-0.7095,-0.7095,-0.7095,-0.7095,-0.7095,-0.7095,-0.7095,-0.7095,-0.7095,-0.7095,-0.7095,-0.7095,-0.7095,-0.7095,-0.7095,-0.7095,-0.7095,-0.7095,-0.7095,-0.7095,-0.7095,-0.7095,-0.7095,-0.7095,-0.7095,-0.7095,-0.7095,-0.7095,-0.7095,-0.7095,-0.7095,-0.7095,-0.7095,-0.7095,-0.7095,-0.3547,-0.2297,-0.1093,0.0,0.0,0.0,0.0,0.0,0.0,0.0,0.0,0.0,0.0,0.0,0.0,0.0,0.0,0.0,0.0,0.0,0.0,0.0,0.0,0.0,0.0,0.0,0.0,0.0,0.0,0.0,0.0,0.0,0.0,0.0,0.0,0.0,0.0,0.0,0.0,0.0,0.0,0.0,0.0,0.0,0.0,0.0,0.0,0.0,-0.0081,-0.1311,-0.1809,-0.1976,-0.3624,-0.4601,-0.5144,-0.5646,-0.6194,-0.6702,-0.6702,-0.6702,-0.6702,-0.6702,-0.6702,-0.6702,-0.6702,-0.6702,-0.6702,-0.6702,-0.6702,-0.6702,-0.6702,-0.6702,-0.6702,-0.6702,-0.6702,-0.6736,-0.6865,-0.6895,-0.6895,-0.6895,-0.6895,-0.6895,-0.6895,-0.6895,-0.6895,-0.6895,-0.6895,-0.6895,-0.6895,-0.6895,-0.6883,-0.697,-0.6977,-0.7011,-0.7088,-0.7095,-0.7095,-0.7095,-0.7095,-0.7095,-0.7095,-0.7095,-0.7095,-0.7095,-0.7095,-0.7095,-0.7095,-0.7095,-0.7095,-0.7095,-0.7095,-0.7095,0.0,0.0,-0.1106,-0.0202,0.0,0.0,0.0,0.0,0.0,0.0,0.0,0.0,0.0,0.0,0.0,0.0,0.0,0.0,0.0,0.0,0.0,0.0,0.0,0.0,0.0,0.0,0.0,0.0,0.0,0.0,0.0,0.0,0.0,0.0,0.0,0.0,0.0,0.0,0.0,0.0,0.0,0.0,0.0,0.0,0.0,0.0,0.0,0.0,-0.0079,-0.0958,-0.1326,-0.1449,-0.262,-0.3704,-0.4644,-0.4892,-0.5676,-0.6586,-0.6586,-0.6586,-0.6586,-0.6586,-0.6586,-0.6586,-0.6586,-0.6586,-0.6586,-0.6586,-0.6586,-0.6586,-0.6586,-0.6586,-0.6586,-0.6586,-0.6586,-0.661,-0.6685,-0.6702,-0.6702,-0.6702,-0.6702,-0.6702,-0.6702,-0.6702,-0.6702,-0.6702,-0.6702,-0.6702,-0.6702,-0.6702,-0.6746,-0.6858,-0.6829,-0.6869,-0.6974,-0.6984,-0.6984,-0.6984,-0.7021,-0.7045,-0.7045,-0.7078,-0.7095,-0.7095,-0.7061,-0.7061,-0.7095,-0.7095,-0.7095,-0.7095,-0.7058,-0.7045,0.0,-0.134,0.0,-0.0202,0.0,0.0,0.0,0.0,0.0,0.0,0.0,0.0,0.0,0.0,0.0,0.0,0.0,0.0,0.0,0.0,0.0,0.0,0.0,0.0,0.0,0.0,0.0,0.0,0.0,0.0,0.0,0.0,0.0,0.0,0.0,0.0,0.0,0.0,0.0,0.0,0.0,0.0,0.0,0.0,0.0,0.0,0.0,0.0,0.0,-0.0079,-0.0079,-0.0197,-0.1298,-0.2316,-0.3331,-0.435,-0.5413,-0.6323,-0.6323,-0.6323,-0.6323,-0.6323,-0.6323,-0.6323,-0.6323,-0.6323,-0.6323,-0.6323,-0.6323,-0.6323,-0.6323,-0.6323,-0.6323,-0.6323,-0.6323,-0.6402,-0.6641,-0.6702,-0.6702,-0.6702,-0.6702,-0.6702,-0.6702,-0.6702,-0.6702,-0.6702,-0.6702,-0.6702,-0.6702,-0.6702,-0.6705,-0.6712,-0.6712,-0.6715,-0.6722,-0.6722,-0.6722,-0.6722,-0.6861,-0.6896,-0.6896,-0.7024,-0.7095,-0.7095,-0.6964,-0.6964,-0.7095,-0.7095,-0.7095,-0.7092,-0.696,-0.6896,0.0,0.0,0.0,-0.0202,0.0,0.0,0.0,0.0,0.0,0.0,0.0,0.0,0.0,0.0,0.0,0.0,0.0,0.0,0.0,0.0,0.0,0.0,0.0,0.0,0.0,0.0,0.0,0.0,0.0,0.0,0.0,0.0,0.0,0.0,0.0,0.0,0.0,0.0,0.0,0.0,0.0,0.0,0.0,0.0,0.0,0.0,0.0,0.0,0.0,0.0,0.0,-0.0039,-0.0432,-0.1215,-0.2192,-0.2582,-0.3791,-0.5276,-0.5276,-0.5709,-0.63,-0.63,-0.63,-0.63,-0.63,-0.63,-0.63,-0.63,-0.63,-0.63,-0.63,-0.63,-0.63,-0.63,-0.63,-0.6327,-0.6436,-0.646,-0.646,-0.646,-0.646,-0.646,-0.646,-0.646,-0.646,-0.646,-0.646,-0.646,-0.646,-0.646,-0.6494,-0.6546,-0.6556,-0.6593,-0.6692,-0.6702,-0.6702,-0.6702,-0.6753,-0.6783,-0.6783,-0.6831,-0.6858,-0.6858,-0.6807,-0.6854,-0.696,-0.6905,-0.6858,-0.6858,-0.6807,-0.6783,-0.1107,0.0,0.0,0.0,0.0,0.0,0.0,0.0,0.0,0.0,0.0,0.0,0.0,0.0,0.0,0.0,0.0,0.0,0.0,0.0,0.0,0.0,0.0,0.0,0.0,0.0,0.0,0.0,0.0,0.0,0.0,0.0,0.0,0.0,0.0,0.0,0.0,0.0,0.0,0.0,0.0,0.0,0.0,0.0,0.0,0.0,0.0,0.0,0.0,0.0,0.0,0.0,0.0,-0.0667,-0.1607,-0.1607,-0.2699,-0.4217,-0.4569,-0.5157,-0.5825,-0.618,-0.63,-0.63,-0.63,-0.63,-0.63,-0.63,-0.63,-0.63,-0.63,-0.63,-0.63,-0.63,-0.63,-0.63,-0.63,-0.63,-0.63,-0.63,-0.63,-0.63,-0.63,-0.63,-0.63,-0.63,-0.63,-0.63,-0.63,-0.63,-0.6334,-0.6429,-0.6443,-0.648,-0.6542,-0.6552,-0.6552,-0.6552,-0.6597,-0.6624,-0.6624,-0.6671,-0.6702,-0.6702,-0.6651,-0.6675,-0.6776,-0.6725,-0.6702,-0.6698,-0.6647,-0.66,0.0,0.0,0.0,0.0,0.0,0.0,0.0,0.0,0.0,0.0,0.0,0.0,0.0,0.0,0.0,0.0,0.0,0.0,0.0,0.0,0.0,0.0,0.0,0.0,0.0,0.0,0.0,0.0,0.0,0.0,0.0,0.0,0.0,0.0,0.0,0.0,0.0,0.0,0.0,0.0,0.0,0.0,0.0,0.0,0.0,0.0,0.0,0.0,0.0,0.0,0.0,0.0,-0.0039,-0.0667,-0.1568,-0.1607,-0.2268,-0.324,-0.4334,-0.4727,-0.4924,-0.5944,-0.63,-0.63,-0.63,-0.63,-0.63,-0.63,-0.63,-0.63,-0.63,-0.63,-0.63,-0.63,-0.63,-0.63,-0.63,-0.63,-0.63,-0.63,-0.63,-0.63,-0.63,-0.63,-0.63,-0.63,-0.63,-0.63,-0.63,-0.63,-0.63,-0.63,-0.63,-0.63,-0.63,-0.63,-0.63,-0.63,-0.6429,-0.6504,-0.6504,-0.661,-0.6688,-0.6688,-0.6542,-0.6504,-0.6508,-0.6614,-0.6688,-0.6685,-0.6536,-0.6433,-0.0067,0.0,0.0,0.0,0.0,0.0,0.0,0.0,0.0,0.0,0.0,0.0,0.0,0.0,0.0,0.0,0.0,0.0,0.0,0.0,0.0,0.0,0.0,0.0,0.0,0.0,0.0,0.0,0.0,0.0,0.0,0.0,0.0,0.0,0.0,0.0,0.0,0.0,0.0,0.0,0.0,0.0,0.0,0.0,0.0,0.0,0.0,0.0,0.0,0.0,0.0,-0.0077,-0.0857,-0.0863,-0.0628,-0.2112,-0.2851,-0.324,-0.4334,-0.5198,-0.5906,-0.6222,-0.63,-0.63,-0.63,-0.63,-0.63,-0.63,-0.63,-0.63,-0.63,-0.63,-0.63,-0.63,-0.63,-0.63,-0.63,-0.63,-0.63,-0.63,-0.63,-0.63,-0.63,-0.63,-0.63,-0.63,-0.63,-0.63,-0.63,-0.63,-0.63,-0.63,-0.63,-0.63,-0.63,-0.63,-0.63,-0.63,-0.6337,-0.6358,-0.6358,-0.6399,-0.6422,-0.6422,-0.6378,-0.6358,-0.6358,-0.6402,-0.6422,-0.6422,-0.6378,-0.6337,0.0,0.0,0.0,0.0,0.0,0.0,0.0,0.0,0.0,0.0,0.0,0.0,0.0,0.0,0.0,0.0,0.0,0.0,0.0,0.0,0.0,0.0,0.0,0.0,0.0,0.0,0.0,0.0,0.0,0.0,0.0,0.0,0.0,0.0,0.0,0.0,0.0,0.0,0.0,0.0,0.0,0.0,0.0,0.0,0.0,0.0,0.0,0.0,0.0,0.0,0.0,-0.0075,-0.0681,-0.0533,-0.0191,-0.1881,-0.2465,-0.27,-0.4165,-0.5118,-0.5709,-0.6141,-0.63,-0.63,-0.63,-0.63,-0.63,-0.63,-0.63,-0.63,-0.63,-0.63,-0.63,-0.63,-0.63,-0.63,-0.63,-0.63,-0.63,-0.63,-0.63,-0.63,-0.63,-0.63,-0.63,-0.63,-0.63,-0.63,-0.63,-0.63,-0.63,-0.63,-0.63,-0.63,-0.63,-0.63,-0.63,-0.63,-0.63,-0.63,-0.63,-0.63,-0.63,-0.63,-0.63,-0.63,-0.63,-0.63,-0.63,-0.63,-0.63,-0.63,0.0,0.0,0.0,0.0,0.0,0.0,0.0,0.0,0.0,0.0,0.0,0.0,0.0,0.0,0.0,0.0,0.0,0.0,0.0,0.0,0.0,0.0,0.0,0.0,0.0,0.0,0.0,0.0,0.0,0.0,0.0,0.0,0.0,0.0,0.0,0.0,0.0,0.0,0.0,0.0,0.0,0.0,0.0,0.0,0.0,0.0,0.0,0.0,0.0,0.0,0.0,0.0,-0.0146,-0.0109,-0.0146,-0.1343,-0.1768,-0.2036,-0.4,-0.4727,-0.4963,-0.5954,-0.6276,-0.6276,-0.6293,-0.63,-0.63,-0.63,-0.63,-0.63,-0.63,-0.63,-0.63,-0.63,-0.63,-0.63,-0.63,-0.63,-0.63,-0.63,-0.63,-0.63,-0.63,-0.63,-0.63,-0.63,-0.63,-0.63,-0.63,-0.63,-0.63,-0.63,-0.63,-0.63,-0.63,-0.63,-0.6261,-0.6141,-0.6219,-0.6261,-0.6141,-0.6141,-0.618,-0.63,-0.63,-0.6257,-0.6141,-0.6257,-0.63,-0.63,-0.63,-0.63,0.0,0.0,0.0,0.0,0.0,0.0,0.0,0.0,0.0,0.0,0.0,0.0,0.0,0.0,0.0,0.0,0.0,0.0,0.0,0.0,0.0,0.0,0.0,0.0,0.0,0.0,0.0,0.0,0.0,0.0,0.0,0.0,0.0,0.0,0.0,0.0,0.0,0.0,0.0,0.0,0.0,0.0,0.0,0.0,0.0,0.0,0.0,0.0,0.0,0.0,0.0,-0.0071,-0.0939,-0.0764,-0.0219,-0.212,-0.2744,-0.2818,-0.4113,-0.5003,-0.5649,-0.5959,-0.6074,-0.6098,-0.6262,-0.63,-0.63,-0.63,-0.63,-0.63,-0.63,-0.63,-0.63,-0.63,-0.63,-0.63,-0.63,-0.63,-0.63,-0.63,-0.63,-0.63,-0.63,-0.63,-0.63,-0.63,-0.63,-0.63,-0.63,-0.63,-0.63,-0.63,-0.63,-0.63,-0.63,-0.63,-0.5944,-0.5079,-0.5825,-0.5906,-0.504,-0.5002,-0.5434,-0.63,-0.63,-0.5867,-0.5002,-0.5867,-0.63,-0.63,-0.63,-0.63,0.0,0.0,0.0,0.0,0.0,0.0,0.0,0.0,0.0,0.0,0.0,0.0,0.0,0.0,0.0,0.0,0.0,0.0,0.0,0.0,0.0,0.0,0.0,0.0,0.0,0.0,0.0,0.0,0.0,0.0,0.0,0.0,0.0,0.0,0.0,0.0,0.0,0.0,0.0,0.0,0.0,0.0,0.0,0.0,0.0,0.0,0.0,0.0,0.0,0.0,0.0,-0.0069,-0.0593,-0.0491,-0.0176,-0.1774,-0.2315,-0.2461,-0.3968,-0.4781,-0.5231,-0.5742,-0.5915,-0.5928,-0.6006,-0.6084,-0.6162,-0.6279,-0.63,-0.63,-0.63,-0.63,-0.63,-0.63,-0.63,-0.63,-0.63,-0.63,-0.63,-0.63,-0.63,-0.63,-0.63,-0.63,-0.63,-0.63,-0.63,-0.63,-0.63,-0.63,-0.63,-0.63,-0.5825,-0.5512,-0.5512,-0.5002,-0.4491,-0.3943,-0.4414,-0.445,-0.3943,-0.3904,-0.4139,-0.4686,-0.4688,-0.4453,-0.3904,-0.4453,-0.496,-0.5512,-0.5512,-0.5786,0.0,0.0,0.0,0.0,0.0,0.0,0.0,0.0,0.0,0.0,0.0,0.0,0.0,0.0,0.0,0.0,0.0,0.0,0.0,0.0,0.0,0.0,0.0,0.0,0.0,0.0,0.0,0.0,0.0,0.0,0.0,0.0,0.0,0.0,0.0,0.0,0.0,0.0,0.0,0.0,0.0,0.0,0.0,0.0,0.0,0.0,0.0,0.0,0.0,0.0,0.0,0.0,0.0,0.0,-0.0101,-0.0964,-0.1387,-0.1772,-0.3331,-0.4103,-0.4537,-0.5244,-0.5633,-0.58,-0.58,-0.5888,-0.6017,-0.6173,-0.6255,-0.6262,-0.6293,-0.63,-0.63,-0.63,-0.63,-0.63,-0.63,-0.63,-0.63,-0.63,-0.63,-0.63,-0.63,-0.63,-0.63,-0.63,-0.63,-0.63,-0.63,-0.6103,-0.5983,-0.5983,-0.504,-0.4375,-0.4375,-0.3593,-0.3007,-0.2813,-0.3007,-0.3007,-0.2813,-0.3007,-0.3007,-0.2813,-0.3007,-0.3007,-0.2813,-0.2813,-0.3359,-0.4375,-0.4375,-0.4844,0.0,0.0,0.0,0.0,0.0,0.0,0.0,0.0,0.0,0.0,0.0,0.0,0.0,0.0,0.0,0.0,0.0,0.0,0.0,0.0,0.0,0.0,0.0,0.0,0.0,0.0,0.0,0.0,0.0,0.0,0.0,0.0,0.0,0.0,0.0,0.0,0.0,0.0,0.0,0.0,0.0,0.0,0.0,0.0,0.0,0.0,0.0,0.0,0.0,0.0,0.0,0.0,0.0,0.0,0.0,-0.0135,-0.0675,-0.1381,-0.1587,-0.2701,-0.4102,-0.4312,-0.5018,-0.58,-0.58,-0.5813,-0.5861,-0.6013,-0.602,-0.6088,-0.6265,-0.63,-0.63,-0.63,-0.63,-0.63,-0.63,-0.63,-0.63,-0.63,-0.63,-0.63,-0.63,-0.63,-0.63,-0.63,-0.63,-0.63,-0.63,-0.5473,-0.4882,-0.4882,-0.3904,-0.3279,-0.3279,-0.3163,-0.2735,-0.1841,-0.2618,-0.2696,-0.1802,-0.2618,-0.2696,-0.1802,-0.2657,-0.2657,-0.1762,-0.1762,-0.2308,-0.3279,-0.3279,-0.3357,0.0,0.0,0.0,0.0,0.037,0.0638,0.0101,0.0,0.0,0.0,0.0,0.0,0.0,0.0,0.0,0.0,0.0,0.0,0.0,0.0,0.0,0.0,0.0,0.0,0.0,0.0,0.0,0.0,0.0,0.0,0.0,0.0,0.0,0.0,0.0,0.0,0.0,0.0,0.0,0.0,0.0,0.0,0.0,0.0,0.0,0.0,0.0,0.0,0.0,0.0,0.0,0.0,0.0,0.0,0.0,0.0,-0.0236,-0.0605,-0.114,-0.1808,-0.2549,-0.3121,-0.3981,-0.4757,-0.4836,-0.5249,-0.5708,-0.5854,-0.5898,-0.5932,-0.6088,-0.6129,-0.6149,-0.6279,-0.63,-0.63,-0.63,-0.63,-0.63,-0.63,-0.63,-0.63,-0.63,-0.63,-0.63,-0.63,-0.63,-0.6064,-0.547,-0.496,-0.445,-0.3826,-0.2852,-0.2231,-0.2231,-0.1643,-0.1136,-0.0706,-0.1058,-0.1097,-0.0706,-0.1058,-0.1097,-0.0667,-0.1097,-0.1097,-0.0667,-0.0667,-0.0902,-0.1331,-0.1956,-0.254,0.0437,0.0806,0.1106,0.0202,0.0471,0.0772,0.0135,0.0,0.0,0.0,0.0,0.0,0.0,0.0,0.0,0.0,0.0,0.0,0.0,0.0,0.0,0.0,0.0,0.0,0.0,0.0,0.0,0.0,0.0,0.0,0.0,0.0,0.0,0.0,0.0,0.0101,0.037,0.037,0.0471,0.074,0.0471,0.037,0.0337,0.0101,0.0,0.0,0.0,0.0,0.0,0.0,0.0,0.0,0.0,0.0,0.0,0.0,0.0,-0.0101,-0.0739,-0.1106,-0.1441,-0.241,-0.3111,-0.3661,-0.3771,-0.4277,-0.4823,-0.495,-0.5167,-0.5412,-0.5555,-0.5781,-0.6006,-0.6162,-0.6235,-0.6248,-0.6289,-0.606,-0.5867,-0.5867,-0.5628,-0.5431,-0.5431,-0.567,-0.5867,-0.5867,-0.5628,-0.5157,-0.4373,-0.4023,-0.3556,-0.2774,-0.1761,-0.1176,-0.1176,-0.0432,0.0,0.0,0.0,0.0,0.0,0.0,0.0,0.0,0.0,0.0,0.0,0.0,0.0,0.0,-0.0784,-0.1567,0.1507,0.1273,0.1106,0.0202,0.0034,0.0034,0.0,0.0,0.0,0.0,0.0,0.0,0.0,0.0,0.0,0.0,0.0,0.0,0.0,0.0,0.0,0.0,0.0,0.0,0.0,0.0,0.0,0.0,0.0,0.0,0.0,0.0,0.0,0.0,0.0,0.0404,0.124,0.1274,0.1708,0.2611,0.1708,0.1274,0.124,0.037,0.0,0.0,0.0,0.0,0.0,0.0,0.0,0.0,0.0,0.0,0.0,0.0,0.0,0.0,-0.0034,-0.0605,-0.1441,-0.241,-0.2711,-0.2744,-0.2748,-0.2781,-0.2833,-0.2948,-0.3598,-0.4286,-0.4505,-0.5189,-0.5847,-0.5963,-0.6,-0.6078,-0.6269,-0.5473,-0.4766,-0.4766,-0.3904,-0.3202,-0.3202,-0.4062,-0.4766,-0.4766,-0.3865,-0.3202,-0.3163,-0.2308,-0.1685,-0.1646,-0.0706,-0.0039,-0.0039,-0.0039,0.0,0.0,0.0,0.0,0.0,0.0,0.0,0.0,0.0,0.0,0.0,0.0,0.0,0.0,-0.0039,-0.0079,0.231,0.2644,0.2878,0.2011,0.2211,0.2479,0.191,0.1777,0.1777,0.1777,0.1308,0.104,0.1677,0.0,0.0,0.0,0.0,0.0,0.0,0.0504,0.0873,0.0873,0.0337,0.0236,0.0806,0.0873,0.1107,0.1743,0.1777,0.1509,0.0906,0.1442,0.1509,0.0873,0.1476,0.1944,0.2209,0.2242,0.2376,0.2711,0.2376,0.2242,0.221,0.1275,0.0873,0.0839,0.0236,0.0,0.0,0.0,0.0,0.0,0.0,0.0,0.0,0.0,0.0,0.0,0.0,-0.0202,-0.0505,-0.0807,-0.1308,-0.1775,-0.1775,-0.221,-0.2716,-0.2742,-0.2988,-0.3245,-0.3404,-0.3675,-0.3914,-0.4055,-0.4096,-0.4082,-0.4154,-0.3902,-0.3632,-0.3632,-0.3357,-0.3085,-0.3085,-0.2852,-0.2854,-0.3554,-0.3318,-0.2851,-0.219,-0.1802,-0.1333,-0.0628,-0.0236,0.0,0.0,0.0,0.0,0.0,0.0,0.0,0.0,0.0,0.0,0.0,0.0,0.0,0.0,0.0,0.0,0.0,0.0,0.0,0.3247,0.358,0.3782,0.2911,0.3111,0.338,0.2845,0.2711,0.2711,0.2711,0.2209,0.1976,0.2577,0.0,0.0,0.0,0.0,0.0,0.0,0.1241,0.1808,0.1808,0.1308,0.1041,0.1274,0.1608,0.2043,0.2644,0.2711,0.2444,0.1842,0.2376,0.241,0.1809,0.2376,0.2845,0.3145,0.3178,0.3345,0.3647,0.3311,0.3178,0.3145,0.2209,0.1808,0.1775,0.1208,0.0773,0.0471,0.0471,0.0269,0.0,0.0,0.0,0.0,0.0,0.0,0.0,0.0,0.0,0.0,0.0,-0.037,-0.0839,-0.0839,-0.1275,-0.1744,-0.1744,-0.1977,-0.2218,-0.2293,-0.2579,-0.2875,-0.299,-0.3011,-0.3027,-0.3083,-0.2825,-0.2553,-0.2575,-0.2267,-0.1994,-0.1994,-0.1449,-0.1371,-0.2425,-0.2228,-0.176,-0.1097,-0.102,-0.0784,-0.0079,0.0,0.0,0.0,0.0,0.0,0.0,0.0,0.0,0.0,0.0,0.0,0.0,0.0,0.0,0.0,0.0,0.0,0.0,0.0,0.0]}]]